[[{"header":{"parameterUnit":"m.s-1","parameterCategory":1,"la1":31.0,"la2":29.5877,"lo1":-88.7671,"lo2":-86.6584,"dy":0.0162,"dx":0.0185,"nx":115,"ny":88,"refTime":"2024-06-04T18:00:00:Z","depth":0,"parameterNumber":2,"parameterNumberName":"U-component_of_WINDS"},"data":[0.0,0.0,0.0,0.0,0.0,0.0,0.0,0.0,0.0,0.0,0.0,0.0,0.0,0.0,0.0,0.0,0.0,0.0,0.0,0.0,0.0,0.0,0.0,0.0,0.0,0.0,0.0,0.0,0.0,0.0,0.0,0.0,0.0,0.0,0.0,0.0,0.0,0.0,0.0,0.0,0.0,0.0,0.0,0.0,0.0,0.0,0.0,0.0,0.0,0.0,0.0,0.0,0.0,0.0,0.0,0.0,0.0,0.0,0.0,0.0,0.0,0.0,0.0,0.0,0.0,0.0,0.0,0.0,0.0,0.0,0.0,0.0,0.0,0.0,0.0,0.0,0.0,0.0,0.0,0.0,0.0,0.0,0.0,0.0,0.0,0.0,0.0,0.0,0.0,0.0,0.0,0.0,0.0,0.0,0.0,0.0,0.0,0.0,0.0,0.0,0.0,0.0,0.0,0.0,0.0,0.0,0.0,0.0,0.0,0.0,0.0,0.0,0.0,0.0,0.0,0.0,0.0,0.0,0.0,0.0,0.0,0.0,0.0,0.0,0.0,0.0,0.0,0.0,0.0,0.0,0.0,0.0,0.0,0.0,0.0,0.0,0.0,0.0,0.0,0.0,0.0,0.0,0.0,0.0,0.0,0.0,0.0,0.0,0.0,0.0,0.0,0.0,0.0,0.0,0.0,0.0,0.0,0.0,0.0,0.0,0.0,0.0,0.0,0.0,0.0,0.0,0.0,0.0,0.0,0.0,0.0,0.0,0.0,0.0,0.0,0.0,0.0,0.0,0.0,0.0,0.0,0.0,0.0,0.0,0.0,0.0,0.0,0.0,0.0,0.0,0.0,0.0,0.0,0.0,0.0,0.0,0.0,0.0,0.0,0.0,0.0,0.0,0.0,0.0,0.0,0.0,0.0,0.0,0.0,0.0,0.0,0.0,0.0,0.0,0.0,0.0,0.0,0.0,0.0,0.0,0.0,0.0,0.0,0.0,0.0,0.0,0.0,0.0,0.0,0.0,0.0,0.0,0.0,0.0,0.0,0.0,0.0,0.0,0.0,0.0,0.0,0.0,0.0,0.0,0.0,0.0,0.0,0.0,0.0,0.0,0.0,0.0,0.0,0.0,0.0,0.0,0.0,0.0,0.0,0.0,0.0,0.0,0.0,0.0,0.0,0.0,0.0,0.0,0.0,0.0,0.0,0.0,0.0,0.0,0.0,0.0,0.0,0.0,0.0,0.0,0.0,0.0,0.0,0.0,0.0,0.0,0.0,0.0,0.0,0.0,0.0,0.0,0.0,0.0,0.0,0.0,0.0,0.0,0.0,0.0,0.0,0.0,0.0,0.0,0.0,0.0,0.0,0.0,0.0,0.0,0.0,0.0,0.0,0.0,0.0,0.0,0.0,0.0,0.0,0.0,0.0,0.0,0.0,0.0,0.0,0.0,0.0,0.0,0.0,0.0,0.0,0.0,0.0,0.0,0.0,0.0,0.0,0.0,0.0,0.0,0.0,0.0,0.0,0.0,0.0,0.0,0.0,0.0,0.0,0.0,0.0,0.0,0.0,0.0,0.0,0.0,0.0,0.0,0.0,0.0,0.0,0.0,0.0,0.0,0.0,0.0,0.0,0.0,0.0,0.0,0.0,0.0,0.0,0.0,0.0,0.0,0.0,0.0,0.0,0.0,0.0,0.0,0.0,0.0,0.0,0.0,0.0,0.0,0.0,0.0,0.0,0.0,0.0,0.0,0.0,0.0,0.0,0.0,0.0,0.0,0.0,0.0,0.0,0.0,0.0,0.0,0.0,0.0,0.0,0.0,0.0,0.0,0.0,0.0,0.0,0.0,0.0,0.0,0.0,0.0,0.0,0.0,0.0,0.0,0.0,0.0,0.0,0.0,0.0,0.0,0.0,0.0,0.0,0.0,0.0,0.0,0.0,0.0,0.0,0.0,0.0,0.0,0.0,0.0,0.0,0.0,0.0,0.0,0.0,0.0,0.0,0.0,0.0,0.0,0.0,0.0,0.0,0.0,0.0,0.0,0.0,0.0,0.0,0.0,0.0,0.0,0.0,0.0,0.0,0.0,0.0,0.0,0.0,0.0,0.0,0.0,0.0,0.0,0.0,0.0,0.0,0.0,0.0,0.0,0.0,0.0,0.0,0.0,0.0,0.0,0.0,0.0,0.0,0.0,0.0,0.0,0.0,0.0,0.0,0.0,0.0,0.0,0.0,0.0,0.0,0.0,0.0,0.0,0.0,0.0,0.0,0.0,0.0,0.0,0.0,0.0,0.0,0.0,0.0,0.0,0.0,0.0,0.0,0.0,0.0,0.0,0.0,0.0,0.0,0.0,0.0,0.0,0.0,0.0,0.0,0.0,0.0,0.0,0.0,0.0,0.0,0.0,0.0,0.0,0.0,0.0,0.0,0.0,0.0,0.0,0.0,0.0,0.0,0.0,0.0,0.0,0.0,0.0,0.0,0.0,0.0,0.0,0.0,0.0,0.0,0.0,0.0,0.0,0.0,0.0,0.0,0.0,0.0,0.0,0.0,0.0,0.0,0.0,0.0,0.0,0.0,0.0,0.0,0.0,0.0,0.0,0.0,0.0,0.0,0.0,0.0,0.0,0.0,0.0,0.0,0.0,0.0,0.0,0.0,0.0,0.0,0.0,0.0,0.0,0.0,0.0,0.0,0.0,0.0,0.0,0.0,0.0,0.0,0.0,0.0,0.0,0.0,0.0,0.0,0.0,0.0,0.0,0.0,0.0,0.0,0.0,0.0,0.0,0.0,0.0,0.0,0.0,0.0,0.0,0.0,0.0,0.0,0.0,0.0,0.0,0.0,0.0,0.0,0.0,0.0,0.0,0.0,0.0,0.0,0.0,0.0,0.0,0.0,0.0,0.0,0.0,0.0,0.0,0.0,0.0,0.0,0.0,0.0,0.0,0.0,0.0,0.0,0.0,0.0,0.0,0.0,0.0,0.0,0.0,0.0,0.0,0.0,0.0,0.0,0.0,0.0,0.0,0.0,0.0,0.0,0.0,0.0,0.0,0.0,0.0,0.0,0.0,0.0,0.0,0.0,0.0,0.0,0.0,0.0,0.0,0.0,0.0,0.0,0.0,0.0,0.0,0.0,0.0,0.0,0.0,0.0,0.0,0.0,0.0,0.0,0.0,0.0,0.0,0.0,0.0,0.0,0.0,0.0,0.0,0.0,0.0,0.0,0.0,0.0,0.0,0.0,0.0,0.0,0.0,0.0,0.0,0.0,0.0,0.0,0.0,0.0,0.0,0.0,0.0,0.0,0.0,0.0,0.0,0.0,0.0,0.0,0.0,0.0,0.0,0.0,0.0,0.0,0.0,0.0,0.0,0.0,0.0,0.0,0.0,0.0,0.0,0.0,0.0,0.0,0.0,0.0,0.0,0.0,0.0,0.0,0.0,0.0,0.0,0.0,0.0,0.0,0.0,0.0,0.0,0.0,0.0,0.0,0.0,0.0,0.0,0.0,0.0,0.0,0.0,0.0,0.0,0.0,0.0,0.0,0.0,0.0,0.0,0.0,0.0,0.0,0.0,0.0,0.0,0.0,0.0,0.0,0.0,0.0,0.0,0.0,0.0,0.0,0.0,0.0,0.0,0.0,0.0,0.0,0.0,0.0,0.0,0.0,0.0,0.0,0.0,0.0,0.0,0.0,0.0,0.0,0.0,0.0,0.0,0.0,0.0,0.0,0.0,0.0,0.0,0.0,0.0,0.0,0.0,0.0,0.0,0.0,0.0,0.0,0.0,0.0,0.0,0.0,0.0,0.0,0.0,0.0,0.0,0.0,0.0,0.0,0.0,0.0,0.0,0.0,0.0,0.0,0.0,0.0,0.0,0.0,0.0,0.0,0.0,0.0,0.0,0.0,0.0,0.0,0.0,0.0,0.0,0.0,0.0,0.0,0.0,0.0,0.0,0.0,0.0,0.0,0.0,0.0,0.0,0.0,0.0,0.0,0.0,0.0,0.0,0.0,0.0,0.0,0.0,0.0,0.0,0.0,0.0,0.0,0.0,0.0,0.0,0.0,0.0,0.0,0.0,0.0,0.0,0.0,0.0,0.0,0.0,0.0,0.0,0.0,0.0,0.0,0.0,0.0,0.0,0.0,0.0,0.0,0.0,0.0,0.0,0.0,0.0,0.0,0.0,0.0,0.0,0.0,0.0,0.0,0.0,0.0,0.0,0.0,0.0,0.0,0.0,0.0,0.0,0.0,0.0,0.0,0.0,0.0,0.0,0.0,0.0,-1.4657,0.0,0.0,0.0,0.0,0.0,0.0,0.0,0.0,0.0,0.0,0.0,0.0,0.0,0.0,0.0,0.0,0.0,0.0,0.0,0.0,0.0,0.0,0.0,0.0,0.0,0.0,0.0,0.0,0.0,0.0,0.0,0.0,0.0,0.0,0.0,0.0,0.0,0.0,0.0,0.0,0.0,0.0,0.0,0.0,0.0,0.0,0.0,0.0,0.0,0.0,0.0,0.0,0.0,0.0,0.0,0.0,0.0,0.0,0.0,0.0,0.0,0.0,0.0,0.0,0.0,0.0,0.0,0.0,0.0,0.0,0.0,0.0,0.0,0.0,0.0,0.0,0.0,0.0,0.0,0.0,0.0,0.0,0.0,0.0,0.0,0.0,0.0,0.0,0.0,0.0,0.0,0.0,0.0,0.0,0.0,0.0,0.0,0.0,0.0,0.0,0.0,0.0,0.0,0.0,0.0,0.0,0.0,0.0,0.0,0.0,-1.7686,-1.7364,-1.6978,-1.6435,-1.5758,0.0,0.0,0.0,0.0,0.0,0.0,0.0,0.0,0.0,0.0,0.0,0.0,0.0,0.0,0.0,0.0,0.0,0.0,0.0,0.0,0.0,0.0,0.0,0.0,0.0,0.0,0.0,0.0,0.0,0.0,0.0,0.0,0.0,0.0,0.0,0.0,0.0,0.0,0.0,0.0,0.0,0.0,0.0,0.0,0.0,0.0,0.0,0.0,0.0,0.0,0.0,0.0,0.0,0.0,0.0,0.0,0.0,0.0,0.0,0.0,0.0,0.0,0.0,0.0,0.0,0.0,0.0,0.0,0.0,0.0,0.0,0.0,0.0,0.0,0.0,0.0,0.0,0.0,0.0,0.0,0.0,0.0,0.0,0.0,0.0,0.0,0.0,0.0,0.0,0.0,0.0,0.0,0.0,0.0,0.0,0.0,0.0,0.0,0.0,0.0,0.0,0.0,0.0,0.0,0.0,0.0,0.0,0.0,0.0,0.0,0.0,0.0,-1.7236,-1.68,-1.6407,0.0,0.0,0.0,0.0,0.0,0.0,0.0,0.0,0.0,0.0,0.0,0.0,0.0,0.0,0.0,0.0,0.0,0.0,0.0,0.0,0.0,0.0,0.0,0.0,0.0,0.0,0.0,0.0,0.0,0.0,0.0,0.0,0.0,0.0,0.0,0.0,0.0,0.0,0.0,0.0,0.0,0.0,0.0,0.0,0.0,0.0,0.0,0.0,0.0,0.0,0.0,0.0,0.0,0.0,0.0,0.0,0.0,0.0,0.0,0.0,0.0,0.0,0.0,0.0,0.0,0.0,0.0,0.0,0.0,0.0,0.0,0.0,0.0,0.0,0.0,0.0,0.0,0.0,0.0,0.0,0.0,0.0,0.0,0.0,0.0,0.0,0.0,0.0,0.0,0.0,0.0,0.0,0.0,0.0,0.0,0.0,0.0,0.0,0.0,0.0,0.0,0.0,0.0,0.0,0.0,0.0,0.0,0.0,0.0,0.0,-1.7789,-1.7794,-1.7743,0.0,-1.5688,0.0,0.0,0.0,0.0,0.0,0.0,0.0,0.0,0.0,0.0,0.0,0.0,0.0,0.0,0.0,0.0,0.0,0.0,0.0,0.0,0.0,0.0,0.0,0.0,0.0,0.0,0.0,0.0,0.0,0.0,0.0,0.0,0.0,0.0,0.0,0.0,0.0,0.0,0.0,0.0,0.0,0.0,0.0,0.0,0.0,0.0,0.0,0.0,0.0,0.0,0.0,0.0,0.0,0.0,0.0,0.0,0.0,0.0,0.0,0.0,0.0,0.0,0.0,0.0,0.0,0.0,0.0,0.0,0.0,0.0,0.0,0.0,0.0,0.0,0.0,0.0,0.0,0.0,0.0,0.0,0.0,0.0,0.0,0.0,0.0,0.0,0.0,0.0,0.0,0.0,0.0,0.0,0.0,0.0,0.0,0.0,0.0,0.0,0.0,0.0,0.0,0.0,0.0,0.0,0.0,0.0,0.0,0.0,0.0,0.0,-1.7681,-1.7698,-1.7681,-1.697,0.0,0.0,0.0,0.0,0.0,0.0,0.0,0.0,0.0,0.0,0.0,0.0,0.0,0.0,0.0,0.0,0.0,0.0,0.0,0.0,0.0,0.0,0.0,0.0,0.0,0.0,0.0,0.0,0.0,0.0,0.0,0.0,0.0,0.0,0.0,0.0,0.0,0.0,0.0,0.0,0.0,0.0,0.0,0.0,0.0,0.0,0.0,0.0,0.0,0.0,0.0,0.0,0.0,0.0,0.0,0.0,0.0,0.0,0.0,0.0,0.0,0.0,0.0,0.0,0.0,0.0,0.0,0.0,0.0,0.0,0.0,0.0,0.0,0.0,0.0,0.0,0.0,0.0,0.0,0.0,0.0,0.0,0.0,0.0,0.0,0.0,0.0,0.0,0.0,0.0,0.0,0.0,0.0,0.0,0.0,0.0,0.0,0.0,0.0,0.0,0.0,0.0,0.0,0.0,0.0,0.0,0.0,0.0,0.0,0.0,-1.7618,0.0,-1.7612,-1.7589,-1.6981,-1.5708,0.0,0.0,0.0,0.0,0.0,0.0,0.0,0.0,0.0,0.0,0.0,0.0,0.0,0.0,0.0,0.0,0.0,0.0,0.0,0.0,0.0,0.0,0.0,0.0,0.0,0.0,0.0,0.0,0.0,0.0,0.0,0.0,0.0,0.0,0.0,0.0,0.0,0.0,0.0,0.0,0.0,0.0,0.0,0.0,0.0,0.0,0.0,0.0,0.0,0.0,0.0,0.0,0.0,0.0,0.0,0.0,0.0,0.0,0.0,0.0,0.0,0.0,0.0,0.0,0.0,0.0,0.0,0.0,0.0,0.0,0.0,0.0,0.0,0.0,0.0,0.0,0.0,0.0,0.0,0.0,0.0,0.0,0.0,0.0,0.0,0.0,0.0,0.0,0.0,0.0,0.0,0.0,0.0,0.0,0.0,0.0,0.0,0.0,0.0,0.0,0.0,0.0,0.0,0.0,0.0,0.0,0.0,0.0,0.0,-1.7612,-1.7606,-1.7612,-1.7559,-1.7123,0.0,0.0,0.0,0.0,0.0,0.0,0.0,0.0,0.0,0.0,0.0,0.0,0.0,0.0,0.0,0.0,0.0,0.0,0.0,0.0,0.0,0.0,0.0,0.0,0.0,0.0,0.0,0.0,0.0,0.0,0.0,0.0,0.0,0.0,0.0,0.0,0.0,0.0,0.0,0.0,0.0,0.0,0.0,0.0,0.0,0.0,0.0,0.0,0.0,0.0,0.0,0.0,0.0,0.0,0.0,0.0,0.0,0.0,0.0,0.0,0.0,0.0,0.0,0.0,0.0,0.0,0.0,0.0,0.0,0.0,0.0,0.0,0.0,0.0,0.0,0.0,0.0,0.0,0.0,0.0,0.0,0.0,0.0,0.0,0.0,0.0,0.0,0.0,0.0,0.0,0.0,0.0,0.0,0.0,0.0,0.0,0.0,0.0,0.0,0.0,0.0,0.0,0.0,0.0,0.0,0.0,0.0,0.0,0.0,-1.7536,-1.7482,-1.7434,-1.741,-1.7386,-1.7033,0.0,0.0,0.0,0.0,0.0,0.0,0.0,0.0,0.0,0.0,0.0,0.0,0.0,0.0,0.0,0.0,0.0,0.0,0.0,0.0,0.0,0.0,0.0,0.0,0.0,0.0,0.0,0.0,0.0,0.0,0.0,0.0,0.0,0.0,0.0,0.0,0.0,0.0,0.0,0.0,0.0,0.0,0.0,0.0,0.0,0.0,0.0,0.0,0.0,0.0,0.0,0.0,0.0,0.0,0.0,0.0,0.0,0.0,0.0,0.0,0.0,0.0,0.0,0.0,0.0,0.0,0.0,0.0,0.0,0.0,0.0,0.0,0.0,0.0,0.0,0.0,0.0,0.0,0.0,0.0,0.0,0.0,0.0,0.0,0.0,0.0,0.0,0.0,0.0,0.0,0.0,0.0,0.0,0.0,0.0,0.0,0.0,0.0,0.0,0.0,0.0,0.0,0.0,0.0,0.0,0.0,0.0,0.0,0.0,-1.7765,0.0,-1.7887,0.0,-1.7575,-1.7224,0.0,0.0,0.0,0.0,0.0,0.0,0.0,0.0,0.0,0.0,0.0,0.0,0.0,0.0,0.0,0.0,0.0,0.0,0.0,0.0,0.0,0.0,0.0,0.0,0.0,0.0,0.0,0.0,0.0,0.0,0.0,0.0,0.0,0.0,0.0,0.0,0.0,0.0,0.0,0.0,0.0,0.0,0.0,0.0,0.0,0.0,0.0,0.0,0.0,0.0,0.0,0.0,0.0,0.0,0.0,0.0,0.0,0.0,0.0,0.0,0.0,0.0,0.0,0.0,0.0,0.0,0.0,0.0,0.0,0.0,0.0,0.0,0.0,0.0,0.0,0.0,0.0,0.0,0.0,0.0,0.0,0.0,0.0,0.0,0.0,0.0,0.0,0.0,0.0,0.0,0.0,0.0,0.0,0.0,0.0,0.0,0.0,0.0,0.0,0.0,0.0,0.0,0.0,0.0,0.0,0.0,0.0,0.0,-1.7691,-1.8271,-1.8936,-1.8898,-1.8231,-1.8119,-1.7716,0.0,0.0,0.0,0.0,0.0,0.0,0.0,0.0,0.0,0.0,0.0,0.0,0.0,0.0,0.0,0.0,0.0,0.0,0.0,0.0,0.0,0.0,0.0,0.0,0.0,0.0,0.0,0.0,0.0,0.0,0.0,0.0,0.0,0.0,0.0,0.0,0.0,0.0,0.0,0.0,0.0,0.0,0.0,0.0,0.0,0.0,0.0,0.0,0.0,0.0,0.0,0.0,0.0,0.0,0.0,0.0,0.0,0.0,0.0,0.0,0.0,0.0,0.0,0.0,0.0,0.0,0.0,0.0,0.0,0.0,0.0,0.0,0.0,0.0,0.0,0.0,0.0,0.0,0.0,0.0,0.0,0.0,0.0,0.0,0.0,0.0,0.0,0.0,0.0,0.0,0.0,0.0,0.0,0.0,0.0,0.0,0.0,0.0,0.0,0.0,0.0,0.0,0.0,0.0,0.0,0.0,0.0,0.0,0.0,-1.8824,-1.8945,-1.8904,-1.861,-1.8091,-1.7702,0.0,0.0,0.0,0.0,0.0,0.0,0.0,0.0,0.0,0.0,0.0,0.0,0.0,0.0,0.0,0.0,0.0,0.0,0.0,0.0,0.0,0.0,0.0,0.0,0.0,0.0,0.0,0.0,0.0,0.0,0.0,0.0,0.0,0.0,0.0,0.0,0.0,0.0,0.0,0.0,0.0,0.0,0.0,0.0,0.0,0.0,0.0,0.0,0.0,0.0,0.0,0.0,0.0,0.0,0.0,0.0,0.0,0.0,0.0,0.0,0.0,0.0,0.0,0.0,0.0,0.0,0.0,0.0,0.0,0.0,0.0,0.0,0.0,0.0,0.0,0.0,0.0,0.0,0.0,0.0,0.0,0.0,0.0,0.0,0.0,0.0,0.0,0.0,0.0,0.0,0.0,0.0,0.0,0.0,0.0,0.0,0.0,0.0,0.0,0.0,0.0,0.0,0.0,0.0,0.0,0.0,0.0,0.0,0.0,-2.0353,-2.0083,-1.9783,-1.9452,-1.8775,-1.8118,-1.7584,0.0,0.0,0.0,0.0,0.0,0.0,0.0,0.0,0.0,0.0,0.0,0.0,0.0,0.0,0.0,0.0,0.0,0.0,0.0,0.0,0.0,0.0,0.0,0.0,0.0,0.0,0.0,0.0,0.0,0.0,0.0,0.0,0.0,0.0,0.0,0.0,0.0,0.0,0.0,0.0,0.0,0.0,0.0,0.0,0.0,0.0,0.0,0.0,0.0,0.0,0.0,0.0,0.0,0.0,0.0,0.0,0.0,0.0,0.0,0.0,0.0,0.0,0.0,0.0,0.0,0.0,0.0,0.0,0.0,0.0,0.0,0.0,0.0,0.0,0.0,0.0,0.0,0.0,0.0,0.0,0.0,0.0,0.0,0.0,0.0,0.0,0.0,0.0,0.0,0.0,0.0,0.0,0.0,0.0,0.0,0.0,0.0,0.0,0.0,0.0,0.0,0.0,0.0,0.0,0.0,0.0,0.0,0.0,-2.259,-2.2077,-2.1428,-2.066,-1.9888,-1.8905,0.0,0.0,0.0,0.0,0.0,0.0,0.0,0.0,0.0,0.0,0.0,0.0,0.0,0.0,0.0,0.0,0.0,0.0,0.0,0.0,0.0,0.0,0.0,0.0,0.0,0.0,0.0,0.0,0.0,0.0,0.0,0.0,0.0,0.0,0.0,0.0,0.0,0.0,0.0,0.0,0.0,0.0,0.0,0.0,0.0,0.0,0.0,0.0,0.0,0.0,0.0,0.0,0.0,0.0,0.0,0.0,0.0,0.0,0.0,0.0,0.0,0.0,0.0,0.0,0.0,0.0,0.0,0.0,0.0,0.0,0.0,0.0,0.0,0.0,0.0,0.0,0.0,0.0,0.0,0.0,0.0,0.0,0.0,0.0,0.0,0.0,0.0,0.0,0.0,0.0,0.0,0.0,0.0,0.0,0.0,0.0,0.0,0.0,0.0,0.0,0.0,0.0,0.0,0.0,0.0,0.0,0.0,0.0,0.0,-2.2851,-2.2777,-2.2231,-2.1237,-2.04,-1.9559,0.0,0.0,0.0,0.0,0.0,0.0,0.0,0.0,0.0,0.0,0.0,0.0,0.0,0.0,0.0,0.0,0.0,0.0,0.0,0.0,0.0,0.0,0.0,0.0,0.0,0.0,0.0,0.0,0.0,0.0,0.0,0.0,0.0,0.0,0.0,0.0,0.0,0.0,0.0,0.0,0.0,0.0,0.0,0.0,0.0,0.0,0.0,0.0,0.0,0.0,0.0,0.0,0.0,0.0,0.0,0.0,0.0,0.0,0.0,0.0,0.0,0.0,0.0,0.0,0.0,0.0,0.0,0.0,0.0,0.0,0.0,0.0,0.0,0.0,0.0,0.0,0.0,0.0,0.0,0.0,0.0,0.0,0.0,0.0,0.0,0.0,0.0,0.0,0.0,0.0,0.0,0.0,0.0,0.0,0.0,0.0,0.0,0.0,0.0,0.0,0.0,0.0,0.0,0.0,0.0,0.0,0.0,0.0,-2.2631,-2.3416,-2.3431,-2.305,-2.2094,-2.1033,-2.0167,0.0,0.0,0.0,0.0,0.0,0.0,0.0,0.0,0.0,0.0,0.0,0.0,0.0,0.0,0.0,0.0,0.0,0.0,0.0,0.0,0.0,0.0,0.0,0.0,0.0,0.0,0.0,0.0,0.0,0.0,0.0,0.0,0.0,0.0,0.0,0.0,0.0,0.0,0.0,0.0,0.0,0.0,0.0,0.0,0.0,0.0,0.0,0.0,0.0,0.0,0.0,0.0,0.0,0.0,0.0,0.0,0.0,0.0,0.0,0.0,0.0,0.0,0.0,0.0,0.0,0.0,0.0,0.0,0.0,0.0,0.0,0.0,0.0,0.0,0.0,0.0,0.0,0.0,0.0,0.0,0.0,0.0,0.0,0.0,0.0,0.0,0.0,0.0,0.0,0.0,0.0,0.0,0.0,0.0,0.0,0.0,0.0,0.0,0.0,0.0,0.0,0.0,0.0,0.0,0.0,0.0,0.0,0.0,-2.2707,-2.3937,-2.3982,-2.3694,-2.3046,-2.1857,-2.0855,0.0,0.0,0.0,0.0,0.0,0.0,0.0,0.0,0.0,0.0,0.0,0.0,0.0,0.0,0.0,0.0,0.0,0.0,0.0,0.0,0.0,0.0,0.0,0.0,0.0,0.0,0.0,0.0,0.0,0.0,0.0,0.0,0.0,0.0,0.0,0.0,0.0,0.0,0.0,0.0,0.0,0.0,0.0,0.0,0.0,0.0,0.0,0.0,0.0,0.0,0.0,0.0,0.0,0.0,0.0,0.0,0.0,0.0,0.0,0.0,0.0,0.0,0.0,0.0,0.0,0.0,0.0,0.0,0.0,0.0,0.0,0.0,0.0,0.0,0.0,0.0,0.0,0.0,0.0,0.0,0.0,0.0,0.0,0.0,0.0,0.0,0.0,0.0,0.0,0.0,0.0,0.0,0.0,0.0,0.0,0.0,0.0,0.0,0.0,0.0,0.0,0.0,0.0,0.0,0.0,0.0,0.0,0.0,-2.3065,-2.3666,-2.3782,-2.3721,-2.3501,-2.2802,-2.1877,0.0,0.0,0.0,0.0,0.0,0.0,0.0,0.0,0.0,0.0,0.0,0.0,0.0,0.0,0.0,0.0,0.0,0.0,0.0,0.0,0.0,0.0,0.0,0.0,0.0,0.0,0.0,0.0,0.0,0.0,0.0,0.0,0.0,0.0,0.0,0.0,0.0,0.0,0.0,0.0,0.0,0.0,0.0,0.0,0.0,0.0,0.0,0.0,-1.1332,0.0,0.0,0.0,0.0,0.0,0.0,0.0,0.0,0.0,0.0,0.0,0.0,0.0,0.0,0.0,0.0,0.0,0.0,0.0,0.0,0.0,0.0,0.0,0.0,0.0,0.0,0.0,0.0,0.0,0.0,0.0,0.0,0.0,0.0,0.0,0.0,0.0,0.0,0.0,0.0,0.0,0.0,0.0,0.0,0.0,0.0,0.0,0.0,0.0,0.0,0.0,0.0,0.0,0.0,0.0,0.0,0.0,0.0,0.0,-2.3092,-2.3565,-2.3653,-2.3653,-2.3595,-2.3308,-2.257,0.0,0.0,0.0,0.0,0.0,0.0,0.0,0.0,0.0,0.0,0.0,0.0,0.0,0.0,0.0,0.0,0.0,0.0,0.0,0.0,0.0,0.0,0.0,0.0,0.0,0.0,0.0,0.0,0.0,0.0,0.0,0.0,0.0,0.0,0.0,0.0,0.0,0.0,0.0,0.0,0.0,0.0,0.0,0.0,0.0,0.0,0.0,0.0,0.0,0.0,0.0,0.0,0.0,0.0,0.0,0.0,0.0,0.0,0.0,0.0,0.0,0.0,0.0,0.0,0.0,0.0,0.0,0.0,0.0,0.0,0.0,0.0,0.0,0.0,0.0,0.0,0.0,0.0,0.0,0.0,0.0,0.0,0.0,0.0,0.0,0.0,0.0,0.0,0.0,0.0,0.0,0.0,0.0,0.0,0.0,0.0,0.0,0.0,0.0,0.0,0.0,0.0,0.0,0.0,0.0,0.0,0.0,-2.2469,-2.3071,-2.3565,-2.3595,-2.3595,-2.3595,-2.3595,-2.2996,-2.171,0.0,0.0,0.0,0.0,0.0,0.0,0.0,0.0,0.0,0.0,0.0,0.0,0.0,0.0,0.0,0.0,0.0,0.0,0.0,0.0,0.0,0.0,0.0,0.0,0.0,0.0,0.0,0.0,0.0,0.0,0.0,0.0,0.0,0.0,0.0,0.0,0.0,0.0,-1.0594,-1.0923,0.0,0.0,0.0,0.0,0.0,0.0,0.0,0.0,-1.1851,0.0,0.0,0.0,0.0,0.0,0.0,0.0,0.0,0.0,0.0,0.0,0.0,0.0,0.0,0.0,0.0,0.0,0.0,0.0,0.0,0.0,0.0,0.0,0.0,0.0,0.0,0.0,0.0,0.0,0.0,0.0,0.0,0.0,0.0,0.0,0.0,0.0,0.0,0.0,0.0,0.0,0.0,0.0,0.0,0.0,0.0,0.0,0.0,0.0,0.0,0.0,0.0,0.0,0.0,0.0,0.0,-2.1719,-2.2847,-2.3505,-2.3595,-2.3595,-2.3595,-2.3595,-2.3595,-2.2996,-2.1724,0.0,0.0,0.0,0.0,0.0,0.0,0.0,0.0,0.0,0.0,0.0,0.0,0.0,0.0,0.0,0.0,0.0,0.0,0.0,0.0,0.0,0.0,0.0,0.0,0.0,0.0,0.0,0.0,0.0,0.0,0.0,0.0,0.0,0.0,0.0,0.0,0.0,0.0,0.0,-1.1504,-1.1986,0.0,0.0,0.0,0.0,0.0,0.0,0.0,0.0,-1.2783,0.0,0.0,0.0,0.0,0.0,0.0,0.0,0.0,0.0,0.0,0.0,0.0,0.0,0.0,0.0,0.0,0.0,0.0,0.0,0.0,0.0,0.0,0.0,0.0,0.0,0.0,0.0,0.0,0.0,0.0,0.0,0.0,0.0,0.0,0.0,0.0,0.0,0.0,0.0,0.0,0.0,0.0,0.0,0.0,0.0,0.0,0.0,0.0,0.0,0.0,0.0,0.0,0.0,0.0,0.0,-2.168,-2.2966,-2.3595,-2.3595,-2.3595,-2.3595,-2.3595,-2.3595,-2.2996,0.0,0.0,0.0,0.0,0.0,0.0,0.0,0.0,0.0,0.0,0.0,0.0,0.0,0.0,0.0,0.0,0.0,0.0,0.0,0.0,0.0,0.0,0.0,0.0,0.0,0.0,0.0,0.0,0.0,0.0,0.0,0.0,0.0,0.0,0.0,0.0,0.0,0.0,0.0,0.0,-1.2295,-1.2715,-1.3105,0.0,0.0,0.0,0.0,0.0,0.0,-1.3662,-1.3603,0.0,0.0,0.0,0.0,0.0,0.0,0.0,0.0,0.0,0.0,0.0,0.0,0.0,0.0,0.0,0.0,0.0,0.0,0.0,0.0,0.0,0.0,0.0,0.0,0.0,0.0,0.0,0.0,0.0,0.0,0.0,0.0,0.0,0.0,0.0,0.0,0.0,0.0,0.0,0.0,0.0,0.0,0.0,0.0,0.0,0.0,0.0,0.0,0.0,0.0,0.0,0.0,0.0,0.0,0.0,-2.168,-2.2951,-2.3595,-2.3595,-2.3595,-2.3595,-2.3595,-2.3475,-2.2877,0.0,0.0,0.0,0.0,0.0,0.0,0.0,0.0,0.0,0.0,0.0,0.0,0.0,0.0,0.0,0.0,0.0,0.0,0.0,0.0,0.0,0.0,0.0,0.0,0.0,0.0,0.0,0.0,0.0,0.0,0.0,0.0,0.0,0.0,0.0,0.0,0.0,0.0,0.0,0.0,0.0,-1.3281,-1.397,-1.4087,0.0,0.0,0.0,0.0,-1.4204,-1.4189,0.0,0.0,0.0,0.0,0.0,0.0,0.0,0.0,0.0,0.0,0.0,0.0,0.0,0.0,0.0,0.0,0.0,0.0,0.0,0.0,0.0,0.0,0.0,0.0,0.0,0.0,0.0,0.0,0.0,0.0,0.0,0.0,0.0,0.0,0.0,0.0,0.0,0.0,0.0,0.0,0.0,0.0,0.0,0.0,0.0,0.0,0.0,0.0,0.0,0.0,0.0,0.0,0.0,0.0,0.0,0.0,-2.171,-2.2966,-2.3595,-2.3595,-2.3595,-2.3595,-2.3595,-2.3071,-2.2443,0.0,0.0,0.0,0.0,0.0,0.0,0.0,0.0,0.0,0.0,0.0,0.0,0.0,0.0,0.0,0.0,0.0,0.0,0.0,0.0,0.0,0.0,0.0,0.0,0.0,0.0,0.0,0.0,0.0,0.0,0.0,0.0,0.0,0.0,0.0,0.0,0.0,0.0,0.0,0.0,0.0,-1.3603,-1.4019,-1.4087,-1.4087,0.0,0.0,-1.4277,-1.4648,-1.4385,0.0,0.0,0.0,0.0,0.0,0.0,0.0,0.0,0.0,0.0,0.0,0.0,0.0,0.0,0.0,0.0,0.0,0.0,0.0,0.0,0.0,0.0,0.0,0.0,0.0,0.0,0.0,0.0,0.0,0.0,0.0,0.0,0.0,0.0,0.0,0.0,0.0,0.0,0.0,0.0,0.0,0.0,0.0,0.0,0.0,0.0,0.0,0.0,0.0,0.0,0.0,0.0,0.0,0.0,0.0,-2.1036,-2.171,-2.2951,-2.3595,-2.3595,-2.3595,-2.3595,-2.3595,-2.3011,-2.2368,0.0,0.0,0.0,0.0,0.0,0.0,0.0,0.0,0.0,0.0,0.0,0.0,0.0,0.0,0.0,0.0,0.0,0.0,0.0,0.0,0.0,0.0,0.0,0.0,0.0,0.0,0.0,0.0,0.0,0.0,0.0,0.0,0.0,0.0,0.0,0.0,0.0,0.0,0.0,0.0,0.0,0.0,-1.5127,-1.5234,0.0,0.0,0.0,-1.5674,-1.5859,0.0,0.0,0.0,0.0,0.0,0.0,0.0,0.0,0.0,0.0,0.0,0.0,0.0,0.0,0.0,0.0,0.0,0.0,0.0,0.0,0.0,0.0,0.0,0.0,0.0,0.0,0.0,0.0,0.0,0.0,0.0,0.0,0.0,0.0,0.0,0.0,0.0,0.0,0.0,0.0,0.0,0.0,0.0,0.0,0.0,0.0,0.0,0.0,0.0,0.0,0.0,0.0,0.0,0.0,0.0,0.0,0.0,-2.171,-2.2951,-2.3595,-2.3595,-2.3595,-2.3595,-2.358,-2.2847,0.0,0.0,0.0,0.0,0.0,0.0,0.0,0.0,0.0,0.0,0.0,0.0,0.0,0.0,0.0,0.0,0.0,0.0,0.0,0.0,0.0,0.0,0.0,0.0,0.0,0.0,0.0,-0.9818,0.0,0.0,0.0,0.0,0.0,0.0,0.0,0.0,0.0,0.0,0.0,0.0,0.0,0.0,-1.5311,-1.6174,-1.623,-1.6348,0.0,0.0,-1.6665,-1.6665,-1.6445,-1.623,0.0,0.0,0.0,0.0,0.0,0.0,0.0,0.0,0.0,0.0,0.0,0.0,0.0,0.0,0.0,0.0,0.0,0.0,0.0,0.0,0.0,0.0,0.0,0.0,0.0,0.0,0.0,0.0,0.0,0.0,0.0,0.0,0.0,0.0,0.0,0.0,0.0,0.0,0.0,0.0,0.0,0.0,0.0,0.0,0.0,0.0,0.0,0.0,0.0,0.0,0.0,0.0,0.0,0.0,0.0,-2.1739,-2.2951,-2.3595,-2.3595,-2.3595,-2.3595,-2.358,-2.2398,-2.1754,0.0,0.0,0.0,0.0,0.0,0.0,0.0,0.0,0.0,0.0,0.0,0.0,0.0,0.0,0.0,0.0,0.0,0.0,0.0,0.0,0.0,0.0,0.0,0.0,0.0,0.0,0.0,0.0,0.0,0.0,0.0,0.0,0.0,0.0,0.0,0.0,0.0,0.0,0.0,0.0,0.0,-1.5891,-1.6562,-1.6689,-1.6636,0.0,0.0,-1.6665,-1.6728,-1.6646,-1.6689,-1.6689,0.0,0.0,0.0,0.0,0.0,0.0,0.0,0.0,0.0,0.0,0.0,0.0,0.0,0.0,0.0,0.0,0.0,0.0,0.0,0.0,0.0,0.0,0.0,0.0,0.0,0.0,0.0,0.0,0.0,0.0,0.0,0.0,0.0,0.0,0.0,0.0,0.0,0.0,0.0,0.0,0.0,0.0,0.0,0.0,0.0,0.0,0.0,0.0,0.0,0.0,0.0,0.0,0.0,-2.1695,-2.171,-2.2936,-2.3595,-2.3595,-2.3595,-2.3595,-2.3595,-2.2757,-2.2113,0.0,0.0,0.0,0.0,0.0,0.0,0.0,0.0,0.0,0.0,0.0,0.0,0.0,0.0,0.0,0.0,0.0,0.0,0.0,0.0,0.0,0.0,0.0,0.0,0.0,0.0,0.0,0.0,-1.2121,-1.2535,-1.3006,0.0,0.0,0.0,0.0,0.0,0.0,0.0,0.0,0.0,0.0,-1.6325,-1.7012,-1.7129,0.0,0.0,-1.7519,-1.7519,-1.7519,-1.7305,-1.7139,-1.7129,-1.6768,0.0,0.0,0.0,0.0,0.0,0.0,0.0,0.0,0.0,0.0,0.0,0.0,0.0,0.0,0.0,0.0,0.0,0.0,0.0,0.0,0.0,0.0,0.0,0.0,0.0,0.0,0.0,0.0,0.0,0.0,0.0,0.0,0.0,0.0,0.0,0.0,0.0,0.0,0.0,0.0,0.0,0.0,0.0,0.0,0.0,0.0,0.0,0.0,0.0,0.0,0.0,0.0,-2.1799,-2.1994,-2.3041,-2.3595,-2.3595,-2.3595,-2.3595,-2.358,-2.2996,-2.2368,0.0,0.0,0.0,0.0,0.0,0.0,0.0,0.0,0.0,0.0,0.0,0.0,0.0,0.0,0.0,0.0,0.0,0.0,0.0,0.0,0.0,0.0,0.0,0.0,0.0,0.0,0.0,0.0,-1.2672,-1.3057,-1.3631,0.0,0.0,0.0,0.0,0.0,0.0,0.0,0.0,0.0,0.0,-1.7169,-1.778,-1.7852,-1.7969,-1.835,-1.8309,-1.83,-1.8389,-1.8144,-1.791,-1.7783,0.0,0.0,0.0,0.0,0.0,0.0,0.0,0.0,0.0,0.0,0.0,0.0,0.0,0.0,0.0,0.0,0.0,0.0,0.0,0.0,0.0,0.0,0.0,0.0,0.0,0.0,0.0,0.0,0.0,0.0,0.0,0.0,0.0,0.0,0.0,0.0,0.0,0.0,0.0,0.0,0.0,0.0,0.0,0.0,0.0,0.0,0.0,0.0,0.0,0.0,0.0,0.0,0.0,-2.2024,-2.2679,-2.3281,-2.361,-2.361,-2.3595,-2.3625,-2.3595,-2.3011,-2.2368,-2.1695,0.0,0.0,0.0,0.0,0.0,0.0,0.0,0.0,0.0,0.0,0.0,0.0,0.0,0.0,0.0,0.0,0.0,0.0,0.0,0.0,0.0,0.0,0.0,0.0,0.0,0.0,-1.2391,-1.3278,-1.384,0.0,0.0,0.0,0.0,0.0,0.0,0.0,0.0,0.0,0.0,-1.7813,-1.8524,-1.8805,-1.8844,-1.8914,-1.9219,-1.9044,-1.8952,-1.9219,-1.9228,-1.9102,0.0,0.0,0.0,0.0,0.0,0.0,0.0,0.0,0.0,0.0,0.0,0.0,0.0,0.0,0.0,0.0,0.0,0.0,0.0,0.0,0.0,0.0,0.0,0.0,0.0,0.0,0.0,-2.4222,-2.3714,0.0,0.0,0.0,0.0,0.0,0.0,0.0,0.0,0.0,0.0,0.0,-2.5333,-2.5247,0.0,0.0,0.0,0.0,0.0,0.0,0.0,0.0,0.0,0.0,0.0,0.0,-2.2458,-2.2712,-2.3744,-2.4283,-2.4283,-2.4283,-2.4283,-2.4224,-2.364,-2.2592,-2.1096,0.0,0.0,0.0,0.0,0.0,0.0,0.0,0.0,0.0,0.0,0.0,0.0,0.0,0.0,0.0,0.0,0.0,0.0,0.0,0.0,0.0,0.0,0.0,0.0,0.0,-1.2504,0.0,0.0,0.0,0.0,0.0,0.0,0.0,0.0,0.0,0.0,0.0,-1.7281,-1.8089,-1.839,-1.8674,-1.9108,-1.917,-1.9185,0.0,0.0,0.0,0.0,0.0,0.0,0.0,0.0,0.0,0.0,0.0,0.0,0.0,0.0,-1.6166,-1.4835,-1.4197,-1.3701,-1.3208,0.0,0.0,0.0,0.0,0.0,0.0,0.0,0.0,0.0,0.0,0.0,0.0,0.0,0.0,0.0,0.0,-2.527,0.0,0.0,0.0,0.0,0.0,0.0,0.0,0.0,-2.5883,-2.6012,-2.652,-2.6443,-2.5986,0.0,-2.5348,-2.4402,0.0,0.0,0.0,0.0,0.0,0.0,0.0,0.0,-2.3116,-2.3385,-2.4418,-2.4925,-2.4971,-2.4925,-2.4821,-2.4582,-2.3744,-2.2592,-2.1096,-1.9765,-1.8358,0.0,0.0,0.0,0.0,0.0,0.0,0.0,0.0,0.0,0.0,0.0,0.0,0.0,0.0,0.0,0.0,0.0,0.0,0.0,0.0,0.0,0.0,0.0,-1.3367,0.0,0.0,0.0,0.0,0.0,0.0,0.0,0.0,0.0,-1.7965,-1.7961,-1.8315,-1.8986,-1.9148,-1.9303,-1.9653,0.0,0.0,0.0,0.0,0.0,0.0,0.0,-1.9912,-1.9756,-1.9609,-1.9463,-1.9316,-1.9214,-1.8981,-1.8629,0.0,0.0,-1.6236,-1.5579,-1.5111,-1.4571,-1.4183,-1.3778,-1.3171,-1.2906,-1.2692,0.0,0.0,0.0,0.0,0.0,0.0,0.0,0.0,-2.9096,-2.9079,0.0,-2.823,0.0,0.0,0.0,0.0,0.0,0.0,0.0,0.0,-2.6796,-2.6658,-2.7269,-2.7076,-2.657,-2.595,-2.6456,-2.6333,-2.5555,-2.3744,0.0,0.0,0.0,0.0,0.0,0.0,-2.3984,-2.4597,-2.53,-2.5644,-2.5644,-2.5644,-2.5315,-2.4582,-2.337,-2.2368,-2.1695,-2.0423,-1.9405,-1.8702,-1.6908,0.0,0.0,0.0,0.0,0.0,0.0,0.0,0.0,0.0,0.0,0.0,0.0,0.0,0.0,0.0,0.0,0.0,0.0,0.0,0.0,-1.3493,0.0,0.0,0.0,0.0,0.0,0.0,0.0,0.0,0.0,0.0,-1.8527,-1.936,-1.9976,-1.969,0.0,0.0,0.0,0.0,-2.0752,-2.1182,-2.136,-2.1507,-2.1797,-2.1504,-2.1094,-2.0674,0.0,0.0,-1.9434,-1.9346,-1.9355,-1.9326,-1.8969,-1.8401,-1.7226,-1.6632,-1.6167,-1.561,-1.5348,-1.4926,-1.4223,-1.4059,-1.3967,-3.3172,0.0,0.0,0.0,0.0,-3.1123,-3.1038,-3.0598,-3.1123,-3.1055,-3.0548,-3.0251,0.0,0.0,0.0,0.0,0.0,0.0,-2.9245,-2.9654,-2.9285,-2.9098,-2.9194,-2.9003,-2.8793,-2.8524,-2.8674,-2.8128,-2.7021,-2.6501,-2.56,-2.4507,0.0,0.0,0.0,0.0,-2.5136,-2.536,-2.5989,-2.6318,-2.6318,-2.6303,-2.5779,-2.4612,-2.3355,-2.2409,-2.171,-2.0872,-1.9884,-1.8747,-1.7715,0.0,0.0,0.0,0.0,0.0,0.0,0.0,0.0,0.0,0.0,0.0,0.0,0.0,0.0,0.0,0.0,0.0,0.0,0.0,-1.4074,-1.4802,-1.5442,0.0,0.0,0.0,0.0,0.0,0.0,0.0,0.0,0.0,-2.1237,-2.091,-2.0826,0.0,0.0,-2.0971,-2.0977,-2.1311,-2.1553,-2.168,0.0,0.0,0.0,-2.1787,-2.166,-2.1533,-2.1152,-2.081,-2.0693,-2.041,-2.0195,-2.0052,-1.9736,-1.942,-1.8889,-1.7922,-1.6998,-1.6444,-1.5996,-1.5539,-1.4935,-1.4624,-1.4287,-3.5946,-3.4404,-3.322,-3.2476,-3.2121,-3.2527,-3.2476,-3.2104,-3.2544,-3.2459,-3.207,-3.1948,-3.1849,-3.1767,-3.1345,0.0,0.0,0.0,-3.0316,-3.0603,-3.0256,-3.0046,-2.9993,-2.9795,-2.9702,-2.9579,-2.9594,-2.916,-2.8419,-2.8368,-2.7979,-2.7141,0.0,0.0,-2.5615,-2.5869,-2.5989,-2.6019,-2.6647,-2.6991,-2.6976,-2.6467,-2.5824,-2.5031,-2.3744,-2.2742,-2.2113,-2.144,-2.0602,-1.954,-1.8612,-1.7593,0.0,0.0,0.0,0.0,0.0,0.0,0.0,0.0,0.0,0.0,0.0,-1.2122,-1.2436,0.0,0.0,0.0,-1.3684,-1.4576,-1.5454,-1.622,0.0,0.0,0.0,0.0,0.0,0.0,0.0,-2.2468,-2.2972,-2.3296,-2.3245,-2.2903,-2.2473,-2.2008,-2.1787,-2.1706,-2.1749,0.0,-2.2026,-2.2109,-2.2139,-2.2197,-2.2353,-2.2236,-2.208,-2.1914,-2.168,-2.1494,-2.1484,-2.126,-2.1103,-2.0934,-2.0684,-2.0353,-2.0282,-1.9314,-1.8241,-1.7493,-1.6888,-1.6339,-1.5866,-1.5389,-1.4983,-3.8159,-3.7669,-3.4928,-3.3778,-3.3761,-3.3778,-3.3778,-3.3761,-3.3778,-3.3761,-3.3761,-3.3633,-3.3496,-3.3342,-3.259,0.0,0.0,-3.1244,-3.1052,-3.0928,-3.0525,-3.0296,-3.0236,-2.9982,-2.9789,-2.9744,-2.9744,-2.9699,-2.9654,-2.9639,-2.9624,-2.952,-2.7141,-2.5899,-2.5884,-2.6452,-2.6722,-2.6677,-2.726,-2.756,-2.7595,-2.6333,-2.5659,-2.56,-2.4358,-2.3355,-2.2697,-2.2039,-2.1395,-2.0707,-1.9435,-1.8384,-1.7706,0.0,0.0,0.0,0.0,0.0,0.0,0.0,0.0,0.0,0.0,0.0,0.0,0.0,0.0,0.0,-1.548,0.0,-1.666,-1.7689,0.0,0.0,0.0,-2.0865,-2.0907,-2.2284,-2.3215,-2.3265,0.0,0.0,0.0,0.0,-2.4401,-2.3144,-2.2791,-2.259,-2.2605,-2.2459,-2.2369,-2.2595,-2.2559,-2.2695,-2.2988,-2.2783,-2.2451,-2.2129,-2.1963,-2.1934,-2.1934,-2.1865,-2.1865,-2.1836,-2.1515,-2.1163,-2.1172,-2.0597,-1.9892,-1.8734,-1.7963,-1.7392,-1.6892,-1.6412,-1.599,-3.8635,-3.7855,-3.7144,-3.684,-3.684,-3.684,-3.6823,-3.684,-3.6823,-3.684,-3.6823,-3.6572,-3.5969,-3.4987,-3.4023,-3.374,-3.3894,-3.3379,-3.3458,-3.3814,-3.3318,-3.2771,-3.2285,-3.1925,-3.1569,-3.1091,-3.1076,-3.0806,-3.0313,-3.0283,-3.0043,-2.9564,-2.8936,-2.8382,-2.7904,-2.8053,-2.7859,-2.7335,-2.755,-2.756,-2.7545,-2.6782,-2.6123,-2.5615,-2.4822,-2.3834,-2.2712,-2.2039,-2.1395,-2.0722,-1.9435,-1.8642,-1.8429,-1.7602,0.0,0.0,0.0,0.0,0.0,0.0,0.0,0.0,0.0,-1.4423,-1.4774,0.0,-1.5079,0.0,-1.6396,-1.7375,-1.8329,-1.9032,0.0,0.0,-2.1631,-2.2548,-2.256,-2.3653,-2.4569,-2.4971,-2.5041,-2.5338,-2.5851,-2.5512,-2.51,-2.5026,-2.4325,-2.3628,-2.3329,-2.3233,-2.3226,-2.3219,-2.3065,-2.3027,-2.3105,-2.3066,-2.2939,-2.2852,-2.2578,-2.2363,-2.2363,-2.209,-2.1894,-2.1885,-2.1607,-2.1422,-2.1284,-2.0782,-2.0325,-1.9623,-1.8972,-1.8286,-1.7688,-1.7173,-1.6741,-3.9486,-3.887,-3.8886,-3.887,-3.8836,-3.8193,-3.7922,-3.7922,-3.7922,-3.7922,-3.7841,-3.7648,-3.7003,-3.6053,-3.544,-3.5162,-3.516,-3.4683,-3.4607,-3.4893,-3.4327,-3.3847,-3.3438,-3.3201,-3.2826,-3.2392,-3.2108,-3.1779,-3.1405,-3.112,-3.0791,-3.0462,-3.0447,-3.0118,-2.9475,-2.9175,-2.8712,-2.8038,-2.7724,-2.756,-2.7595,-2.6916,-2.6273,-2.563,-2.4971,-2.4014,-2.2768,-2.2039,-2.1395,-2.0699,-1.9705,-1.9016,-1.8717,-1.8291,-1.7685,0.0,0.0,0.0,0.0,0.0,0.0,0.0,0.0,0.0,0.0,0.0,-1.6584,0.0,-1.7965,0.0,-1.9673,-2.0451,-2.1154,-2.1719,-2.2811,-2.3615,-2.3853,-2.4644,-2.5372,-2.5925,-2.5871,-2.6061,-2.6651,-2.6308,-2.6039,-2.6075,-2.5502,-2.4796,-2.4062,-2.3947,-2.3851,-2.3503,-2.3406,-2.3232,-2.3144,-2.3144,-2.3144,-2.3125,-2.2949,-2.2783,-2.2793,-2.2607,-2.2441,-2.2441,-2.2262,-2.2072,-2.1921,-2.1579,-2.1158,-2.0716,-2.0097,-1.9355,-1.8357,-1.7763,-1.7247,-4.0474,-4.0206,-4.0121,-4.0087,-3.9969,-3.8717,-3.8193,-3.8193,-3.8193,-3.8128,-3.808,-3.7784,-3.7369,-3.6875,-3.662,-3.6303,-3.595,-3.5473,-3.5237,-3.5159,-3.4691,-3.4363,-3.4121,-3.4016,-3.3788,-3.3469,-3.2916,-3.2647,-3.2632,-3.1973,-3.1659,-3.1586,-3.1497,-3.124,-3.0642,-3.0103,-2.9475,-2.8727,-2.8128,-2.7799,-2.7745,-2.7141,-2.6482,-2.5749,-2.5106,-2.4178,-2.2981,-2.2203,-2.1545,-2.0991,-2.0303,-1.9675,-1.9121,-1.9041,-1.8718,0.0,-1.7866,0.0,0.0,0.0,0.0,0.0,0.0,0.0,0.0,-1.824,-1.8643,-1.9196,-1.971,-2.0288,-2.0928,-2.1845,-2.2661,-2.3228,-2.3866,-2.4393,-2.4883,-2.5448,-2.6,-2.6584,-2.6689,-2.6944,-2.7322,-2.7222,-2.7038,-2.6679,-2.6422,-2.5819,-2.4946,-2.4529,-2.4196,-2.359,-2.3493,-2.3319,-2.3144,-2.3144,-2.3144,-2.3144,-2.3125,-2.3144,-2.3115,-2.3105,-2.3115,-2.3028,-2.2911,-2.2843,-2.2794,-2.2422,-2.1989,-2.1676,-2.1123,-2.0214,-1.9092,-1.8321,-1.7818,-4.1223,-4.0933,-4.0341,-4.0087,-4.0054,-3.9783,-3.9665,-3.9665,-3.9681,-3.9564,-3.9328,-3.869,-3.8151,-3.7686,-3.6885,-3.6632,-3.6821,-3.6356,-3.6326,-3.6625,-3.623,-3.563,-3.4805,-3.4589,-3.4179,-3.3499,-3.3365,-3.3305,-3.3305,-3.2647,-3.2332,-3.2317,-3.1794,-3.1407,0.0,0.0,0.0,0.0,-2.9265,-2.8936,-2.8427,-2.8293,-2.7649,-2.6437,-2.5764,0.0,-2.4268,-2.3116,-2.2484,-2.2293,-2.1665,0.0,0.0,0.0,0.0,0.0,0.0,0.0,0.0,0.0,0.0,0.0,-2.0381,-1.9926,-1.8898,-1.9287,-1.9863,-2.0353,-2.0853,-2.1581,-2.256,-2.2836,-2.3328,-2.4381,-2.4983,-2.5335,-2.5473,-2.6352,-2.7017,-2.7118,-2.7247,-2.757,-2.7934,-2.7657,-2.7325,-2.729,-2.6976,-2.6467,-2.5728,-2.4967,-2.4368,-2.3851,-2.3493,-2.3144,-2.3144,-2.3144,-2.3144,-2.3144,-2.3144,-2.3144,-2.3144,-2.3144,-2.3144,-2.3144,-2.3057,-2.2969,-2.2794,-2.253,-2.2176,-2.183,-2.1275,-2.0683,-1.9833,-1.9076,-1.8446,-4.1988,0.0,-4.095,-4.0629,0.0,-4.024,-4.0087,-4.0087,-4.0087,-3.9986,-3.9764,-3.9344,-3.8987,-3.8603,-3.7958,-3.7666,-3.7745,-3.7275,-3.7117,-3.715,-3.6785,-3.6307,-3.5722,-3.552,-3.515,-3.4568,-3.4252,-3.4025,-3.3948,-3.3335,-3.2826,-3.2512,-3.2183,-3.1795,-3.1482,-3.1467,-3.1046,-3.0043,-2.9729,-2.925,-2.8637,-2.8592,-2.7964,-2.6647,0.0,0.0,0.0,0.0,0.0,0.0,0.0,0.0,0.0,0.0,0.0,-2.1615,-2.1469,-2.1495,-2.1649,-2.1571,-2.1645,-2.2035,-2.2101,-2.1645,-2.0625,-2.0758,-2.1154,-2.1933,-2.2204,-2.2761,-2.3828,-2.3966,-2.4293,-2.5109,-2.5699,-2.6113,-2.6452,-2.7168,-2.7783,-2.8072,-2.804,-2.8186,-2.8651,-2.8258,-2.7894,-2.773,-2.7208,-2.6715,-2.6124,-2.5369,-2.4615,-2.3927,-2.3493,-2.3232,-2.3135,-2.3144,-2.3144,-2.3144,-2.3144,-2.3144,-2.3144,-2.3144,-2.3144,-2.3144,-2.3144,-2.3057,-2.2969,-2.2803,-2.2441,-2.2087,-2.1633,-2.1096,-2.0464,-1.9654,-1.902,-4.2754,-4.2422,-4.1711,-4.1305,-4.1153,-4.0544,-4.0206,-4.0087,0.0,0.0,0.0,-3.9729,-3.9573,-3.9325,-3.8969,-3.8711,-3.8391,-3.7992,-3.7685,-3.7417,-3.6997,-3.6723,-3.6476,-3.6352,-3.607,-3.5721,-3.513,-3.4826,-3.4685,-3.3978,-3.3395,-3.2901,-3.2751,-3.2362,-3.1749,-3.1526,-3.1255,-3.0687,-3.0178,-2.9609,-2.8966,-2.8831,-2.8188,-2.6961,-2.6707,-2.5809,-2.4208,-2.4014,-2.346,-2.2458,-2.2263,-2.2263,-2.2368,-2.2278,-2.2278,-2.2383,-2.2191,-2.2287,-2.2774,-2.2826,-2.306,-2.3491,-2.3368,-2.3084,-2.2564,-2.2232,-2.2522,-2.3606,-2.35,-2.3791,-2.4845,-2.4958,-2.5222,-2.5824,-2.6314,-2.6816,-2.7369,-2.7921,-2.8423,-2.8775,-2.8749,-2.8845,-2.9032,-2.8791,-2.8351,-2.7962,-2.7383,-2.6715,-2.6113,-2.5454,-2.47,-2.3927,-2.358,-2.3416,-2.3144,-2.3144,-2.3144,-2.3144,-2.3144,-2.3144,-2.3144,-2.3144,-2.3144,-2.3144,-2.3144,-2.3144,-2.3047,-2.2882,-2.2706,-2.2441,-2.1998,-2.1553,-2.0835,-2.0209,-1.9579,-4.3554,-4.3217,-4.2455,-4.1779,-4.1204,-4.1085,-4.0679,-4.0087,-4.0087,-4.0037,-3.9901,-3.9729,-3.9625,-3.9448,-3.9148,-3.8805,-3.8583,-3.8391,-3.796,0.0,-3.7358,-3.7013,-3.6492,-3.6492,-3.6289,-3.5958,-3.5661,-3.5552,-3.5413,-3.4763,-3.4277,-3.4128,-3.3634,-3.3021,-3.2377,-3.1824,-3.1422,-3.139,-3.13,-3.0926,-3.0253,-2.9714,-2.9101,-2.8323,-2.7186,-2.6482,-2.6183,-2.5615,-2.5255,-2.5046,-2.4522,-2.4477,-2.4986,-2.4492,-2.4477,-2.4955,-2.4815,-2.4705,-2.4779,-2.4433,-2.4269,-2.4357,-2.4436,-2.4283,-2.3864,-2.3515,-2.3739,-2.4747,-2.4671,-2.482,-2.5398,-2.5511,-2.5912,-2.6841,-2.7105,-2.7394,-2.7934,-2.8473,-2.885,-2.8963,-2.911,-2.9217,-2.9094,-2.8882,-2.8578,-2.803,-2.7534,-2.694,-2.5863,-2.5031,-2.4444,-2.3927,-2.3667,-2.3416,-2.3144,-2.3144,-2.3144,-2.3144,-2.3144,-2.3144,-2.3144,-2.3144,-2.3144,-2.3144,-2.3144,-2.3144,-2.3144,-2.2969,-2.2715,-2.2432,-2.2087,-2.1553,-2.1096,-2.0555,-1.9845,-4.432,-4.3944,-4.3217,-4.2709,-4.2354,-4.1542,-4.1018,-4.0646,-4.0257,-4.0087,-3.9986,-3.9884,-3.9729,-3.959,-3.9325,-3.904,-3.8805,-3.856,-3.8221,-3.7902,-3.7578,-3.7222,-3.7013,-3.6723,-3.6476,-3.6304,-3.6085,-3.5894,-3.5657,-3.5307,-3.4943,-3.4457,-3.3814,-3.317,-3.2542,-3.2213,-3.1898,-3.1482,-3.1467,-3.1195,-3.0522,-3.0238,-2.9609,-2.8637,-2.7979,-2.732,-2.6617,-2.6303,-2.5974,-2.563,-2.533,-2.53,-2.5585,-2.533,-2.5285,-2.5585,-2.5411,-2.5464,-2.5722,-2.5922,-2.5898,-2.5647,-2.5846,-2.5926,-2.5805,-2.5101,-2.4959,-2.5537,-2.5509,-2.5618,-2.608,-2.6339,-2.6728,-2.7218,-2.7795,-2.826,-2.8561,-2.9063,-2.939,-2.9415,-2.9526,-2.9521,-2.9275,-2.9118,-2.8816,-2.8283,-2.7696,-2.6798,-2.5884,-2.52,-2.4605,-2.3927,-2.3754,-2.3493,-2.3144,-2.3144,-2.3144,-2.3144,-2.3144,-2.3144,-2.3144,-2.3144,-2.3144,-2.3144,-2.3144,-2.3144,-2.3144,-2.3057,-2.2882,-2.2706,-2.2353,-2.1909,-2.1454,-2.0744,-1.9837,-4.4831,-4.4502,-4.3927,-4.3589,-4.3301,-4.2016,-4.1356,-4.1153,-4.0578,-4.024,-4.0087,-3.9952,-3.9833,-3.9729,-3.9484,-3.9272,-3.9023,-3.8711,-3.8504,-3.8351,-3.7844,-3.7535,-3.7358,-3.6997,-3.6769,-3.6554,-3.6336,-3.6085,-3.5816,-3.5752,-3.5383,-3.4696,-3.4053,-3.3455,-3.2961,-3.2647,-3.2258,-3.1779,-3.1556,-3.127,-3.0746,-3.0582,-3.0028,-2.9131,-2.8742,-2.8113,-2.7111,-2.6901,-2.6572,-2.6078,-2.5914,-2.5899,-2.6033,-2.5914,-2.5884,-2.6019,-2.5905,-2.6041,-2.652,-2.7126,-2.7329,-2.6902,-2.7065,-2.7237,-2.7157,-2.654,-2.6129,-2.6255,-2.6146,-2.6228,-2.6634,-2.6992,-2.7381,-2.7645,-2.8386,-2.8925,-2.9139,-2.9528,-2.9779,-2.9779,-2.9779,-2.9689,-2.9431,-2.9197,-2.8907,-2.8351,-2.7464,-2.6644,-2.6052,-2.5538,-2.4871,-2.4176,-2.3841,-2.3667,-2.3232,-2.3135,-2.3135,-2.3144,-2.3144,-2.3144,-2.3144,-2.3144,-2.3144,-2.3144,-2.3144,-2.3144,-2.3144,-2.3144,-2.2969,-2.2803,-2.253,-2.2167,-2.1544,-2.0744,-1.9837,-4.4831,-4.4626,-4.4468,-4.4045,-4.3369,-4.2557,-4.1847,-4.1271,-4.1119,-4.0696,-4.0155,-3.9952,-3.9901,-3.9849,-3.9606,-3.9395,-3.9272,-3.904,-3.8766,-3.8448,-3.8335,-3.7976,-3.746,-3.7358,-3.7134,-3.6723,-3.6538,-3.6352,-3.6148,-3.5816,-3.5608,-3.5325,-3.4726,-3.4352,-3.4158,-3.3125,-3.2497,-3.2407,-3.1839,-3.1437,-3.1405,-3.0821,-3.0447,-3.0328,-2.9205,-2.8547,-2.8368,-2.7814,-2.7505,-2.74,-2.6811,-2.6767,-2.728,-2.6826,-2.6767,-2.732,-2.7294,-2.7336,-2.7584,-2.788,-2.8011,-2.772,-2.7806,-2.7721,-2.7467,-2.7548,-2.7379,-2.7056,-2.6731,-2.6822,-2.7201,-2.7306,-2.7745,-2.8536,-2.885,-2.9126,-2.9566,-2.9754,-2.9779,-2.9779,-2.9779,-2.9689,-2.9431,-2.9275,-2.8816,-2.8122,-2.7464,-2.6798,-2.629,-2.5622,-2.5115,-2.4529,-2.411,-2.3754,-2.3493,-2.3232,-2.3135,-2.3144,-2.3144,-2.3144,-2.3144,-2.3144,-2.3144,-2.3144,-2.3144,-2.3144,-2.3144,-2.3144,-2.3067,-2.2882,-2.253,-2.2167,-2.1266,-2.0645,-2.0019,-4.4831,-4.457,-4.457,-4.4401,-4.4012,-4.3284,-4.2794,-4.2455,-4.1576,-4.1035,-4.0696,-4.024,-3.9986,-3.9884,-3.9798,-3.9642,-3.9379,-3.9272,-3.904,-3.8766,-3.8504,-3.8262,-3.7976,-3.7535,-3.7298,-3.7134,-3.6769,-3.6523,-3.6352,-3.5879,-3.5688,-3.5574,-3.5254,-3.4891,-3.4472,-3.3933,-3.3305,-3.2527,-3.2243,-3.1928,-3.1554,-3.1255,-3.0911,-3.0492,-2.9998,-2.9535,-2.916,-2.8532,-2.8173,-2.8143,-2.758,-2.729,-2.761,-2.7694,-2.7889,-2.8188,-2.8337,-2.8434,-2.8521,-2.8741,-2.8768,-2.8488,-2.8614,-2.8559,-2.8184,-2.8305,-2.8249,-2.791,-2.7541,-2.7507,-2.7767,-2.8059,-2.8448,-2.8888,-2.9227,-2.9528,-2.9741,-2.9779,-2.9779,-2.9779,-2.9779,-2.9792,-2.9611,-2.93,-2.8816,-2.8042,-2.7464,-2.7044,-2.655,-2.5884,-2.5285,-2.4946,-2.4262,-2.3754,-2.3503,-2.3319,-2.3135,-2.3144,-2.3144,-2.3144,-2.3144,-2.3144,-2.3144,-2.3144,-2.3144,-2.3144,-2.3144,-2.3144,-2.3057,-2.2882,-2.2618,-2.2167,-2.1544,-2.0916,-2.0374,-4.4869,-4.4682,-4.4643,-4.457,-4.4519,-4.3978,-4.3606,-4.3284,-4.2049,-4.139,-4.1119,-4.0409,-4.0037,-3.9935,-3.9901,-3.9798,-3.9606,-3.9448,-3.9272,-3.904,-3.8711,-3.8504,-3.8335,-3.7918,-3.761,-3.7358,-3.7058,-3.6785,-3.6492,-3.6148,-3.5894,-3.5767,-3.5589,-3.5299,-3.4835,-3.464,-3.4008,-3.311,-3.2736,-3.2273,-3.1854,-3.1571,-3.1243,-3.0821,-3.0597,-3.0283,-2.9849,-2.922,-2.8876,-2.8861,-2.8382,-2.818,-2.8143,-2.8592,-2.8861,-2.8921,-2.9243,-2.9433,-2.9392,-2.958,-2.959,-2.9288,-2.9274,-2.9218,-2.8988,-2.8919,-2.8887,-2.8856,-2.8492,-2.8354,-2.8419,-2.8699,-2.8963,-2.9151,-2.9566,-2.9779,-2.9779,-2.9779,-2.9779,-2.9779,-2.9779,-2.9714,-2.9636,-2.93,-2.8816,-2.8042,-2.7708,-2.7278,-2.6633,-2.5957,-2.5454,-2.52,-2.4433,-2.3841,-2.358,-2.3319,-2.3144,-2.3144,-2.3144,-2.3144,-2.3144,-2.3144,-2.3144,-2.3144,-2.3144,-2.3144,-2.3144,-2.3144,-2.3057,-2.2969,-2.2706,-2.2264,-2.1731,-2.1186,-2.0645,-4.494,-4.4776,-4.4626,-4.457,-4.4553,-4.4502,-4.4096,-4.3453,-4.2591,-4.1863,-4.1221,-4.046,-4.0087,-4.007,-3.9952,-3.9884,-3.9849,-3.9606,-3.9448,-3.9255,-3.9023,-3.8766,-3.8391,-3.8335,-3.8033,-3.7535,-3.7358,-3.7074,-3.6554,-3.6492,-3.6289,-3.6037,-3.5767,-3.5672,-3.5522,-3.4928,-3.4457,-3.4158,-3.32,-3.2512,-3.2392,-3.1854,-3.1497,-3.139,-3.0851,-3.0522,-3.0402,-2.9864,-2.9535,-2.9535,-2.9445,-2.943,-2.946,-2.9505,-2.9535,-2.9624,-2.9982,-3.0155,-3.0129,-3.0324,-3.0375,-3.004,-2.958,-2.942,-2.9542,-2.9228,-2.93,-2.9948,-2.9563,-2.9346,-2.9162,-2.9051,-2.9214,-2.9616,-2.9741,-2.9779,-2.9779,-2.9779,-2.9779,-2.9779,-2.9779,-2.9636,-2.9221,-2.9143,-2.8749,-2.8122,-2.7696,-2.7278,-2.6633,-2.5957,-2.5527,-2.5115,-2.4433,-2.3754,-2.3744,-2.3406,-2.3144,-2.3144,-2.3144,-2.3144,-2.3144,-2.3144,-2.3144,-2.3144,-2.3144,-2.3144,-2.3144,-2.3057,-2.3057,-2.2882,-2.2706,-2.2264,-2.1998,-2.1356,-2.0817,-4.4886,-4.4682,-4.4643,-4.457,-4.457,-4.457,-4.4418,-4.4113,-4.3335,-4.2591,-4.1847,-4.1119,-4.0544,-4.0087,-4.0037,-3.9986,-3.9901,-3.9798,-3.9642,-3.9432,-3.9272,-3.904,-3.8766,-3.8504,-3.8294,-3.8033,-3.7743,-3.7389,-3.6952,-3.6662,-3.6429,-3.6289,-3.5894,-3.5688,-3.5657,-3.5299,-3.4936,-3.4457,-3.3978,-3.338,-3.2602,-3.2273,-3.1915,-3.1482,-3.1243,-3.115,-3.1165,-3.0522,-3.0178,-3.0178,-2.9804,-2.9594,-2.9624,-2.9968,-3.0387,-3.0791,-3.0932,-3.0893,-3.0748,-3.0763,-3.0522,-3.0111,-2.9822,-2.9729,-2.9849,-2.9754,-2.9837,-3.0256,-3.0255,-3.0035,-2.9897,-2.9694,-2.9553,-2.9729,-2.9779,-2.9779,-2.9779,-2.9779,-2.9779,-2.9779,-2.9779,-2.9624,-2.93,-2.9143,-2.8749,-2.8042,-2.78,-2.7383,-2.6715,-2.6052,-2.5633,-2.52,-2.4433,-2.3841,-2.3841,-2.3406,-2.3144,-2.3144,-2.3144,-2.3144,-2.3144,-2.3144,-2.3144,-2.3144,-2.3144,-2.3144,-2.3144,-2.3057,-2.3057,-2.2969,-2.2794,-2.253,-2.2255,-2.1633,-2.1186,-4.4831,-4.4626,-4.457,-4.457,-4.457,-4.457,-4.457,-4.4485,-4.3758,-4.2997,-4.2252,-4.1525,-4.0781,-4.0155,-4.0087,-4.0037,-3.9952,-3.9884,-3.9798,-3.959,-3.9432,-3.9272,-3.9094,-3.8766,-3.856,-3.8391,-3.8033,-3.761,-3.7254,-3.6952,-3.6723,-3.6538,-3.6148,-3.5879,-3.5767,-3.5668,-3.5284,-3.491,-3.4592,-3.4008,-3.32,-3.2721,-3.2317,-3.1825,-3.1601,-3.1467,-3.1467,-3.1076,-3.0836,-3.0791,-3.0432,-3.0208,-3.0253,-3.0597,-3.1046,-3.1407,-3.1394,-3.1292,-3.1132,-3.0955,-3.0642,-3.0201,-3.0111,-3.015,-3.0311,-3.031,-3.0556,-3.0831,-3.0624,-3.0368,-3.0292,-2.9998,-2.9792,-2.9779,-2.9779,-2.9779,-2.9779,-2.9779,-2.9779,-2.9779,-2.9779,-2.9611,-2.9287,-2.9131,-2.8736,-2.8191,-2.8042,-2.7557,-2.6809,-2.6229,-2.5728,-2.52,-2.4423,-2.3927,-2.3754,-2.3406,-2.3144,-2.3144,-2.3144,-2.3144,-2.3144,-2.3144,-2.3144,-2.3144,-2.3144,-2.3144,-2.3144,-2.3144,-2.3047,-2.3047,-2.2872,-2.2618,-2.2353,-2.1998,-2.1472,-4.4831,-4.4626,-4.457,-4.457,-4.457,-4.457,-4.457,-4.4451,-4.3809,-4.3081,-4.2269,-4.1559,-4.0865,-4.0189,-4.0087,-4.0087,-4.0087,-3.9986,-3.9901,-3.9849,-3.9642,-3.9448,-3.9325,-3.9094,-3.8805,-3.8583,-3.823,-3.7886,-3.7476,-3.7358,-3.7118,-3.6769,-3.6538,-3.6289,-3.5973,-3.5767,-3.5638,-3.5359,-3.4861,-3.4472,-3.4307,-3.3275,-3.2647,-3.2467,-3.1943,-3.1556,-3.1526,-3.1452,-3.1435,-3.1392,-3.1435,-3.1437,-3.1375,-3.1377,-3.1437,-3.1452,-3.1482,-3.1366,-3.1132,-3.1087,-3.0791,-3.0391,-3.0557,-3.0777,-3.092,-3.0922,-3.1052,-3.1296,-3.0859,-3.0368,-3.0368,-3.0011,-2.9779,-2.9779,-2.9779,-2.9779,-2.9779,-2.9779,-2.9779,-2.9779,-2.9779,-2.9689,-2.9431,-2.9197,-2.8895,-2.851,-2.8122,-2.7638,-2.6974,-2.6313,-2.5801,-2.5211,-2.4519,-2.4013,-2.3754,-2.3406,-2.3232,-2.3144,-2.3144,-2.3144,-2.3144,-2.3144,-2.3144,-2.3144,-2.3144,-2.3144,-2.3144,-2.3144,-2.3144,-2.3047,-2.2882,-2.2794,-2.253,-2.2176,-2.183,-4.4831,-4.4626,-4.457,-4.457,-4.457,-4.457,-4.457,-4.4553,-4.4299,-4.3487,-4.2405,-4.2049,-4.1271,-4.029,-4.0087,-4.0087,-4.0087,-4.0037,-3.9986,-3.9901,-3.9798,-3.9694,-3.952,-3.9325,-3.9023,-3.875,-3.8432,-3.8246,-3.8033,-3.761,-3.7238,-3.7013,-3.6677,-3.6352,-3.6163,-3.5879,-3.5703,-3.5623,-3.5344,-3.4966,-3.4517,-3.4083,-3.3649,-3.317,-3.2557,-3.2213,-3.2183,-3.1779,-3.1482,-3.1482,-3.1467,-3.1467,-3.1467,-3.1467,-3.1467,-3.1467,-3.1467,-3.1409,-3.1234,-3.1161,-3.1115,-3.104,-3.1002,-3.1231,-3.1555,-3.1348,-3.1258,-3.1502,-3.0898,-3.0368,-3.0368,-3.0011,-2.9792,-2.9779,-2.9779,-2.9779,-2.9779,-2.9779,-2.9779,-2.9779,-2.9779,-2.9689,-2.9431,-2.9197,-2.8973,-2.8578,-2.8203,-2.7638,-2.6974,-2.6467,-2.5874,-2.5285,-2.4605,-2.41,-2.3754,-2.3493,-2.3319,-2.3144,-2.3144,-2.3144,-2.3144,-2.3144,-2.3144,-2.3144,-2.3144,-2.3144,-2.3144,-2.3144,-2.3144,-2.3144,-2.3057,-2.2882,-2.2706,-2.2441,-2.2097,-4.4831,-4.4626,-4.457,-4.457,-4.457,-4.457,-4.457,-4.457,-4.457,-4.3876,-4.2844,-4.2405,-4.1644,-4.0629,-4.0223,-4.0087,-4.0087,-4.0087,-4.0037,-3.9986,-3.9901,-3.9849,-3.9729,-3.9484,-3.9272,-3.8985,-3.8711,-3.856,-3.8391,-3.7886,-3.7519,-3.7254,-3.6846,-3.6554,-3.6336,-3.6006,-3.5816,-3.5688,-3.5574,-3.5329,-3.4891,-3.4607,-3.4277,-3.3829,-3.3215,-3.2781,-3.2527,-3.2108,-3.1764,-3.1526,-3.1467,-3.1467,-3.1467,-3.1467,-3.1467,-3.1467,-3.1467,-3.1467,-3.1307,-3.1427,-3.1454,-3.1482,-3.1645,-3.1749,-3.2025,-3.1664,-3.1586,-3.1516,-3.0911,-3.0368,-3.0368,-2.9998,-2.9779,-2.9779,-2.9779,-2.9779,-2.9779,-2.9779,-2.9779,-2.9779,-2.9779,-2.9702,-2.9534,-2.9275,-2.9064,-2.8736,-2.8283,-2.7719,-2.7126,-2.6539,-2.5946,-2.5369,-2.4786,-2.4272,-2.3831,-2.358,-2.3416,-2.3232,-2.3144,-2.3144,-2.3144,-2.3144,-2.3144,-2.3144,-2.3144,-2.3144,-2.3144,-2.3144,-2.3144,-2.3144,-2.3057,-2.2969,-2.2794,-2.2706,-2.2353,-4.4831,-4.4643,-4.457,-4.457,-4.457,-4.457,-4.457,-4.457,-4.457,-4.4113,-4.3335,-4.2591,-4.1863,-4.1136,-4.0409,-4.0087,-4.0087,-4.0087,-4.0087,-4.002,-3.9986,-3.9901,-3.9866,-3.9659,-3.9432,-3.9272,-3.9094,-3.8821,-3.8464,-3.8189,-3.7886,-3.7417,-3.715,-3.68,-3.6538,-3.6274,-3.6085,-3.5816,-3.5752,-3.5623,-3.5464,-3.497,-3.4625,-3.4487,-3.3888,-3.332,-3.2886,-3.2662,-3.2228,-3.1586,-3.1467,-3.1467,-3.1467,-3.1467,-3.1467,-3.1467,-3.1467,-3.1526,-3.1471,-3.1693,-3.1968,-3.1922,-3.2378,-3.2738,-3.2305,-3.2118,-3.1842,-3.1596,-3.0836,-3.0368,-3.0292,-3.0011,-2.9779,-2.9779,-2.9779,-2.9779,-2.9779,-2.9779,-2.9779,-2.9779,-2.9779,-2.9779,-2.9702,-2.9378,-2.9131,-2.8895,-2.8351,-2.7788,-2.7278,-2.6693,-2.5946,-2.5443,-2.4946,-2.4433,-2.4003,-2.3754,-2.3503,-2.3232,-2.3144,-2.3144,-2.3144,-2.3144,-2.3144,-2.3144,-2.3144,-2.3144,-2.3144,-2.3144,-2.3144,-2.3144,-2.3057,-2.2969,-2.2882,-2.2784,-2.2618,-4.4886,-4.4737,-4.4626,-4.457,-4.457,-4.457,-4.457,-4.457,-4.457,-4.4147,-4.3369,-4.2625,-4.1897,-4.117,-4.0443,-4.0087,-4.0087,-4.0087,-4.0087,-4.0087,-4.007,-3.9986,-3.9901,-3.9849,-3.9642,-3.9432,-3.9272,-3.9056,-3.8711,-3.8415,-3.8107,-3.7626,-3.7373,-3.7074,-3.6708,-3.6476,-3.6274,-3.607,-3.5958,-3.5831,-3.5608,-3.5473,-3.5319,-3.516,-3.4562,-3.4143,-3.3903,-3.3484,-3.2677,-3.1571,-3.1467,-3.1467,-3.1467,-3.1467,-3.1497,-3.1526,-3.1526,-3.1721,-3.2065,-3.2093,-3.2411,-3.3152,-3.3042,-3.2894,-3.3002,-3.2451,-3.1996,-3.1508,-3.0911,-3.0368,-3.0368,-3.0011,-2.9869,-2.9779,-2.9779,-2.9779,-2.9779,-2.9779,-2.9779,-2.9779,-2.9779,-2.9779,-2.9702,-2.9456,-2.9143,-2.8973,-2.8431,-2.78,-2.736,-2.6869,-2.6207,-2.5611,-2.5115,-2.4519,-2.409,-2.3841,-2.358,-2.3232,-2.3144,-2.3144,-2.3144,-2.3144,-2.3144,-2.3144,-2.3144,-2.3144,-2.3144,-2.3144,-2.3144,-2.3144,-2.3057,-2.3057,-2.296,-2.2872,-2.2706,-4.4923,-4.4776,-4.4626,-4.457,-4.457,-4.457,-4.457,-4.457,-4.4553,-4.4147,-4.3386,-4.2625,-4.1897,-4.117,-4.0426,-4.0087,-4.0087,-4.0087,-4.0087,-4.0087,-4.007,-4.0037,-3.9986,-3.9935,-3.9798,-3.9573,-3.9448,-3.9218,-3.886,-3.86,-3.8335,-3.7992,-3.761,-3.7238,-3.6997,-3.6708,-3.6476,-3.6352,-3.6163,-3.6022,-3.5831,-3.5831,-3.5703,-3.5544,-3.5168,-3.4913,-3.4505,-3.3844,-3.2991,-3.2183,-3.1943,-3.1765,-3.1497,-3.1467,-3.1601,-3.1884,-3.1943,-3.2228,-3.2766,-3.2865,-3.3181,-3.373,-3.3512,-3.3317,-3.3171,-3.2561,-3.1923,-3.1596,-3.0836,-3.0444,-3.0292,-3.0011,-2.9869,-2.9779,-2.9779,-2.9779,-2.9779,-2.9779,-2.9779,-2.9779,-2.9779,-2.9779,-2.9779,-2.9378,-2.9143,-2.8986,-2.8443,-2.795,-2.7534,-2.6962,-2.6385,-2.579,-2.5285,-2.469,-2.4176,-2.3841,-2.358,-2.3232,-2.3144,-2.3144,-2.3144,-2.3144,-2.3144,-2.3144,-2.3144,-2.3144,-2.3144,-2.3144,-2.3144,-2.3144,-2.3144,-2.3057,-2.3047,-2.3047,-2.2794,-4.494,-4.4831,-4.4699,-4.457,-4.457,-4.457,-4.457,-4.457,-4.457,-4.4147,-4.3386,-4.2608,-4.188,-4.1153,-4.0426,-4.0087,-4.0087,-4.0087,-4.0087,-4.0087,-4.0087,-4.0087,-4.0087,-3.9986,-3.9884,-3.9729,-3.959,-3.9309,-3.9023,-3.875,-3.8528,-3.8262,-3.7786,-3.7476,-3.7298,-3.6997,-3.6723,-3.6554,-3.6399,-3.6211,-3.6085,-3.6022,-3.591,-3.5752,-3.5657,-3.5307,-3.473,-3.4098,-3.3484,-3.2781,-3.2662,-3.2362,-3.1869,-3.1779,-3.2033,-3.2482,-3.2647,-3.2901,-3.3468,-3.3739,-3.3962,-3.4068,-3.3989,-3.373,-3.3283,-3.2561,-3.1996,-3.1609,-3.0823,-3.0444,-3.0216,-3.0011,-2.9869,-2.9779,-2.9779,-2.9779,-2.9779,-2.9779,-2.9779,-2.9779,-2.9779,-2.9779,-2.9702,-2.9456,-2.9143,-2.9064,-2.851,-2.803,-2.7615,-2.7044,-2.6467,-2.5801,-2.5285,-2.4861,-2.4348,-2.3841,-2.3493,-2.3222,-2.3135,-2.3144,-2.3144,-2.3144,-2.3144,-2.3144,-2.3144,-2.3144,-2.3144,-2.3144,-2.3144,-2.3144,-2.3144,-2.3144,-2.3057,-2.3047,-2.2969,-4.4978,-4.4923,-4.4682,-4.457,-4.457,-4.457,-4.457,-4.457,-4.457,-4.413,-4.3352,-4.2608,-4.1863,-4.1153,-4.0409,-4.0087,-4.0087,-4.0087,-4.0087,-4.0087,-4.0087,-4.0087,-4.0087,-4.0037,-3.9986,-3.9849,-3.9746,-3.9468,-3.9255,-3.8969,-3.8766,-3.8391,-3.8205,-3.7918,-3.7476,-3.7298,-3.7134,-3.6923,-3.6662,-3.6538,-3.6367,-3.6211,-3.61,-3.5894,-3.5752,-3.5593,-3.5389,-3.516,-3.4741,-3.4128,-3.3589,-3.3245,-3.2991,-3.2946,-3.3066,-3.32,-3.329,-3.3574,-3.4095,-3.414,-3.4198,-3.4574,-3.4148,-3.373,-3.3353,-3.2561,-3.2009,-3.1596,-3.0898,-3.0381,-3.0011,-2.9869,-2.9792,-2.9779,-2.9779,-2.9779,-2.9779,-2.9779,-2.9779,-2.9779,-2.9779,-2.9779,-2.9779,-2.9521,-2.9287,-2.9052,-2.8736,-2.8271,-2.7708,-2.7219,-2.655,-2.5874,-2.5369,-2.4946,-2.4358,-2.3927,-2.3493,-2.3222,-2.3144,-2.3144,-2.3144,-2.3144,-2.3144,-2.3144,-2.3144,-2.3144,-2.3144,-2.3144,-2.3144,-2.3144,-2.3144,-2.3144,-2.3144,-2.3144,-2.3057,-4.5123,-4.4995,-4.4793,-4.4699,-4.4626,-4.457,-4.457,-4.457,-4.457,-4.3927,-4.298,-4.2439,-4.1694,-4.0696,-4.0273,-4.0087,-4.0087,-4.0087,-4.0087,-4.0087,-4.0087,-4.0087,-4.0087,-4.0087,-4.0037,-3.9901,-3.9849,-3.9642,-3.9432,-3.9202,-3.8985,-3.8655,-3.8488,-3.8205,-3.7844,-3.7669,-3.7389,-3.721,-3.7029,-3.6846,-3.6739,-3.6538,-3.6336,-3.6085,-3.5831,-3.5638,-3.5574,-3.5539,-3.5295,-3.4966,-3.4607,-3.4098,-3.3589,-3.3529,-3.3634,-3.3903,-3.3963,-3.4277,-3.4692,-3.4644,-3.4581,-3.481,-3.4278,-3.3799,-3.3283,-3.2632,-3.2069,-3.1582,-3.1061,-3.0533,-3.0011,-2.9869,-2.9779,-2.9779,-2.9779,-2.9779,-2.9779,-2.9779,-2.9779,-2.9779,-2.9779,-2.9779,-2.9702,-2.9599,-2.9365,-2.9131,-2.8749,-2.8351,-2.78,-2.7301,-2.6715,-2.6124,-2.5527,-2.5031,-2.4444,-2.3927,-2.3493,-2.3232,-2.3144,-2.3144,-2.3144,-2.3144,-2.3144,-2.3144,-2.3144,-2.3144,-2.3144,-2.3144,-2.3144,-2.3144,-2.3144,-2.3144,-2.3144,-2.3144,-2.3047,-4.523,-4.5032,-4.4869,-4.4737,-4.4626,-4.4626,-4.457,-4.457,-4.4434,-4.3589,-4.2439,-4.2202,-4.1322,-4.0324,-4.0104,-4.0087,-4.0087,-4.0087,-4.0087,-4.0087,-4.0087,-4.0087,-4.0087,-4.0087,-4.0087,-3.9952,-3.9901,-3.9746,-3.959,-3.9395,-3.9202,-3.8969,-3.8711,-3.8488,-3.8335,-3.8049,-3.7743,-3.7551,-3.7373,-3.721,-3.7044,-3.6846,-3.6646,-3.6274,-3.6022,-3.5752,-3.5703,-3.5589,-3.5524,-3.5489,-3.5489,-3.4876,-3.4173,-3.3829,-3.3993,-3.4607,-3.4637,-3.4876,-3.517,-3.5073,-3.489,-3.4854,-3.4278,-3.373,-3.3283,-3.2704,-3.2155,-3.1643,-3.1136,-3.0609,-3.0164,-2.9934,-2.9779,-2.9779,-2.9779,-2.9779,-2.9779,-2.9779,-2.9779,-2.9779,-2.9779,-2.9779,-2.9779,-2.9611,-2.9365,-2.9118,-2.8816,-2.8351,-2.7881,-2.7394,-2.688,-2.6207,-2.5695,-2.5031,-2.4444,-2.4024,-2.358,-2.3319,-2.3144,-2.3144,-2.3144,-2.3144,-2.3144,-2.3144,-2.3144,-2.3144,-2.3144,-2.3144,-2.3144,-2.3144,-2.3144,-2.3144,-2.3144,-2.3144,-2.3047,-4.5319,-4.5123,-4.4886,-4.4776,-4.4737,-4.4626,-4.457,-4.4468,-4.3927,-4.3132,-4.2303,-4.1644,-4.095,-4.024,-4.0087,-4.0087,-4.0087,-4.0087,-4.0087,-4.0087,-4.0087,-4.0087,-4.0087,-4.0087,-4.007,-4.0037,-4.0003,-3.9901,-3.9746,-3.959,-3.9379,-3.9202,-3.8985,-3.8805,-3.86,-3.8375,-3.8148,-3.7943,-3.7727,-3.7567,-3.7373,-3.7194,-3.6892,-3.6476,-3.6211,-3.6006,-3.5752,-3.5703,-3.5589,-3.5504,-3.5489,-3.537,-3.51,-3.5026,-3.5115,-3.519,-3.522,-3.531,-3.5394,-3.5148,-3.4935,-3.4735,-3.4293,-3.3744,-3.3297,-3.2775,-3.2228,-3.1582,-3.0986,-3.0381,-3.0164,-2.9934,-2.9779,-2.9779,-2.9779,-2.9779,-2.9779,-2.9779,-2.9779,-2.9779,-2.9779,-2.9779,-2.9779,-2.9702,-2.9456,-2.9209,-2.8986,-2.851,-2.7962,-2.7545,-2.7115,-2.6445,-2.5779,-2.5031,-2.4368,-2.4024,-2.3667,-2.3493,-2.3319,-2.3144,-2.3144,-2.3144,-2.3144,-2.3144,-2.3144,-2.3144,-2.3144,-2.3144,-2.3144,-2.3144,-2.3144,-2.3144,-2.3144,-2.3144,-2.3144,-4.5511,-4.53,-4.5086,-4.4923,-4.4776,-4.472,-4.4682,-4.4468,-4.3758,-4.2997,-4.2252,-4.1525,-4.0781,-4.024,-4.0087,-4.0087,-4.0087,-4.0087,-4.0087,-4.0087,-4.0087,-4.0087,-4.0087,-4.0087,-4.0087,-4.0087,-4.0037,-3.9952,-3.9918,-3.9798,-3.9606,-3.9379,-3.9202,-3.9023,-3.8805,-3.8639,-3.8528,-3.8343,-3.8132,-3.7976,-3.777,-3.7476,-3.7074,-3.6723,-3.6476,-3.6211,-3.6006,-3.5752,-3.5703,-3.5589,-3.5569,-3.5489,-3.5489,-3.5489,-3.5489,-3.5489,-3.5489,-3.5489,-3.5424,-3.5148,-3.4935,-3.4817,-3.4293,-3.3827,-3.3382,-3.2931,-3.2214,-3.1582,-3.0911,-3.0368,-3.0292,-2.9998,-2.9779,-2.9779,-2.9779,-2.9779,-2.9779,-2.9779,-2.9779,-2.9779,-2.9779,-2.9779,-2.9779,-2.9702,-2.9546,-2.939,-2.9143,-2.8669,-2.8042,-2.7626,-2.7278,-2.6539,-2.5874,-2.52,-2.454,-2.4196,-2.3927,-2.3677,-2.3416,-2.3232,-2.3144,-2.3144,-2.3144,-2.3144,-2.3144,-2.3144,-2.3144,-2.3144,-2.3144,-2.3144,-2.3144,-2.3144,-2.3144,-2.3144,-2.3144,-4.5701,-4.5441,-4.5283,-4.5086,-4.4886,-4.4831,-4.4635,-4.427,-4.3504,-4.2726,-4.2033,-4.1288,-4.0612,-4.0206,-4.0087,-4.0087,-4.0087,-4.0087,-4.0087,-4.0087,-4.0087,-4.0087,-4.0087,-4.0087,-4.0087,-4.007,-4.007,-4.0037,-4.0003,-3.9901,-3.9763,-3.959,-3.9432,-3.9325,-3.9148,-3.8985,-3.886,-3.8694,-3.8528,-3.8375,-3.8132,-3.7653,-3.7238,-3.6831,-3.6662,-3.6414,-3.6211,-3.5958,-3.5752,-3.5638,-3.5604,-3.5489,-3.5489,-3.5489,-3.5489,-3.5489,-3.5489,-3.5489,-3.5424,-3.5148,-3.4935,-3.4868,-3.4293,-3.3896,-3.3466,-3.2874,-3.2214,-3.1582,-3.0911,-3.0368,-3.0292,-3.0011,-2.9856,-2.9779,-2.9779,-2.9779,-2.9779,-2.9779,-2.9779,-2.9779,-2.9779,-2.9779,-2.9779,-2.9779,-2.9624,-2.9378,-2.9209,-2.8828,-2.8271,-2.7869,-2.7371,-2.6622,-2.5874,-2.5295,-2.4786,-2.4454,-2.411,-2.3851,-2.359,-2.3416,-2.3232,-2.3144,-2.3144,-2.3144,-2.3144,-2.3144,-2.3144,-2.3144,-2.3144,-2.3144,-2.3144,-2.3144,-2.3144,-2.3144,-2.3144,-4.5955,-4.5581,-4.5459,-4.5283,-4.5123,-4.4889,-4.4368,-4.3685,-4.2814,-4.2016,-4.1373,-4.0612,-4.0206,-4.0104,-4.0087,-4.0087,-4.0087,-4.0087,-4.0087,-4.0087,-4.0087,-4.0087,-4.0087,-4.0087,-4.0087,-4.0087,-4.0087,-4.0087,-4.0037,-3.9952,-3.9918,-3.9798,-3.9694,-3.959,-3.9432,-3.9325,-3.9164,-3.8969,-3.8805,-3.8583,-3.8319,-3.7786,-3.7476,-3.7194,-3.6952,-3.66,-3.6476,-3.6163,-3.5894,-3.5688,-3.5604,-3.5489,-3.5489,-3.5489,-3.5489,-3.5489,-3.5489,-3.5489,-3.5424,-3.5148,-3.4935,-3.4802,-3.4278,-3.3882,-3.3382,-3.266,-3.2009,-3.1596,-3.0911,-3.0444,-3.0368,-3.0088,-2.9856,-2.9779,-2.9779,-2.9779,-2.9779,-2.9779,-2.9779,-2.9779,-2.9779,-2.9779,-2.9779,-2.9779,-2.9689,-2.9456,-2.9209,-2.8816,-2.8419,-2.7938,-2.7452,-2.6633,-2.6052,-2.5464,-2.5041,-2.4711,-2.4368,-2.411,-2.3851,-2.359,-2.3406,-2.3319,-2.3144,-2.3144,-2.3144,-2.3144,-2.3144,-2.3144,-2.3144,-2.3144,-2.3144,-2.3144,-2.3144,-2.3144,-2.3144,-4.5945,-4.5905,-4.5598,-4.52,-4.4681,-4.4506,-4.3919,-4.3062,-4.2226,-4.1595,-4.1205,-4.0477,-4.0087,-4.0087,-4.0087,-4.0087,-4.0087,-4.0087,-4.0087,-4.0087,-4.0087,-4.0087,-4.0087,-4.0087,-4.0087,-4.0087,-4.0087,-4.0087,-4.0087,-4.0037,-3.9986,-3.9901,-3.9833,-3.9729,-3.9642,-3.959,-3.9432,-3.9272,-3.904,-3.8766,-3.8448,-3.8091,-3.7786,-3.7401,-3.7194,-3.6952,-3.6662,-3.6429,-3.6163,-3.5894,-3.5733,-3.5539,-3.5489,-3.5489,-3.5489,-3.5489,-3.5489,-3.5489,-3.5424,-3.5228,-3.5082,-3.4802,-3.4399,-3.3937,-3.3283,-3.2646,-3.2009,-3.1596,-3.1061,-3.0672,-3.0432,-3.0152,-2.9946,-2.9869,-2.9779,-2.9779,-2.9779,-2.9779,-2.9779,-2.9779,-2.9779,-2.9779,-2.9779,-2.9779,-2.9689,-2.9521,-2.9209,-2.8895,-2.8419,-2.7765,-2.7196,-2.6633,-2.6135,-2.5717,-2.538,-2.5041,-2.4711,-2.4368,-2.4196,-2.3937,-2.3667,-2.3493,-2.3406,-2.3232,-2.3232,-2.3144,-2.3144,-2.3144,-2.3144,-2.3144,-2.3144,-2.3144,-2.3144,-2.3144,-2.3144,-4.5612,-4.5751,-4.5346,-4.4714,-4.4043,-4.389,-4.3306,-4.245,-4.1784,-4.1359,-4.1002,-4.0459,-4.0138,-4.0087,-4.0087,-4.0087,-4.0087,-4.0087,-4.0087,-4.0087,-4.0087,-4.0087,-4.0087,-4.0087,-4.0087,-4.0087,-4.0087,-4.0087,-4.0087,-4.007,-4.002,-3.9952,-3.9952,-3.9884,-3.9781,-3.9746,-3.9642,-3.9432,-3.9202,-3.8931,-3.8616,-3.8448,-3.8091,-3.7786,-3.7476,-3.7238,-3.6892,-3.6538,-3.6304,-3.6037,-3.5767,-3.5653,-3.5569,-3.5489,-3.5489,-3.5489,-3.5489,-3.5489,-3.5424,-3.5294,-3.5082,-3.4883,-3.4467,-3.3868,-3.3129,-3.2632,-3.2214,-3.1669,-3.1211,-3.0823,-3.0444,-3.0228,-3.0011,-2.9869,-2.9779,-2.9779,-2.9779,-2.9779,-2.9779,-2.9779,-2.9779,-2.9779,-2.9779,-2.9779,-2.9702,-2.9521,-2.9287,-2.8973,-2.8419,-2.7846,-2.736,-2.688,-2.655,-2.6135,-2.5633,-2.5295,-2.4967,-2.4711,-2.4454,-2.4282,-2.4024,-2.3754,-2.358,-2.3493,-2.3329,-2.3319,-2.3319,-2.3232,-2.3144,-2.3144,-2.3144,-2.3144,-2.3144,-2.3144,-2.3144,-4.467,-4.468,-4.4219,-4.3759,-4.3366,-4.3216,-4.2685,-4.1898,-4.1663,-4.1186,-4.0658,-4.0372,-4.0238,-4.0121,-4.0121,-4.0121,-4.0087,-4.0087,-4.0087,-4.0087,-4.0087,-4.0087,-4.0087,-4.0087,-4.0087,-4.0087,-4.0087,-4.0087,-4.0087,-4.0087,-4.007,-4.0087,-4.0037,-3.9986,-3.9935,-3.9833,-3.9746,-3.9606,-3.9379,-3.9202,-3.8876,-3.8655,-3.8335,-3.8221,-3.7727,-3.7298,-3.7134,-3.6785,-3.6429,-3.61,-3.5831,-3.5703,-3.5554,-3.5504,-3.5504,-3.5489,-3.5489,-3.5489,-3.5424,-3.5359,-3.5148,-3.4817,-3.4346,-3.373,-3.3143,-3.2632,-3.2141,-3.1743,-3.1286,-3.0898,-3.052,-3.0228,-3.0088,-2.9856,-2.9779,-2.9779,-2.9779,-2.9779,-2.9779,-2.9779,-2.9779,-2.9779,-2.9779,-2.9779,-2.9779,-2.9611,-2.9365,-2.9052,-2.859,-2.8018,-2.7696,-2.729,-2.6962,-2.655,-2.6063,-2.5717,-2.5464,-2.5211,-2.4871,-2.4711,-2.4454,-2.4186,-2.3927,-2.3754,-2.3667,-2.358,-2.3406,-2.3319,-2.3232,-2.3144,-2.3144,-2.3144,-2.3144,-2.3144,-2.3144,-4.4139,-4.3875,-4.318,-4.2961,-4.3004,-4.2732,-4.2154,-4.1453,-4.1223,-4.094,-4.0534,-4.0436,-4.0337,-4.0238,-4.0188,-4.0188,-4.0121,-4.0087,-4.0087,-4.0087,-4.0087,-4.0087,-4.0087,-4.0087,-4.0087,-4.0087,-4.0087,-4.0087,-4.0087,-4.0087,-4.0087,-4.0087,-4.0087,-4.0087,-4.0037,-3.9935,-3.9849,-3.9746,-3.9554,-3.9325,-3.9148,-3.8805,-3.8544,-3.8335,-3.7976,-3.761,-3.7298,-3.6968,-3.6662,-3.6289,-3.6037,-3.5782,-3.5589,-3.5554,-3.5504,-3.5489,-3.5489,-3.5489,-3.5489,-3.5359,-3.5228,-3.4802,-3.4278,-3.3744,-3.3312,-3.286,-3.2359,-3.1863,-3.1522,-3.1048,-3.0444,-3.0292,-3.0228,-2.9934,-2.9779,-2.9779,-2.9779,-2.9779,-2.9779,-2.9779,-2.9779,-2.9779,-2.9779,-2.9779,-2.9779,-2.9702,-2.9378,-2.9052,-2.8736,-2.8351,-2.7938,-2.7615,-2.7371,-2.7044,-2.655,-2.6218,-2.5968,-2.5717,-2.5369,-2.5126,-2.4956,-2.454,-2.4282,-2.41,-2.3927,-2.3754,-2.358,-2.3406,-2.3319,-2.3135,-2.3135,-2.3144,-2.3144,-2.3144,-2.3144,-4.3534,-4.322,-4.256,-4.2356,-4.2457,-4.2247,-4.1812,-4.1256,-4.1076,-4.0871,-4.0631,-4.0583,-4.0485,-4.0387,-4.0305,-4.0255,-4.0188,-4.0121,-4.0138,-4.0087,-4.0087,-4.0087,-4.0087,-4.0087,-4.0087,-4.0087,-4.0087,-4.0087,-4.0087,-4.0087,-4.0087,-4.0087,-4.0087,-4.0087,-4.0087,-4.0037,-3.9952,-3.9849,-3.9746,-3.9501,-3.9325,-3.9094,-3.8805,-3.8544,-3.8205,-3.786,-3.7492,-3.721,-3.6846,-3.6476,-3.6163,-3.5894,-3.5718,-3.5604,-3.5489,-3.5489,-3.5489,-3.5489,-3.5489,-3.5359,-3.5228,-3.4868,-3.4278,-3.3882,-3.3521,-3.3072,-3.2431,-3.195,-3.1669,-3.1286,-3.052,-3.0368,-3.0152,-2.9934,-2.9779,-2.9779,-2.9779,-2.9779,-2.9779,-2.9779,-2.9779,-2.9779,-2.9779,-2.9779,-2.9779,-2.9702,-2.9521,-2.9197,-2.904,-2.8657,-2.8259,-2.7938,-2.7708,-2.7371,-2.7126,-2.6787,-2.6539,-2.6302,-2.5968,-2.5622,-2.5369,-2.5041,-2.4711,-2.4529,-2.4272,-2.4013,-2.3754,-2.358,-2.3406,-2.3135,-2.3135,-2.3144,-2.3144,-2.3144,-2.3144,-4.2935,-4.2781,-4.2468,-4.2157,-4.1947,-4.1701,-4.155,-4.138,-4.1272,-4.1088,-4.0871,-4.0745,-4.0648,-4.0502,-4.0436,-4.0337,-4.0238,-4.0188,-4.0138,-4.0087,-4.0087,-4.0087,-4.0087,-4.0087,-4.0087,-4.0087,-4.0087,-4.0087,-4.0087,-4.0087,-4.0087,-4.0087,-4.0087,-4.0087,-4.0087,-4.0087,-4.0037,-3.9901,-3.9901,-3.9694,-3.9484,-3.9325,-3.904,-3.8766,-3.8448,-3.8107,-3.77,-3.7373,-3.7029,-3.6616,-3.6289,-3.5958,-3.5767,-3.5604,-3.5554,-3.5489,-3.5489,-3.5489,-3.5489,-3.5148,-3.5001,-3.4854,-3.4346,-3.3951,-3.3591,-3.3086,-3.2574,-3.2096,-3.1743,-3.1299,-3.0761,-3.0368,-3.0152,-2.9934,-2.9856,-2.9779,-2.9779,-2.9779,-2.9779,-2.9779,-2.9779,-2.9779,-2.9779,-2.9779,-2.9779,-2.9689,-2.9509,-2.9353,-2.9197,-2.8961,-2.8486,-2.8247,-2.8018,-2.7788,-2.7534,-2.736,-2.7115,-2.6798,-2.655,-2.629,-2.5957,-2.5549,-2.5295,-2.4946,-2.4615,-2.4358,-2.4013,-2.3851,-2.358,-2.3309,-2.3135,-2.3144,-2.3144,-2.3144,-2.3144,-4.2956,-4.288,-4.2706,-4.253,-4.2287,-4.2012,-4.1797,-4.1648,-4.1426,-4.1226,-4.1088,-4.0965,-4.0888,-4.0728,-4.0583,-4.0436,-4.0288,-4.0238,-4.0188,-4.0121,-4.007,-4.0087,-4.0087,-4.0087,-4.0087,-4.0087,-4.0087,-4.0087,-4.0087,-4.0087,-4.0087,-4.0087,-4.0087,-4.0087,-4.0087,-4.0087,-4.0087,-4.0037,-3.9935,-3.9781,-3.9625,-3.9415,-3.9148,-3.886,-3.856,-3.8221,-3.7876,-3.7476,-3.7134,-3.68,-3.6492,-3.6163,-3.5894,-3.5718,-3.5589,-3.5554,-3.5489,-3.5489,-3.5424,-3.5228,-3.5067,-3.4802,-3.4467,-3.4074,-3.3799,-3.3213,-3.2717,-3.2214,-3.1803,-3.136,-3.0911,-3.052,-3.0305,-3.0088,-2.9934,-2.9856,-2.9779,-2.9779,-2.9779,-2.9779,-2.9779,-2.9779,-2.9779,-2.9779,-2.9779,-2.9779,-2.9599,-2.9509,-2.9353,-2.9118,-2.8882,-2.8645,-2.8407,-2.8259,-2.8018,-2.7765,-2.7522,-2.7278,-2.7126,-2.6869,-2.6539,-2.6135,-2.5801,-2.5464,-2.5041,-2.47,-2.4358,-2.4024,-2.3667,-2.3406,-2.3319,-2.3144,-2.3144,-2.3144,-2.3144,-4.3123,-4.3013,-4.2862,-4.2765,-4.2631,-4.2305,-4.2055,-4.1866,-4.1631,-4.1453,-4.1363,-4.1261,-4.114,-4.0982,-4.084,-4.0648,-4.0453,-4.0305,-4.0305,-4.0171,-4.0121,-4.0121,-4.0087,-4.0087,-4.0087,-4.0087,-4.0087,-4.0087,-4.0087,-4.0087,-4.0087,-4.0087,-4.0087,-4.0087,-4.0087,-4.0087,-4.0087,-4.0087,-3.9986,-3.9952,-3.9729,-3.9573,-3.9309,-3.8985,-3.8711,-3.8375,-3.8017,-3.7669,-3.7314,-3.706,-3.6693,-3.6367,-3.6037,-3.5831,-3.5638,-3.5554,-3.5489,-3.5489,-3.5424,-3.5424,-3.5213,-3.492,-3.4601,-3.4278,-3.3882,-3.3382,-3.2931,-3.2431,-3.1936,-3.1508,-3.1061,-3.0672,-3.0381,-3.0241,-3.0011,-2.9934,-2.9792,-2.9792,-2.9779,-2.9779,-2.9779,-2.9779,-2.9779,-2.9779,-2.9779,-2.9702,-2.9689,-2.9599,-2.9521,-2.9365,-2.9118,-2.8961,-2.8803,-2.8657,-2.8419,-2.8271,-2.8018,-2.7765,-2.7603,-2.736,-2.7033,-2.6622,-2.6302,-2.5979,-2.5549,-2.5126,-2.4615,-2.4272,-2.4013,-2.3667,-2.3416,-2.3319,-2.3144,-2.3144,-2.3144,-4.3322,-4.3178,-4.2995,-4.292,-4.2844,-4.2534,-4.231,-4.2121,-4.1909,-4.1736,-4.1604,-4.1471,-4.129,-4.114,-4.0982,-4.084,-4.0697,-4.047,-4.0355,-4.0255,-4.0188,-4.0138,-4.0138,-4.0087,-4.0087,-4.0087,-4.0087,-4.0087,-4.0087,-4.0087,-4.0087,-4.0087,-4.0087,-4.0087,-4.0087,-4.0087,-4.0087,-4.0087,-4.0087,-3.9986,-3.9833,-3.9729,-3.9468,-3.9202,-3.8876,-3.8528,-3.8189,-3.786,-3.7449,-3.7105,-3.6739,-3.6352,-3.6085,-3.5816,-3.5653,-3.5554,-3.5489,-3.5489,-3.5489,-3.5424,-3.5294,-3.5001,-3.4683,-3.4293,-3.3882,-3.3536,-3.3086,-3.2588,-3.2082,-3.1582,-3.1136,-3.0849,-3.0546,-3.0394,-3.0164,-3.0011,-2.9869,-2.9792,-2.9779,-2.9779,-2.9779,-2.9779,-2.9779,-2.9779,-2.9779,-2.9779,-2.9702,-2.9702,-2.9611,-2.9534,-2.9365,-2.9275,-2.9118,-2.8961,-2.8816,-2.8578,-2.8419,-2.8247,-2.8018,-2.7777,-2.7441,-2.7103,-2.6787,-2.6385,-2.6063,-2.5559,-2.5041,-2.4615,-2.4368,-2.4024,-2.3764,-2.3503,-2.3319,-2.3144,-2.3144,-4.3376,-4.3359,-4.3178,-4.3105,-4.3087,-4.2844,-4.2591,-4.2246,-4.2163,-4.2055,-4.1876,-4.1666,-4.1515,-4.1426,-4.1186,-4.1,-4.0858,-4.0666,-4.0453,-4.0355,-4.0255,-4.0188,-4.0138,-4.0121,-4.007,-4.0087,-4.0087,-4.0087,-4.0087,-4.0087,-4.0087,-4.0087,-4.0087,-4.0087,-4.0087,-4.0087,-4.0087,-4.0087,-4.0087,-4.0037,-3.9935,-3.9781,-3.9573,-3.9309,-3.904,-3.8655,-3.8319,-3.7976,-3.7626,-3.7194,-3.6999,-3.6677,-3.6148,-3.5958,-3.5782,-3.5554,-3.5489,-3.5489,-3.5489,-3.5489,-3.5359,-3.5148,-3.4883,-3.4414,-3.402,-3.3605,-3.3227,-3.2803,-3.23,-3.1863,-3.1434,-3.1149,-3.0849,-3.0622,-3.0305,-3.0164,-3.0023,-2.9856,-2.9856,-2.9779,-2.9779,-2.9779,-2.9779,-2.9779,-2.9779,-2.9779,-2.9779,-2.9779,-2.9779,-2.9702,-2.9611,-2.9521,-2.9431,-2.9287,-2.9118,-2.8973,-2.8803,-2.8645,-2.8419,-2.8191,-2.7938,-2.7603,-2.7196,-2.6787,-2.6385,-2.5884,-2.5369,-2.5031,-2.4786,-2.4454,-2.4196,-2.3851,-2.3493,-2.3319,-2.3144,-4.3446,-4.3446,-4.334,-4.3251,-4.3178,-4.305,-4.2824,-4.2552,-4.2432,-4.2287,-4.2097,-4.1952,-4.178,-4.156,-4.1398,-4.1215,-4.1,-4.084,-4.0648,-4.0502,-4.0355,-4.0238,-4.0188,-4.0121,-4.007,-4.0087,-4.0087,-4.0087,-4.0087,-4.0087,-4.0087,-4.0087,-4.0087,-4.0087,-4.0087,-4.0087,-4.0087,-4.0087,-4.0087,-4.0037,-3.9986,-3.9833,-3.9625,-3.9432,-3.9148,-3.8821,-3.8504,-3.8148,-3.7727,-3.7314,-3.7121,-3.6816,-3.6336,-3.6037,-3.5782,-3.5554,-3.5489,-3.5489,-3.5489,-3.5489,-3.5359,-3.5213,-3.5016,-3.4601,-3.4278,-3.3882,-3.3452,-3.3016,-3.2588,-3.2155,-3.1803,-3.1447,-3.1149,-3.0849,-3.0546,-3.0318,-3.0164,-2.9998,-2.9934,-2.9779,-2.9779,-2.9779,-2.9779,-2.9779,-2.9779,-2.9779,-2.9779,-2.9779,-2.9779,-2.9779,-2.9702,-2.9611,-2.9599,-2.9521,-2.9365,-2.9209,-2.904,-2.8882,-2.8724,-2.8486,-2.8247,-2.8007,-2.7603,-2.7115,-2.6715,-2.6207,-2.579,-2.5538,-2.5211,-2.4882,-2.454,-2.4282,-2.3927,-2.358,-2.3406,-4.3479,-4.3479,-4.3446,-4.3322,-4.3214,-4.3214,-4.3087,-4.292,-4.2709,-4.253,-4.2328,-4.2269,-4.2037,-4.178,-4.1604,-4.1398,-4.1169,-4.1029,-4.084,-4.0697,-4.0502,-4.0355,-4.0238,-4.0188,-4.0138,-4.0138,-4.0087,-4.0087,-4.0087,-4.0087,-4.0087,-4.0087,-4.0087,-4.0087,-4.0087,-4.0087,-4.0087,-4.0087,-4.0087,-4.0087,-4.002,-3.9986,-3.9833,-3.9677,-3.9362,-3.904,-3.8639,-3.8286,-3.7927,-3.7492,-3.715,-3.6862,-3.6414,-3.6037,-3.5718,-3.5539,-3.5489,-3.5489,-3.5489,-3.5489,-3.5439,-3.5228,-3.5082,-3.4802,-3.4467,-3.4074,-3.3646,-3.3241,-3.2816,-3.2386,-3.2023,-3.173,-3.1434,-3.1136,-3.0836,-3.0533,-3.0318,-3.0164,-2.9934,-2.9856,-2.9779,-2.9779,-2.9779,-2.9779,-2.9779,-2.9779,-2.9779,-2.9779,-2.9779,-2.9779,-2.9779,-2.9702,-2.9689,-2.9611,-2.9521,-2.9443,-2.9365,-2.9197,-2.8961,-2.8803,-2.8657,-2.8339,-2.8018,-2.7534,-2.7044,-2.6633,-2.6302,-2.5957,-2.5706,-2.538,-2.5041,-2.47,-2.4358,-2.3927,-2.358,-4.3479,-4.3479,-4.3497,-4.3446,-4.3359,-4.3359,-4.3251,-4.3123,-4.3049,-4.2804,-4.253,-4.2369,-4.2246,-4.2079,-4.178,-4.156,-4.1426,-4.1215,-4.1,-4.084,-4.0648,-4.0502,-4.0355,-4.0288,-4.0188,-4.0138,-4.0087,-4.0087,-4.0087,-4.0087,-4.0087,-4.0087,-4.0087,-4.0087,-4.0087,-4.0087,-4.0087,-4.0087,-4.0087,-4.0087,-4.007,-3.9986,-3.9833,-3.9677,-3.9415,-3.9131,-3.8805,-3.8488,-3.8075,-3.7685,-3.7314,-3.6892,-3.6336,-3.6022,-3.5831,-3.5703,-3.5554,-3.5489,-3.5489,-3.5489,-3.5424,-3.5374,-3.5228,-3.5016,-3.4735,-3.4264,-3.3854,-3.3452,-3.31,-3.2674,-3.2386,-3.2096,-3.1803,-3.1434,-3.1061,-3.0761,-3.0546,-3.0318,-3.0088,-2.9934,-2.9856,-2.9779,-2.9779,-2.9779,-2.9779,-2.9779,-2.9779,-2.9779,-2.9779,-2.9779,-2.9779,-2.9779,-2.9779,-2.9702,-2.9689,-2.9599,-2.9521,-2.9431,-2.9275,-2.9118,-2.8973,-2.8657,-2.8259,-2.7857,-2.7383,-2.7044,-2.6704,-2.6362,-2.6113,-2.579,-2.5464,-2.5126,-2.4786,-2.4444,-2.4013,-4.3479,-4.3479,-4.3479,-4.3463,-4.3428,-4.3446,-4.3376,-4.3305,-4.3233,-4.3086,-4.2804,-4.2609,-4.245,-4.2328,-4.1995,-4.1736,-4.1648,-4.1443,-4.1215,-4.0982,-4.084,-4.0697,-4.0534,-4.0337,-4.0288,-4.0188,-4.0138,-4.0087,-4.0087,-4.0087,-4.0087,-4.0087,-4.0087,-4.0087,-4.0087,-4.0087,-4.0087,-4.0087,-4.0087,-4.0087,-4.0087,-4.0037,-3.9935,-3.9729,-3.9573,-3.9292,-3.8969,-3.8711,-3.8319,-3.7801,-3.7389,-3.6907,-3.6414,-3.61,-3.5894,-3.5703,-3.5589,-3.5489,-3.5489,-3.5489,-3.5489,-3.5424,-3.5294,-3.5067,-3.5016,-3.4601,-3.421,-3.3799,-3.3312,-3.2959,-3.2745,-3.2458,-3.2169,-3.1817,-3.136,-3.0986,-3.0685,-3.0457,-3.0241,-3.0011,-2.9934,-2.9856,-2.9856,-2.9779,-2.9779,-2.9779,-2.9779,-2.9779,-2.9779,-2.9779,-2.9779,-2.9779,-2.9779,-2.9779,-2.9779,-2.9702,-2.9702,-2.9611,-2.9509,-2.9275,-2.9052,-2.8816,-2.8498,-2.8179,-2.7857,-2.7615,-2.7267,-2.6857,-2.6622,-2.6467,-2.6052,-2.5549,-2.5295,-2.4956,-2.4529,-4.3479,-4.3479,-4.3479,-4.3479,-4.3479,-4.3479,-4.3463,-4.3411,-4.3376,-4.3287,-4.3086,-4.2899,-4.2667,-4.245,-4.2287,-4.1995,-4.178,-4.1622,-4.1398,-4.1215,-4.0982,-4.084,-4.0648,-4.0502,-4.0387,-4.0238,-4.0138,-4.0138,-4.0087,-4.0087,-4.0087,-4.0087,-4.0087,-4.0087,-4.0087,-4.0087,-4.0087,-4.0087,-4.0087,-4.0087,-4.0087,-4.0087,-3.9986,-3.9884,-3.9781,-3.959,-3.9255,-3.886,-3.8472,-3.8017,-3.7449,-3.6968,-3.6538,-3.6163,-3.5958,-3.5767,-3.5619,-3.5504,-3.5489,-3.5489,-3.5489,-3.5424,-3.5279,-3.5213,-3.5148,-3.4883,-3.4563,-3.4157,-3.373,-3.3312,-3.31,-3.2816,-3.2544,-3.2109,-3.1656,-3.1211,-3.0911,-3.0609,-3.0381,-3.0241,-3.0088,-3.0088,-2.9934,-2.9856,-2.9779,-2.9779,-2.9779,-2.9779,-2.9779,-2.9779,-2.9779,-2.9779,-2.9779,-2.9779,-2.9779,-2.9779,-2.9792,-2.9702,-2.9611,-2.9365,-2.9209,-2.904,-2.8882,-2.8669,-2.8339,-2.8018,-2.7777,-2.7441,-2.7208,-2.6974,-2.6633,-2.6207,-2.5633,-2.5295,-2.4956,-4.3479,-4.3479,-4.3479,-4.3479,-4.3479,-4.3479,-4.3497,-4.3444,-4.3411,-4.3359,-4.3287,-4.3141,-4.2917,-4.2667,-4.2409,-4.2145,-4.2079,-4.1823,-4.1648,-4.1471,-4.1215,-4.1029,-4.084,-4.0648,-4.0485,-4.0337,-4.0188,-4.0121,-4.0138,-4.0138,-4.0087,-4.0087,-4.0087,-4.0087,-4.0087,-4.0087,-4.0087,-4.0087,-4.0087,-4.0087,-4.0087,-4.0087,-4.0054,-3.9884,-3.9781,-3.952,-3.9255,-3.8985,-3.8655,-3.8205,-3.761,-3.7074,-3.6662,-3.6274,-3.6022,-3.5846,-3.5683,-3.5569,-3.5489,-3.5489,-3.5489,-3.5489,-3.5359,-3.5359,-3.5228,-3.5148,-3.4831,-3.4631,-3.4142,-3.373,-3.3452,-3.3241,-3.2888,-3.2327,-3.1803,-3.1434,-3.1061,-3.0911,-3.0761,-3.0533,-3.0381,-3.0228,-3.0075,-2.9998,-2.9934,-2.9934,-2.9869,-2.9869,-2.9779,-2.9779,-2.9779,-2.9779,-2.9779,-2.9779,-2.9779,-2.9779,-2.9779,-2.9792,-2.9702,-2.9534,-2.9443,-2.9341,-2.9197,-2.8973,-2.8669,-2.8419,-2.8179,-2.7938,-2.7615,-2.7371,-2.7196,-2.6775,-2.6218,-2.5644,-2.5211]},{"header":{"parameterUnit":"m.s-1","parameterCategory":1,"la1":31.0,"la2":29.5877,"lo1":-88.7671,"lo2":-86.6584,"dy":0.0162,"dx":0.0185,"nx":115,"ny":88,"refTime":"2024-06-04T18:00:00:Z","depth":0,"parameterNumber":3,"parameterNumberName":"V-component_of_WINDS"},"data":[0.0,0.0,0.0,0.0,0.0,0.0,0.0,0.0,0.0,0.0,0.0,0.0,0.0,0.0,0.0,0.0,0.0,0.0,0.0,0.0,0.0,0.0,0.0,0.0,0.0,0.0,0.0,0.0,0.0,0.0,0.0,0.0,0.0,0.0,0.0,0.0,0.0,0.0,0.0,0.0,0.0,0.0,0.0,0.0,0.0,0.0,0.0,0.0,0.0,0.0,0.0,0.0,0.0,0.0,0.0,0.0,0.0,0.0,0.0,0.0,0.0,0.0,0.0,0.0,0.0,0.0,0.0,0.0,0.0,0.0,0.0,0.0,0.0,0.0,0.0,0.0,0.0,0.0,0.0,0.0,0.0,0.0,0.0,0.0,0.0,0.0,0.0,0.0,0.0,0.0,0.0,0.0,0.0,0.0,0.0,0.0,0.0,0.0,0.0,0.0,0.0,0.0,0.0,0.0,0.0,0.0,0.0,0.0,0.0,0.0,0.0,0.0,0.0,0.0,0.0,0.0,0.0,0.0,0.0,0.0,0.0,0.0,0.0,0.0,0.0,0.0,0.0,0.0,0.0,0.0,0.0,0.0,0.0,0.0,0.0,0.0,0.0,0.0,0.0,0.0,0.0,0.0,0.0,0.0,0.0,0.0,0.0,0.0,0.0,0.0,0.0,0.0,0.0,0.0,0.0,0.0,0.0,0.0,0.0,0.0,0.0,0.0,0.0,0.0,0.0,0.0,0.0,0.0,0.0,0.0,0.0,0.0,0.0,0.0,0.0,0.0,0.0,0.0,0.0,0.0,0.0,0.0,0.0,0.0,0.0,0.0,0.0,0.0,0.0,0.0,0.0,0.0,0.0,0.0,0.0,0.0,0.0,0.0,0.0,0.0,0.0,0.0,0.0,0.0,0.0,0.0,0.0,0.0,0.0,0.0,0.0,0.0,0.0,0.0,0.0,0.0,0.0,0.0,0.0,0.0,0.0,0.0,0.0,0.0,0.0,0.0,0.0,0.0,0.0,0.0,0.0,0.0,0.0,0.0,0.0,0.0,0.0,0.0,0.0,0.0,0.0,0.0,0.0,0.0,0.0,0.0,0.0,0.0,0.0,0.0,0.0,0.0,0.0,0.0,0.0,0.0,0.0,0.0,0.0,0.0,0.0,0.0,0.0,0.0,0.0,0.0,0.0,0.0,0.0,0.0,0.0,0.0,0.0,0.0,0.0,0.0,0.0,0.0,0.0,0.0,0.0,0.0,0.0,0.0,0.0,0.0,0.0,0.0,0.0,0.0,0.0,0.0,0.0,0.0,0.0,0.0,0.0,0.0,0.0,0.0,0.0,0.0,0.0,0.0,0.0,0.0,0.0,0.0,0.0,0.0,0.0,0.0,0.0,0.0,0.0,0.0,0.0,0.0,0.0,0.0,0.0,0.0,0.0,0.0,0.0,0.0,0.0,0.0,0.0,0.0,0.0,0.0,0.0,0.0,0.0,0.0,0.0,0.0,0.0,0.0,0.0,0.0,0.0,0.0,0.0,0.0,0.0,0.0,0.0,0.0,0.0,0.0,0.0,0.0,0.0,0.0,0.0,0.0,0.0,0.0,0.0,0.0,0.0,0.0,0.0,0.0,0.0,0.0,0.0,0.0,0.0,0.0,0.0,0.0,0.0,0.0,0.0,0.0,0.0,0.0,0.0,0.0,0.0,0.0,0.0,0.0,0.0,0.0,0.0,0.0,0.0,0.0,0.0,0.0,0.0,0.0,0.0,0.0,0.0,0.0,0.0,0.0,0.0,0.0,0.0,0.0,0.0,0.0,0.0,0.0,0.0,0.0,0.0,0.0,0.0,0.0,0.0,0.0,0.0,0.0,0.0,0.0,0.0,0.0,0.0,0.0,0.0,0.0,0.0,0.0,0.0,0.0,0.0,0.0,0.0,0.0,0.0,0.0,0.0,0.0,0.0,0.0,0.0,0.0,0.0,0.0,0.0,0.0,0.0,0.0,0.0,0.0,0.0,0.0,0.0,0.0,0.0,0.0,0.0,0.0,0.0,0.0,0.0,0.0,0.0,0.0,0.0,0.0,0.0,0.0,0.0,0.0,0.0,0.0,0.0,0.0,0.0,0.0,0.0,0.0,0.0,0.0,0.0,0.0,0.0,0.0,0.0,0.0,0.0,0.0,0.0,0.0,0.0,0.0,0.0,0.0,0.0,0.0,0.0,0.0,0.0,0.0,0.0,0.0,0.0,0.0,0.0,0.0,0.0,0.0,0.0,0.0,0.0,0.0,0.0,0.0,0.0,0.0,0.0,0.0,0.0,0.0,0.0,0.0,0.0,0.0,0.0,0.0,0.0,0.0,0.0,0.0,0.0,0.0,0.0,0.0,0.0,0.0,0.0,0.0,0.0,0.0,0.0,0.0,0.0,0.0,0.0,0.0,0.0,0.0,0.0,0.0,0.0,0.0,0.0,0.0,0.0,0.0,0.0,0.0,0.0,0.0,0.0,0.0,0.0,0.0,0.0,0.0,0.0,0.0,0.0,0.0,0.0,0.0,0.0,0.0,0.0,0.0,0.0,0.0,0.0,0.0,0.0,0.0,0.0,0.0,0.0,0.0,0.0,0.0,0.0,0.0,0.0,0.0,0.0,0.0,0.0,0.0,0.0,0.0,0.0,0.0,0.0,0.0,0.0,0.0,0.0,0.0,0.0,0.0,0.0,0.0,0.0,0.0,0.0,0.0,0.0,0.0,0.0,0.0,0.0,0.0,0.0,0.0,0.0,0.0,0.0,0.0,0.0,0.0,0.0,0.0,0.0,0.0,0.0,0.0,0.0,0.0,0.0,0.0,0.0,0.0,0.0,0.0,0.0,0.0,0.0,0.0,0.0,0.0,0.0,0.0,0.0,0.0,0.0,0.0,0.0,0.0,0.0,0.0,0.0,0.0,0.0,0.0,0.0,0.0,0.0,0.0,0.0,0.0,0.0,0.0,0.0,0.0,0.0,0.0,0.0,0.0,0.0,0.0,0.0,0.0,0.0,0.0,0.0,0.0,0.0,0.0,0.0,0.0,0.0,0.0,0.0,0.0,0.0,0.0,0.0,0.0,0.0,0.0,0.0,0.0,0.0,0.0,0.0,0.0,0.0,0.0,0.0,0.0,0.0,0.0,0.0,0.0,0.0,0.0,0.0,0.0,0.0,0.0,0.0,0.0,0.0,0.0,0.0,0.0,0.0,0.0,0.0,0.0,0.0,0.0,0.0,0.0,0.0,0.0,0.0,0.0,0.0,0.0,0.0,0.0,0.0,0.0,0.0,0.0,0.0,0.0,0.0,0.0,0.0,0.0,0.0,0.0,0.0,0.0,0.0,0.0,0.0,0.0,0.0,0.0,0.0,0.0,0.0,0.0,0.0,0.0,0.0,0.0,0.0,0.0,0.0,0.0,0.0,0.0,0.0,0.0,0.0,0.0,0.0,0.0,0.0,0.0,0.0,0.0,0.0,0.0,0.0,0.0,0.0,0.0,0.0,0.0,0.0,0.0,0.0,0.0,0.0,0.0,0.0,0.0,0.0,0.0,0.0,0.0,0.0,0.0,0.0,0.0,0.0,0.0,0.0,0.0,0.0,0.0,0.0,0.0,0.0,0.0,0.0,0.0,0.0,0.0,0.0,0.0,0.0,0.0,0.0,0.0,0.0,0.0,0.0,0.0,0.0,0.0,0.0,0.0,0.0,0.0,0.0,0.0,0.0,0.0,0.0,0.0,0.0,0.0,0.0,0.0,0.0,0.0,0.0,0.0,0.0,0.0,0.0,0.0,0.0,0.0,0.0,0.0,0.0,0.0,0.0,0.0,0.0,0.0,0.0,0.0,0.0,0.0,0.0,0.0,0.0,0.0,0.0,0.0,0.0,0.0,0.0,0.0,0.0,0.0,0.0,0.0,0.0,0.0,0.0,0.0,0.0,0.0,0.0,0.0,0.0,0.0,0.0,0.0,0.0,0.0,0.0,0.0,0.0,0.0,0.0,0.0,0.0,0.0,0.0,0.0,0.0,0.0,0.0,0.0,0.0,0.0,0.0,0.0,0.0,0.0,0.0,0.0,0.0,0.0,0.0,0.0,0.0,0.0,0.0,0.0,0.0,0.0,0.0,0.0,0.0,0.0,0.0,0.0,0.0,0.0,0.0,0.0,0.0,0.0,0.0,0.0,0.0,0.0,0.0,0.0,0.0,0.0,0.0,0.0,0.0,0.0,0.0,0.0,0.0,0.0,0.0,0.0,0.0,0.0,0.0,0.0,-0.8124,0.0,0.0,0.0,0.0,0.0,0.0,0.0,0.0,0.0,0.0,0.0,0.0,0.0,0.0,0.0,0.0,0.0,0.0,0.0,0.0,0.0,0.0,0.0,0.0,0.0,0.0,0.0,0.0,0.0,0.0,0.0,0.0,0.0,0.0,0.0,0.0,0.0,0.0,0.0,0.0,0.0,0.0,0.0,0.0,0.0,0.0,0.0,0.0,0.0,0.0,0.0,0.0,0.0,0.0,0.0,0.0,0.0,0.0,0.0,0.0,0.0,0.0,0.0,0.0,0.0,0.0,0.0,0.0,0.0,0.0,0.0,0.0,0.0,0.0,0.0,0.0,0.0,0.0,0.0,0.0,0.0,0.0,0.0,0.0,0.0,0.0,0.0,0.0,0.0,0.0,0.0,0.0,0.0,0.0,0.0,0.0,0.0,0.0,0.0,0.0,0.0,0.0,0.0,0.0,0.0,0.0,0.0,0.0,0.0,0.0,-1.0108,-0.9924,-0.9655,-0.9346,-0.8916,0.0,0.0,0.0,0.0,0.0,0.0,0.0,0.0,0.0,0.0,0.0,0.0,0.0,0.0,0.0,0.0,0.0,0.0,0.0,0.0,0.0,0.0,0.0,0.0,0.0,0.0,0.0,0.0,0.0,0.0,0.0,0.0,0.0,0.0,0.0,0.0,0.0,0.0,0.0,0.0,0.0,0.0,0.0,0.0,0.0,0.0,0.0,0.0,0.0,0.0,0.0,0.0,0.0,0.0,0.0,0.0,0.0,0.0,0.0,0.0,0.0,0.0,0.0,0.0,0.0,0.0,0.0,0.0,0.0,0.0,0.0,0.0,0.0,0.0,0.0,0.0,0.0,0.0,0.0,0.0,0.0,0.0,0.0,0.0,0.0,0.0,0.0,0.0,0.0,0.0,0.0,0.0,0.0,0.0,0.0,0.0,0.0,0.0,0.0,0.0,0.0,0.0,0.0,0.0,0.0,0.0,0.0,0.0,0.0,0.0,0.0,0.0,-0.9951,-0.9651,-0.9473,0.0,0.0,0.0,0.0,0.0,0.0,0.0,0.0,0.0,0.0,0.0,0.0,0.0,0.0,0.0,0.0,0.0,0.0,0.0,0.0,0.0,0.0,0.0,0.0,0.0,0.0,0.0,0.0,0.0,0.0,0.0,0.0,0.0,0.0,0.0,0.0,0.0,0.0,0.0,0.0,0.0,0.0,0.0,0.0,0.0,0.0,0.0,0.0,0.0,0.0,0.0,0.0,0.0,0.0,0.0,0.0,0.0,0.0,0.0,0.0,0.0,0.0,0.0,0.0,0.0,0.0,0.0,0.0,0.0,0.0,0.0,0.0,0.0,0.0,0.0,0.0,0.0,0.0,0.0,0.0,0.0,0.0,0.0,0.0,0.0,0.0,0.0,0.0,0.0,0.0,0.0,0.0,0.0,0.0,0.0,0.0,0.0,0.0,0.0,0.0,0.0,0.0,0.0,0.0,0.0,0.0,0.0,0.0,0.0,0.0,-1.0322,-1.0273,-1.0244,0.0,-0.9195,0.0,0.0,0.0,0.0,0.0,0.0,0.0,0.0,0.0,0.0,0.0,0.0,0.0,0.0,0.0,0.0,0.0,0.0,0.0,0.0,0.0,0.0,0.0,0.0,0.0,0.0,0.0,0.0,0.0,0.0,0.0,0.0,0.0,0.0,0.0,0.0,0.0,0.0,0.0,0.0,0.0,0.0,0.0,0.0,0.0,0.0,0.0,0.0,0.0,0.0,0.0,0.0,0.0,0.0,0.0,0.0,0.0,0.0,0.0,0.0,0.0,0.0,0.0,0.0,0.0,0.0,0.0,0.0,0.0,0.0,0.0,0.0,0.0,0.0,0.0,0.0,0.0,0.0,0.0,0.0,0.0,0.0,0.0,0.0,0.0,0.0,0.0,0.0,0.0,0.0,0.0,0.0,0.0,0.0,0.0,0.0,0.0,0.0,0.0,0.0,0.0,0.0,0.0,0.0,0.0,0.0,0.0,0.0,0.0,0.0,-1.0467,-1.0477,-1.0467,-1.0096,0.0,0.0,0.0,0.0,0.0,0.0,0.0,0.0,0.0,0.0,0.0,0.0,0.0,0.0,0.0,0.0,0.0,0.0,0.0,0.0,0.0,0.0,0.0,0.0,0.0,0.0,0.0,0.0,0.0,0.0,0.0,0.0,0.0,0.0,0.0,0.0,0.0,0.0,0.0,0.0,0.0,0.0,0.0,0.0,0.0,0.0,0.0,0.0,0.0,0.0,0.0,0.0,0.0,0.0,0.0,0.0,0.0,0.0,0.0,0.0,0.0,0.0,0.0,0.0,0.0,0.0,0.0,0.0,0.0,0.0,0.0,0.0,0.0,0.0,0.0,0.0,0.0,0.0,0.0,0.0,0.0,0.0,0.0,0.0,0.0,0.0,0.0,0.0,0.0,0.0,0.0,0.0,0.0,0.0,0.0,0.0,0.0,0.0,0.0,0.0,0.0,0.0,0.0,0.0,0.0,0.0,0.0,0.0,0.0,0.0,-1.0534,0.0,-1.0582,-1.0621,-1.0305,-0.9579,0.0,0.0,0.0,0.0,0.0,0.0,0.0,0.0,0.0,0.0,0.0,0.0,0.0,0.0,0.0,0.0,0.0,0.0,0.0,0.0,0.0,0.0,0.0,0.0,0.0,0.0,0.0,0.0,0.0,0.0,0.0,0.0,0.0,0.0,0.0,0.0,0.0,0.0,0.0,0.0,0.0,0.0,0.0,0.0,0.0,0.0,0.0,0.0,0.0,0.0,0.0,0.0,0.0,0.0,0.0,0.0,0.0,0.0,0.0,0.0,0.0,0.0,0.0,0.0,0.0,0.0,0.0,0.0,0.0,0.0,0.0,0.0,0.0,0.0,0.0,0.0,0.0,0.0,0.0,0.0,0.0,0.0,0.0,0.0,0.0,0.0,0.0,0.0,0.0,0.0,0.0,0.0,0.0,0.0,0.0,0.0,0.0,0.0,0.0,0.0,0.0,0.0,0.0,0.0,0.0,0.0,0.0,0.0,0.0,-1.0582,-1.0631,-1.0582,-1.0708,-1.0596,0.0,0.0,0.0,0.0,0.0,0.0,0.0,0.0,0.0,0.0,0.0,0.0,0.0,0.0,0.0,0.0,0.0,0.0,0.0,0.0,0.0,0.0,0.0,0.0,0.0,0.0,0.0,0.0,0.0,0.0,0.0,0.0,0.0,0.0,0.0,0.0,0.0,0.0,0.0,0.0,0.0,0.0,0.0,0.0,0.0,0.0,0.0,0.0,0.0,0.0,0.0,0.0,0.0,0.0,0.0,0.0,0.0,0.0,0.0,0.0,0.0,0.0,0.0,0.0,0.0,0.0,0.0,0.0,0.0,0.0,0.0,0.0,0.0,0.0,0.0,0.0,0.0,0.0,0.0,0.0,0.0,0.0,0.0,0.0,0.0,0.0,0.0,0.0,0.0,0.0,0.0,0.0,0.0,0.0,0.0,0.0,0.0,0.0,0.0,0.0,0.0,0.0,0.0,0.0,0.0,0.0,0.0,0.0,0.0,-1.0746,-1.0871,-1.0947,-1.0985,-1.1023,-1.0851,0.0,0.0,0.0,0.0,0.0,0.0,0.0,0.0,0.0,0.0,0.0,0.0,0.0,0.0,0.0,0.0,0.0,0.0,0.0,0.0,0.0,0.0,0.0,0.0,0.0,0.0,0.0,0.0,0.0,0.0,0.0,0.0,0.0,0.0,0.0,0.0,0.0,0.0,0.0,0.0,0.0,0.0,0.0,0.0,0.0,0.0,0.0,0.0,0.0,0.0,0.0,0.0,0.0,0.0,0.0,0.0,0.0,0.0,0.0,0.0,0.0,0.0,0.0,0.0,0.0,0.0,0.0,0.0,0.0,0.0,0.0,0.0,0.0,0.0,0.0,0.0,0.0,0.0,0.0,0.0,0.0,0.0,0.0,0.0,0.0,0.0,0.0,0.0,0.0,0.0,0.0,0.0,0.0,0.0,0.0,0.0,0.0,0.0,0.0,0.0,0.0,0.0,0.0,0.0,0.0,0.0,0.0,0.0,0.0,-1.1155,0.0,-1.1616,0.0,-1.1523,-1.1346,0.0,0.0,0.0,0.0,0.0,0.0,0.0,0.0,0.0,0.0,0.0,0.0,0.0,0.0,0.0,0.0,0.0,0.0,0.0,0.0,0.0,0.0,0.0,0.0,0.0,0.0,0.0,0.0,0.0,0.0,0.0,0.0,0.0,0.0,0.0,0.0,0.0,0.0,0.0,0.0,0.0,0.0,0.0,0.0,0.0,0.0,0.0,0.0,0.0,0.0,0.0,0.0,0.0,0.0,0.0,0.0,0.0,0.0,0.0,0.0,0.0,0.0,0.0,0.0,0.0,0.0,0.0,0.0,0.0,0.0,0.0,0.0,0.0,0.0,0.0,0.0,0.0,0.0,0.0,0.0,0.0,0.0,0.0,0.0,0.0,0.0,0.0,0.0,0.0,0.0,0.0,0.0,0.0,0.0,0.0,0.0,0.0,0.0,0.0,0.0,0.0,0.0,0.0,0.0,0.0,0.0,0.0,0.0,-1.1488,-1.1922,-1.2474,-1.2568,-1.2124,-1.2221,-1.2119,0.0,0.0,0.0,0.0,0.0,0.0,0.0,0.0,0.0,0.0,0.0,0.0,0.0,0.0,0.0,0.0,0.0,0.0,0.0,0.0,0.0,0.0,0.0,0.0,0.0,0.0,0.0,0.0,0.0,0.0,0.0,0.0,0.0,0.0,0.0,0.0,0.0,0.0,0.0,0.0,0.0,0.0,0.0,0.0,0.0,0.0,0.0,0.0,0.0,0.0,0.0,0.0,0.0,0.0,0.0,0.0,0.0,0.0,0.0,0.0,0.0,0.0,0.0,0.0,0.0,0.0,0.0,0.0,0.0,0.0,0.0,0.0,0.0,0.0,0.0,0.0,0.0,0.0,0.0,0.0,0.0,0.0,0.0,0.0,0.0,0.0,0.0,0.0,0.0,0.0,0.0,0.0,0.0,0.0,0.0,0.0,0.0,0.0,0.0,0.0,0.0,0.0,0.0,0.0,0.0,0.0,0.0,0.0,0.0,-1.2817,-1.3021,-1.3114,-1.3092,-1.2845,-1.2685,0.0,0.0,0.0,0.0,0.0,0.0,0.0,0.0,0.0,0.0,0.0,0.0,0.0,0.0,0.0,0.0,0.0,0.0,0.0,0.0,0.0,0.0,0.0,0.0,0.0,0.0,0.0,0.0,0.0,0.0,0.0,0.0,0.0,0.0,0.0,0.0,0.0,0.0,0.0,0.0,0.0,0.0,0.0,0.0,0.0,0.0,0.0,0.0,0.0,0.0,0.0,0.0,0.0,0.0,0.0,0.0,0.0,0.0,0.0,0.0,0.0,0.0,0.0,0.0,0.0,0.0,0.0,0.0,0.0,0.0,0.0,0.0,0.0,0.0,0.0,0.0,0.0,0.0,0.0,0.0,0.0,0.0,0.0,0.0,0.0,0.0,0.0,0.0,0.0,0.0,0.0,0.0,0.0,0.0,0.0,0.0,0.0,0.0,0.0,0.0,0.0,0.0,0.0,0.0,0.0,0.0,0.0,0.0,0.0,-1.4652,-1.4458,-1.4307,-1.4198,-1.3766,-1.3407,-1.3012,0.0,0.0,0.0,0.0,0.0,0.0,0.0,0.0,0.0,0.0,0.0,0.0,0.0,0.0,0.0,0.0,0.0,0.0,0.0,0.0,0.0,0.0,0.0,0.0,0.0,0.0,0.0,0.0,0.0,0.0,0.0,0.0,0.0,0.0,0.0,0.0,0.0,0.0,0.0,0.0,0.0,0.0,0.0,0.0,0.0,0.0,0.0,0.0,0.0,0.0,0.0,0.0,0.0,0.0,0.0,0.0,0.0,0.0,0.0,0.0,0.0,0.0,0.0,0.0,0.0,0.0,0.0,0.0,0.0,0.0,0.0,0.0,0.0,0.0,0.0,0.0,0.0,0.0,0.0,0.0,0.0,0.0,0.0,0.0,0.0,0.0,0.0,0.0,0.0,0.0,0.0,0.0,0.0,0.0,0.0,0.0,0.0,0.0,0.0,0.0,0.0,0.0,0.0,0.0,0.0,0.0,0.0,0.0,-1.7178,-1.6561,-1.5928,-1.5357,-1.4987,-1.4311,0.0,0.0,0.0,0.0,0.0,0.0,0.0,0.0,0.0,0.0,0.0,0.0,0.0,0.0,0.0,0.0,0.0,0.0,0.0,0.0,0.0,0.0,0.0,0.0,0.0,0.0,0.0,0.0,0.0,0.0,0.0,0.0,0.0,0.0,0.0,0.0,0.0,0.0,0.0,0.0,0.0,0.0,0.0,0.0,0.0,0.0,0.0,0.0,0.0,0.0,0.0,0.0,0.0,0.0,0.0,0.0,0.0,0.0,0.0,0.0,0.0,0.0,0.0,0.0,0.0,0.0,0.0,0.0,0.0,0.0,0.0,0.0,0.0,0.0,0.0,0.0,0.0,0.0,0.0,0.0,0.0,0.0,0.0,0.0,0.0,0.0,0.0,0.0,0.0,0.0,0.0,0.0,0.0,0.0,0.0,0.0,0.0,0.0,0.0,0.0,0.0,0.0,0.0,0.0,0.0,0.0,0.0,0.0,0.0,-1.8177,-1.7956,-1.7291,-1.6149,-1.5796,-1.535,0.0,0.0,0.0,0.0,0.0,0.0,0.0,0.0,0.0,0.0,0.0,0.0,0.0,0.0,0.0,0.0,0.0,0.0,0.0,0.0,0.0,0.0,0.0,0.0,0.0,0.0,0.0,0.0,0.0,0.0,0.0,0.0,0.0,0.0,0.0,0.0,0.0,0.0,0.0,0.0,0.0,0.0,0.0,0.0,0.0,0.0,0.0,0.0,0.0,0.0,0.0,0.0,0.0,0.0,0.0,0.0,0.0,0.0,0.0,0.0,0.0,0.0,0.0,0.0,0.0,0.0,0.0,0.0,0.0,0.0,0.0,0.0,0.0,0.0,0.0,0.0,0.0,0.0,0.0,0.0,0.0,0.0,0.0,0.0,0.0,0.0,0.0,0.0,0.0,0.0,0.0,0.0,0.0,0.0,0.0,0.0,0.0,0.0,0.0,0.0,0.0,0.0,0.0,0.0,0.0,0.0,0.0,0.0,-1.7921,-1.8878,-1.889,-1.8335,-1.734,-1.673,-1.6186,0.0,0.0,0.0,0.0,0.0,0.0,0.0,0.0,0.0,0.0,0.0,0.0,0.0,0.0,0.0,0.0,0.0,0.0,0.0,0.0,0.0,0.0,0.0,0.0,0.0,0.0,0.0,0.0,0.0,0.0,0.0,0.0,0.0,0.0,0.0,0.0,0.0,0.0,0.0,0.0,0.0,0.0,0.0,0.0,0.0,0.0,0.0,0.0,0.0,0.0,0.0,0.0,0.0,0.0,0.0,0.0,0.0,0.0,0.0,0.0,0.0,0.0,0.0,0.0,0.0,0.0,0.0,0.0,0.0,0.0,0.0,0.0,0.0,0.0,0.0,0.0,0.0,0.0,0.0,0.0,0.0,0.0,0.0,0.0,0.0,0.0,0.0,0.0,0.0,0.0,0.0,0.0,0.0,0.0,0.0,0.0,0.0,0.0,0.0,0.0,0.0,0.0,0.0,0.0,0.0,0.0,0.0,0.0,-1.8388,-1.9384,-1.942,-1.9187,-1.8746,-1.77,-1.6888,0.0,0.0,0.0,0.0,0.0,0.0,0.0,0.0,0.0,0.0,0.0,0.0,0.0,0.0,0.0,0.0,0.0,0.0,0.0,0.0,0.0,0.0,0.0,0.0,0.0,0.0,0.0,0.0,0.0,0.0,0.0,0.0,0.0,0.0,0.0,0.0,0.0,0.0,0.0,0.0,0.0,0.0,0.0,0.0,0.0,0.0,0.0,0.0,0.0,0.0,0.0,0.0,0.0,0.0,0.0,0.0,0.0,0.0,0.0,0.0,0.0,0.0,0.0,0.0,0.0,0.0,0.0,0.0,0.0,0.0,0.0,0.0,0.0,0.0,0.0,0.0,0.0,0.0,0.0,0.0,0.0,0.0,0.0,0.0,0.0,0.0,0.0,0.0,0.0,0.0,0.0,0.0,0.0,0.0,0.0,0.0,0.0,0.0,0.0,0.0,0.0,0.0,0.0,0.0,0.0,0.0,0.0,0.0,-1.8845,-1.9683,-1.9604,-1.9554,-1.9545,-1.8797,-1.7954,0.0,0.0,0.0,0.0,0.0,0.0,0.0,0.0,0.0,0.0,0.0,0.0,0.0,0.0,0.0,0.0,0.0,0.0,0.0,0.0,0.0,0.0,0.0,0.0,0.0,0.0,0.0,0.0,0.0,0.0,0.0,0.0,0.0,0.0,0.0,0.0,0.0,0.0,0.0,0.0,0.0,0.0,0.0,0.0,0.0,0.0,0.0,0.0,-1.9529,0.0,0.0,0.0,0.0,0.0,0.0,0.0,0.0,0.0,0.0,0.0,0.0,0.0,0.0,0.0,0.0,0.0,0.0,0.0,0.0,0.0,0.0,0.0,0.0,0.0,0.0,0.0,0.0,0.0,0.0,0.0,0.0,0.0,0.0,0.0,0.0,0.0,0.0,0.0,0.0,0.0,0.0,0.0,0.0,0.0,0.0,0.0,0.0,0.0,0.0,0.0,0.0,0.0,0.0,0.0,0.0,0.0,0.0,0.0,-1.912,-1.9773,-1.9759,-1.9759,-1.9798,-1.9471,-1.8771,0.0,0.0,0.0,0.0,0.0,0.0,0.0,0.0,0.0,0.0,0.0,0.0,0.0,0.0,0.0,0.0,0.0,0.0,0.0,0.0,0.0,0.0,0.0,0.0,0.0,0.0,0.0,0.0,0.0,0.0,0.0,0.0,0.0,0.0,0.0,0.0,0.0,0.0,0.0,0.0,0.0,0.0,0.0,0.0,0.0,0.0,0.0,0.0,0.0,0.0,0.0,0.0,0.0,0.0,0.0,0.0,0.0,0.0,0.0,0.0,0.0,0.0,0.0,0.0,0.0,0.0,0.0,0.0,0.0,0.0,0.0,0.0,0.0,0.0,0.0,0.0,0.0,0.0,0.0,0.0,0.0,0.0,0.0,0.0,0.0,0.0,0.0,0.0,0.0,0.0,0.0,0.0,0.0,0.0,0.0,0.0,0.0,0.0,0.0,0.0,0.0,0.0,0.0,0.0,0.0,0.0,0.0,-1.877,-1.9359,-1.9773,-1.9798,-1.9798,-1.9798,-1.9798,-1.9296,-1.8216,0.0,0.0,0.0,0.0,0.0,0.0,0.0,0.0,0.0,0.0,0.0,0.0,0.0,0.0,0.0,0.0,0.0,0.0,0.0,0.0,0.0,0.0,0.0,0.0,0.0,0.0,0.0,0.0,0.0,0.0,0.0,0.0,0.0,0.0,0.0,0.0,0.0,0.0,-1.7719,-1.8636,0.0,0.0,0.0,0.0,0.0,0.0,0.0,0.0,-2.0424,0.0,0.0,0.0,0.0,0.0,0.0,0.0,0.0,0.0,0.0,0.0,0.0,0.0,0.0,0.0,0.0,0.0,0.0,0.0,0.0,0.0,0.0,0.0,0.0,0.0,0.0,0.0,0.0,0.0,0.0,0.0,0.0,0.0,0.0,0.0,0.0,0.0,0.0,0.0,0.0,0.0,0.0,0.0,0.0,0.0,0.0,0.0,0.0,0.0,0.0,0.0,0.0,0.0,0.0,0.0,0.0,-1.8144,-1.9171,-1.9723,-1.9798,-1.9798,-1.9798,-1.9798,-1.9798,-1.9296,-1.8229,0.0,0.0,0.0,0.0,0.0,0.0,0.0,0.0,0.0,0.0,0.0,0.0,0.0,0.0,0.0,0.0,0.0,0.0,0.0,0.0,0.0,0.0,0.0,0.0,0.0,0.0,0.0,0.0,0.0,0.0,0.0,0.0,0.0,0.0,0.0,0.0,0.0,0.0,0.0,-1.9925,-2.0865,0.0,0.0,0.0,0.0,0.0,0.0,0.0,0.0,-2.2141,0.0,0.0,0.0,0.0,0.0,0.0,0.0,0.0,0.0,0.0,0.0,0.0,0.0,0.0,0.0,0.0,0.0,0.0,0.0,0.0,0.0,0.0,0.0,0.0,0.0,0.0,0.0,0.0,0.0,0.0,0.0,0.0,0.0,0.0,0.0,0.0,0.0,0.0,0.0,0.0,0.0,0.0,0.0,0.0,0.0,0.0,0.0,0.0,0.0,0.0,0.0,0.0,0.0,0.0,0.0,-1.8191,-1.9271,-1.9798,-1.9798,-1.9798,-1.9798,-1.9798,-1.9798,-1.9296,0.0,0.0,0.0,0.0,0.0,0.0,0.0,0.0,0.0,0.0,0.0,0.0,0.0,0.0,0.0,0.0,0.0,0.0,0.0,0.0,0.0,0.0,0.0,0.0,0.0,0.0,0.0,0.0,0.0,0.0,0.0,0.0,0.0,0.0,0.0,0.0,0.0,0.0,0.0,0.0,-2.1295,-2.2023,-2.2813,0.0,0.0,0.0,0.0,0.0,0.0,-2.3663,-2.3562,0.0,0.0,0.0,0.0,0.0,0.0,0.0,0.0,0.0,0.0,0.0,0.0,0.0,0.0,0.0,0.0,0.0,0.0,0.0,0.0,0.0,0.0,0.0,0.0,0.0,0.0,0.0,0.0,0.0,0.0,0.0,0.0,0.0,0.0,0.0,0.0,0.0,0.0,0.0,0.0,0.0,0.0,0.0,0.0,0.0,0.0,0.0,0.0,0.0,0.0,0.0,0.0,0.0,0.0,0.0,-1.8191,-1.9258,-1.9798,-1.9798,-1.9798,-1.9798,-1.9798,-1.9698,-1.9196,0.0,0.0,0.0,0.0,0.0,0.0,0.0,0.0,0.0,0.0,0.0,0.0,0.0,0.0,0.0,0.0,0.0,0.0,0.0,0.0,0.0,0.0,0.0,0.0,0.0,0.0,0.0,0.0,0.0,0.0,0.0,0.0,0.0,0.0,0.0,0.0,0.0,0.0,0.0,0.0,0.0,-2.3004,-2.432,-2.4523,0.0,0.0,0.0,0.0,-2.4726,-2.4577,0.0,0.0,0.0,0.0,0.0,0.0,0.0,0.0,0.0,0.0,0.0,0.0,0.0,0.0,0.0,0.0,0.0,0.0,0.0,0.0,0.0,0.0,0.0,0.0,0.0,0.0,0.0,0.0,0.0,0.0,0.0,0.0,0.0,0.0,0.0,0.0,0.0,0.0,0.0,0.0,0.0,0.0,0.0,0.0,0.0,0.0,0.0,0.0,0.0,0.0,0.0,0.0,0.0,0.0,0.0,0.0,-1.8216,-1.9271,-1.9798,-1.9798,-1.9798,-1.9798,-1.9798,-1.9359,-1.8832,0.0,0.0,0.0,0.0,0.0,0.0,0.0,0.0,0.0,0.0,0.0,0.0,0.0,0.0,0.0,0.0,0.0,0.0,0.0,0.0,0.0,0.0,0.0,0.0,0.0,0.0,0.0,0.0,0.0,0.0,0.0,0.0,0.0,0.0,0.0,0.0,0.0,0.0,0.0,0.0,0.0,-2.3562,-2.4404,-2.4523,-2.4523,0.0,0.0,-2.4729,-2.5372,-2.4915,0.0,0.0,0.0,0.0,0.0,0.0,0.0,0.0,0.0,0.0,0.0,0.0,0.0,0.0,0.0,0.0,0.0,0.0,0.0,0.0,0.0,0.0,0.0,0.0,0.0,0.0,0.0,0.0,0.0,0.0,0.0,0.0,0.0,0.0,0.0,0.0,0.0,0.0,0.0,0.0,0.0,0.0,0.0,0.0,0.0,0.0,0.0,0.0,0.0,0.0,0.0,0.0,0.0,0.0,0.0,-1.7652,-1.8216,-1.9258,-1.9798,-1.9798,-1.9798,-1.9798,-1.9798,-1.9309,-1.8769,0.0,0.0,0.0,0.0,0.0,0.0,0.0,0.0,0.0,0.0,0.0,0.0,0.0,0.0,0.0,0.0,0.0,0.0,0.0,0.0,0.0,0.0,0.0,0.0,0.0,0.0,0.0,0.0,0.0,0.0,0.0,0.0,0.0,0.0,0.0,0.0,0.0,0.0,0.0,0.0,0.0,0.0,-2.6201,-2.6387,0.0,0.0,0.0,-2.7148,-2.7469,0.0,0.0,0.0,0.0,0.0,0.0,0.0,0.0,0.0,0.0,0.0,0.0,0.0,0.0,0.0,0.0,0.0,0.0,0.0,0.0,0.0,0.0,0.0,0.0,0.0,0.0,0.0,0.0,0.0,0.0,0.0,0.0,0.0,0.0,0.0,0.0,0.0,0.0,0.0,0.0,0.0,0.0,0.0,0.0,0.0,0.0,0.0,0.0,0.0,0.0,0.0,0.0,0.0,0.0,0.0,0.0,0.0,-1.8216,-1.9258,-1.9798,-1.9798,-1.9798,-1.9798,-1.9786,-1.9171,0.0,0.0,0.0,0.0,0.0,0.0,0.0,0.0,0.0,0.0,0.0,0.0,0.0,0.0,0.0,0.0,0.0,0.0,0.0,0.0,0.0,0.0,0.0,0.0,0.0,0.0,0.0,-1.17,0.0,0.0,0.0,0.0,0.0,0.0,0.0,0.0,0.0,0.0,0.0,0.0,0.0,0.0,-2.6387,-2.7874,-2.8112,-2.8315,0.0,0.0,-2.9011,-2.9011,-2.8484,-2.8112,0.0,0.0,0.0,0.0,0.0,0.0,0.0,0.0,0.0,0.0,0.0,0.0,0.0,0.0,0.0,0.0,0.0,0.0,0.0,0.0,0.0,0.0,0.0,0.0,0.0,0.0,0.0,0.0,0.0,0.0,0.0,0.0,0.0,0.0,0.0,0.0,0.0,0.0,0.0,0.0,0.0,0.0,0.0,0.0,0.0,0.0,0.0,0.0,0.0,0.0,0.0,0.0,0.0,0.0,0.0,-1.8242,-1.9258,-1.9798,-1.9798,-1.9798,-1.9798,-1.9786,-1.8794,-1.8254,0.0,0.0,0.0,0.0,0.0,0.0,0.0,0.0,0.0,0.0,0.0,0.0,0.0,0.0,0.0,0.0,0.0,0.0,0.0,0.0,0.0,0.0,0.0,0.0,0.0,0.0,0.0,0.0,0.0,0.0,0.0,0.0,0.0,0.0,0.0,0.0,0.0,0.0,0.0,0.0,0.0,-2.7112,-2.8687,-2.8907,-2.896,0.0,0.0,-2.9011,-2.8975,-2.8977,-2.8907,-2.8907,0.0,0.0,0.0,0.0,0.0,0.0,0.0,0.0,0.0,0.0,0.0,0.0,0.0,0.0,0.0,0.0,0.0,0.0,0.0,0.0,0.0,0.0,0.0,0.0,0.0,0.0,0.0,0.0,0.0,0.0,0.0,0.0,0.0,0.0,0.0,0.0,0.0,0.0,0.0,0.0,0.0,0.0,0.0,0.0,0.0,0.0,0.0,0.0,0.0,0.0,0.0,0.0,0.0,-1.8204,-1.8216,-1.9246,-1.9798,-1.9798,-1.9798,-1.9798,-1.9798,-1.9095,-1.8555,0.0,0.0,0.0,0.0,0.0,0.0,0.0,0.0,0.0,0.0,0.0,0.0,0.0,0.0,0.0,0.0,0.0,0.0,0.0,0.0,0.0,0.0,0.0,0.0,0.0,0.0,0.0,0.0,-1.4509,-1.5206,-1.6133,0.0,0.0,0.0,0.0,0.0,0.0,0.0,0.0,0.0,0.0,-2.7853,-2.9465,-2.9668,0.0,0.0,-3.0345,-3.0345,-3.0345,-2.9973,-2.9685,-2.9668,-2.9042,0.0,0.0,0.0,0.0,0.0,0.0,0.0,0.0,0.0,0.0,0.0,0.0,0.0,0.0,0.0,0.0,0.0,0.0,0.0,0.0,0.0,0.0,0.0,0.0,0.0,0.0,0.0,0.0,0.0,0.0,0.0,0.0,0.0,0.0,0.0,0.0,0.0,0.0,0.0,0.0,0.0,0.0,0.0,0.0,0.0,0.0,0.0,0.0,0.0,0.0,0.0,0.0,-1.8292,-1.8455,-1.9334,-1.9798,-1.9798,-1.9798,-1.9798,-1.9786,-1.9296,-1.8769,0.0,0.0,0.0,0.0,0.0,0.0,0.0,0.0,0.0,0.0,0.0,0.0,0.0,0.0,0.0,0.0,0.0,0.0,0.0,0.0,0.0,0.0,0.0,0.0,0.0,0.0,0.0,0.0,-1.5169,-1.5839,-1.6908,0.0,0.0,0.0,0.0,0.0,0.0,0.0,0.0,0.0,0.0,-2.9147,-3.0487,-3.092,-3.128,-3.1782,-3.1873,-3.1856,-3.185,-3.1427,-3.1021,-3.0801,0.0,0.0,0.0,0.0,0.0,0.0,0.0,0.0,0.0,0.0,0.0,0.0,0.0,0.0,0.0,0.0,0.0,0.0,0.0,0.0,0.0,0.0,0.0,0.0,0.0,0.0,0.0,0.0,0.0,0.0,0.0,0.0,0.0,0.0,0.0,0.0,0.0,0.0,0.0,0.0,0.0,0.0,0.0,0.0,0.0,0.0,0.0,0.0,0.0,0.0,0.0,0.0,0.0,-1.848,-1.8945,-1.9535,-1.9811,-1.9811,-1.9798,-1.9823,-1.9798,-1.9309,-1.8769,-1.8204,0.0,0.0,0.0,0.0,0.0,0.0,0.0,0.0,0.0,0.0,0.0,0.0,0.0,0.0,0.0,0.0,0.0,0.0,0.0,0.0,0.0,0.0,0.0,0.0,0.0,0.0,-1.4767,-1.6036,-1.6864,0.0,0.0,0.0,0.0,0.0,0.0,0.0,0.0,0.0,0.0,-2.9354,-3.1137,-3.1924,-3.2805,-3.326,-3.3288,-3.332,-3.3328,-3.3288,-3.3305,-3.3085,0.0,0.0,0.0,0.0,0.0,0.0,0.0,0.0,0.0,0.0,0.0,0.0,0.0,0.0,0.0,0.0,0.0,0.0,0.0,0.0,0.0,0.0,0.0,0.0,0.0,0.0,0.0,-1.3984,-1.3691,0.0,0.0,0.0,0.0,0.0,0.0,0.0,0.0,0.0,0.0,0.0,-1.9793,-1.9903,0.0,0.0,0.0,0.0,0.0,0.0,0.0,0.0,0.0,0.0,0.0,0.0,-1.8844,-1.9058,-1.9924,-2.0376,-2.0376,-2.0376,-2.0376,-2.0416,-1.9836,-1.8957,-1.7702,0.0,0.0,0.0,0.0,0.0,0.0,0.0,0.0,0.0,0.0,0.0,0.0,0.0,0.0,0.0,0.0,0.0,0.0,0.0,0.0,0.0,0.0,0.0,0.0,0.0,-1.4902,0.0,0.0,0.0,0.0,0.0,0.0,0.0,0.0,0.0,0.0,0.0,-2.6738,-2.9231,-3.0306,-3.1388,-3.2765,-3.3203,-3.3397,0.0,0.0,0.0,0.0,0.0,0.0,0.0,0.0,0.0,0.0,0.0,0.0,0.0,0.0,-3.0403,-2.8499,-2.832,-2.8564,-2.8816,0.0,0.0,0.0,0.0,0.0,0.0,0.0,0.0,0.0,0.0,0.0,0.0,0.0,0.0,0.0,0.0,-1.459,0.0,0.0,0.0,0.0,0.0,0.0,0.0,0.0,-2.0041,-2.0414,-2.1095,-2.1223,-2.1043,0.0,-2.0989,-2.0295,0.0,0.0,0.0,0.0,0.0,0.0,0.0,0.0,-1.9397,-1.9623,-2.0489,-2.1008,-2.0953,-2.1008,-2.092,-2.0718,-1.9924,-1.8957,-1.7702,-1.6584,-1.5404,0.0,0.0,0.0,0.0,0.0,0.0,0.0,0.0,0.0,0.0,0.0,0.0,0.0,0.0,0.0,0.0,0.0,0.0,0.0,0.0,0.0,0.0,0.0,-1.586,0.0,0.0,0.0,0.0,0.0,0.0,0.0,0.0,0.0,-2.5187,-2.638,-2.8069,-3.0237,-3.14,-3.2446,-3.3532,0.0,0.0,0.0,0.0,0.0,0.0,0.0,-3.4489,-3.4218,-3.3964,-3.3711,-3.3457,-3.3448,-3.3379,-3.2927,0.0,0.0,-3.0697,-3.0576,-3.081,-3.1069,-3.1484,-3.1876,-3.2195,-3.2555,-3.2848,0.0,0.0,0.0,0.0,0.0,0.0,0.0,0.0,-1.6714,-1.6704,0.0,-1.6299,0.0,0.0,0.0,0.0,0.0,0.0,0.0,0.0,-2.1029,-2.1204,-2.1691,-2.2024,-2.1902,-2.1487,-2.2101,-2.2096,-2.1443,-1.9924,0.0,0.0,0.0,0.0,0.0,0.0,-2.0125,-2.0731,-2.123,-2.1518,-2.1518,-2.1518,-2.1242,-2.0718,-1.961,-1.8769,-1.8204,-1.7137,-1.6283,-1.5693,-1.4125,0.0,0.0,0.0,0.0,0.0,0.0,0.0,0.0,0.0,0.0,0.0,0.0,0.0,0.0,0.0,0.0,0.0,0.0,0.0,0.0,-1.601,0.0,0.0,0.0,0.0,0.0,0.0,0.0,0.0,0.0,0.0,-2.5384,-2.7907,-3.0038,-3.032,0.0,0.0,0.0,0.0,-3.5943,-3.6688,-3.681,-3.7064,-3.7753,-3.7246,-3.6535,-3.5808,0.0,0.0,-3.366,-3.3508,-3.3525,-3.3474,-3.37,-3.3368,-3.2228,-3.2121,-3.2249,-3.2544,-3.3293,-3.4124,-3.455,-3.5017,-3.5684,-1.8672,0.0,0.0,0.0,0.0,-1.7969,-1.792,-1.7666,-1.7969,-1.793,-1.7637,-1.7642,0.0,0.0,0.0,0.0,0.0,0.0,-2.2138,-2.2858,-2.2983,-2.325,-2.3536,-2.3802,-2.3841,-2.3829,-2.3954,-2.3602,-2.2673,-2.2138,-2.1481,-2.0564,0.0,0.0,0.0,0.0,-2.1091,-2.128,-2.1807,-2.2083,-2.2083,-2.2071,-2.1631,-2.0743,-1.9597,-1.872,-1.8216,-1.7513,-1.6685,-1.5731,-1.4864,0.0,0.0,0.0,0.0,0.0,0.0,0.0,0.0,0.0,0.0,0.0,0.0,0.0,0.0,0.0,0.0,0.0,0.0,0.0,-1.6772,-1.764,-1.8403,0.0,0.0,0.0,0.0,0.0,0.0,0.0,0.0,0.0,-2.8311,-2.9587,-3.1021,0.0,0.0,-3.5249,-3.5971,-3.6726,-3.733,-3.755,0.0,0.0,0.0,-3.7736,-3.7516,-3.7297,-3.6637,-3.6045,-3.5842,-3.5351,-3.4979,-3.5084,-3.5241,-3.5215,-3.4971,-3.4246,-3.3907,-3.4093,-3.4499,-3.49,-3.5184,-3.5525,-3.581,-2.0234,-1.9863,-1.918,-1.875,-1.8545,-1.8779,-1.875,-1.8535,-1.8789,-1.874,-1.8516,-1.8725,-1.8854,-1.8993,-1.9682,0.0,0.0,0.0,-2.3053,-2.3482,-2.3959,-2.4222,-2.4288,-2.4561,-2.4703,-2.482,-2.4833,-2.4469,-2.3741,-2.3803,-2.3477,-2.2774,0.0,0.0,-2.1493,-2.1707,-2.1807,-2.1832,-2.2359,-2.2648,-2.2636,-2.2209,-2.1669,-2.1004,-1.9924,-1.9083,-1.8555,-1.799,-1.7287,-1.6396,-1.5618,-1.4828,0.0,0.0,0.0,0.0,0.0,0.0,0.0,0.0,0.0,0.0,0.0,-1.3944,-1.437,0.0,0.0,0.0,-1.6308,-1.7371,-1.8418,-1.9331,0.0,0.0,0.0,0.0,0.0,0.0,0.0,-2.7015,-2.8495,-2.9684,-3.0293,-3.1378,-3.2546,-3.3728,-3.4866,-3.5947,-3.6922,0.0,-3.7959,-3.8294,-3.8345,-3.8447,-3.8717,-3.8514,-3.8244,-3.7956,-3.755,-3.7229,-3.7212,-3.6823,-3.6552,-3.6627,-3.6746,-3.6908,-3.697,-3.6515,-3.5993,-3.5668,-3.5807,-3.6061,-3.6272,-3.6476,-3.6624,-2.148,-2.1748,-2.0166,-1.9502,-1.9492,-1.9502,-1.9502,-1.9492,-1.9502,-1.9492,-1.9492,-1.9713,-1.9829,-1.9935,-2.0963,0.0,0.0,-2.3119,-2.3506,-2.3732,-2.428,-2.4534,-2.4484,-2.4825,-2.4996,-2.4958,-2.4958,-2.4921,-2.4883,-2.487,-2.4858,-2.477,-2.2774,-2.1732,-2.1719,-2.2196,-2.2422,-2.2385,-2.2874,-2.3125,-2.3053,-2.2096,-2.1531,-2.1481,-2.0439,-1.9597,-1.9045,-1.8493,-1.7953,-1.7375,-1.6308,-1.5495,-1.5056,0.0,0.0,0.0,0.0,0.0,0.0,0.0,0.0,0.0,0.0,0.0,0.0,0.0,0.0,0.0,-1.8448,0.0,-1.9854,-2.1081,0.0,0.0,0.0,-2.4866,-2.4806,-2.6557,-2.779,-2.785,0.0,0.0,0.0,0.0,-3.4367,-3.4475,-3.5432,-3.6505,-3.7435,-3.775,-3.8166,-3.8939,-3.9073,-3.9309,-3.9817,-3.9462,-3.8886,-3.8328,-3.8041,-3.799,-3.799,-3.7872,-3.7872,-3.7821,-3.8027,-3.8179,-3.8196,-3.8332,-3.8417,-3.7167,-3.7242,-3.7512,-3.7718,-3.7972,-3.8131,-2.1748,-2.1855,-2.1445,-2.1269,-2.1269,-2.1269,-2.126,-2.1269,-2.126,-2.1269,-2.126,-2.165,-2.1934,-2.2289,-2.2519,-2.308,-2.3954,-2.4699,-2.5213,-2.5713,-2.6384,-2.6537,-2.6144,-2.6552,-2.649,-2.6088,-2.6076,-2.585,-2.5435,-2.541,-2.5209,-2.4808,-2.428,-2.3816,-2.3414,-2.354,-2.3376,-2.2937,-2.3015,-2.3125,-2.3113,-2.2472,-2.192,-2.1493,-2.0828,-1.9999,-1.9058,-1.8493,-1.7953,-1.7388,-1.6308,-1.5643,-1.5532,-1.4967,0.0,0.0,0.0,0.0,0.0,0.0,0.0,0.0,0.0,-1.6446,-1.6996,0.0,-1.7891,0.0,-1.954,-2.0707,-2.1844,-2.2682,0.0,0.0,-2.5779,-2.6871,-2.6886,-2.8188,-2.928,-2.9759,-3.0513,-3.143,-3.2645,-3.355,-3.4707,-3.6075,-3.6926,-3.763,-3.8069,-3.8858,-3.943,-3.9615,-3.975,-3.9884,-4.002,-3.9952,-3.9732,-3.958,-3.9106,-3.8734,-3.8734,-3.8261,-3.7922,-3.7905,-3.7997,-3.8057,-3.8201,-3.8476,-3.8632,-3.8512,-3.8684,-3.8992,-3.9266,-3.9494,-3.9679,-2.2227,-2.2441,-2.2451,-2.2441,-2.2422,-2.2051,-2.1894,-2.1894,-2.1894,-2.1894,-2.1958,-2.2287,-2.2787,-2.3413,-2.3457,-2.3941,-2.4734,-2.5431,-2.596,-2.6294,-2.7061,-2.7287,-2.7078,-2.7369,-2.7423,-2.718,-2.6942,-2.6666,-2.6352,-2.6113,-2.5837,-2.5561,-2.5548,-2.5272,-2.4732,-2.4481,-2.4092,-2.3527,-2.3263,-2.3125,-2.3053,-2.2585,-2.2046,-2.1506,-2.0953,-2.015,-1.9021,-1.8493,-1.7953,-1.7446,-1.6534,-1.5957,-1.5706,-1.5484,-1.5171,0.0,0.0,0.0,0.0,0.0,0.0,0.0,0.0,0.0,0.0,0.0,-1.9765,0.0,-2.141,0.0,-2.3445,-2.4373,-2.5211,-2.5884,-2.7186,-2.8143,-2.8427,-2.937,-3.0238,-3.0896,-3.1524,-3.2327,-3.3505,-3.4441,-3.5351,-3.6556,-3.7455,-3.8182,-3.8695,-3.927,-3.9694,-3.9901,-3.9935,-4.0037,-4.0087,-4.0087,-4.0087,-4.0054,-3.9749,-3.9462,-3.9478,-3.9157,-3.887,-3.887,-3.895,-3.9013,-3.9143,-3.9333,-3.9583,-3.9794,-4.0088,-4.0127,-3.982,-3.9896,-4.0143,-2.2782,-2.3213,-2.3164,-2.3144,-2.3076,-2.2353,-2.2051,-2.2051,-2.2051,-2.2124,-2.2207,-2.2479,-2.3012,-2.3833,-2.4009,-2.4486,-2.5172,-2.5773,-2.6193,-2.6494,-2.7103,-2.7456,-2.7631,-2.7792,-2.7977,-2.8084,-2.762,-2.7394,-2.7381,-2.6829,-2.6565,-2.6622,-2.6546,-2.6214,-2.5711,-2.5259,-2.4732,-2.4104,-2.3602,-2.3326,-2.3178,-2.2774,-2.2221,-2.1606,-2.1066,-2.0288,-1.9284,-1.8631,-1.8078,-1.7614,-1.7036,-1.6509,-1.6045,-1.6048,-1.5916,0.0,-1.5737,0.0,0.0,0.0,0.0,0.0,0.0,0.0,0.0,-2.1357,-2.2218,-2.2877,-2.349,-2.4178,-2.4941,-2.6033,-2.7006,-2.7805,-2.8442,-2.9071,-2.9654,-3.0328,-3.0986,-3.1541,-3.2521,-3.3421,-3.4195,-3.5316,-3.6044,-3.6553,-3.7387,-3.8278,-3.8969,-3.9255,-3.9484,-3.9849,-3.9884,-3.9986,-4.0087,-4.0087,-4.0087,-4.0087,-4.0054,-4.0087,-4.0037,-4.002,-4.0037,-4.0087,-4.0086,-4.017,-4.0288,-4.0451,-4.071,-4.0767,-4.1013,-4.099,-4.0253,-4.0202,-4.0256,-2.3204,-2.3633,-2.3291,-2.3144,-2.3125,-2.2969,-2.29,-2.29,-2.291,-2.3073,-2.3398,-2.3133,-2.3494,-2.4124,-2.4068,-2.4592,-2.5425,-2.6052,-2.6757,-2.7599,-2.8052,-2.8215,-2.8184,-2.8387,-2.8301,-2.8109,-2.7996,-2.7946,-2.7946,-2.7394,-2.713,-2.7118,-2.6678,-2.6471,0.0,0.0,0.0,0.0,-2.4556,-2.428,-2.3853,-2.374,-2.3201,-2.2184,-2.1619,0.0,-2.0363,-1.9397,-1.8783,-1.8706,-1.8179,0.0,0.0,0.0,0.0,0.0,0.0,0.0,0.0,0.0,0.0,0.0,-2.129,-2.1556,-2.0988,-2.2285,-2.3463,-2.4149,-2.4852,-2.5719,-2.6886,-2.7215,-2.7925,-2.9056,-2.9774,-3.0193,-3.0357,-3.1405,-3.2198,-3.2317,-3.32,-3.4046,-3.4805,-3.5399,-3.6097,-3.688,-3.7472,-3.7976,-3.8504,-3.9002,-3.9379,-3.9694,-3.9884,-4.0087,-4.0087,-4.0087,-4.0087,-4.0087,-4.0087,-4.0087,-4.0087,-4.0087,-4.0087,-4.0087,-4.0138,-4.0188,-4.0288,-4.0436,-4.0631,-4.084,-4.1088,-4.1258,-4.1349,-4.1618,-4.1922,-2.3635,0.0,-2.3643,-2.3457,0.0,-2.3232,-2.3144,-2.3144,-2.3144,-2.3319,-2.3657,-2.3523,-2.3774,-2.4357,-2.4532,-2.5049,-2.57,-2.6343,-2.6967,-2.7615,-2.8099,-2.8366,-2.8414,-2.8635,-2.8719,-2.875,-2.8487,-2.8424,-2.8486,-2.7971,-2.7544,-2.7281,-2.7005,-2.6798,-2.6533,-2.6521,-2.605,-2.5209,-2.4946,-2.4544,-2.4029,-2.3991,-2.3464,-2.2359,0.0,0.0,0.0,0.0,0.0,0.0,0.0,0.0,0.0,0.0,0.0,-1.8298,-1.8499,-1.8768,-1.9154,-1.9853,-2.0631,-2.1465,-2.2588,-2.3212,-2.3007,-2.3879,-2.4878,-2.5908,-2.6344,-2.7126,-2.8397,-2.8562,-2.8951,-2.9924,-3.0627,-3.112,-3.1524,-3.2377,-3.311,-3.3455,-3.4015,-3.4652,-3.5381,-3.5845,-3.6352,-3.6966,-3.7449,-3.7801,-3.8189,-3.8694,-3.9202,-3.9625,-3.9884,-4.0037,-4.007,-4.0087,-4.0087,-4.0087,-4.0087,-4.0087,-4.0087,-4.0087,-4.0087,-4.0087,-4.0087,-4.0138,-4.0188,-4.0305,-4.0485,-4.068,-4.0901,-4.118,-4.1498,-4.1909,-4.2222,-2.4066,-2.4492,-2.4082,-2.3848,-2.376,-2.3408,-2.3213,-2.3144,0.0,0.0,0.0,-2.3754,-2.4013,-2.4454,-2.4946,-2.538,-2.5895,-2.6479,-2.688,-2.7185,-2.7753,-2.8179,-2.8498,-2.8657,-2.8949,-2.9316,-2.8959,-2.8836,-2.8975,-2.8511,-2.8021,-2.7607,-2.7482,-2.7155,-2.664,-2.6571,-2.6226,-2.5749,-2.5322,-2.4845,-2.4305,-2.4192,-2.3653,-2.2623,-2.241,-2.1656,-2.0313,-2.015,-1.9685,-1.8844,-1.8681,-1.8681,-1.8769,-1.8694,-1.8694,-1.8781,-1.9037,-1.9374,-1.9797,-2.0825,-2.1693,-2.2488,-2.378,-2.4755,-2.5281,-2.5575,-2.6253,-2.7639,-2.7882,-2.8479,-2.9609,-2.9744,-3.0058,-3.0776,-3.136,-3.1958,-3.2617,-3.3275,-3.3873,-3.4445,-3.4721,-3.5148,-3.5852,-3.6196,-3.6616,-3.6938,-3.7345,-3.7801,-3.8173,-3.8639,-3.9148,-3.9625,-3.9833,-3.9952,-4.0087,-4.0087,-4.0087,-4.0087,-4.0087,-4.0087,-4.0087,-4.0087,-4.0087,-4.0087,-4.0087,-4.0087,-4.0121,-4.0238,-4.0337,-4.0485,-4.0728,-4.0965,-4.1335,-4.1666,-4.1987,-2.4517,-2.4951,-2.4512,-2.4121,-2.3789,-2.3721,-2.3486,-2.3144,-2.3144,-2.3232,-2.3503,-2.3754,-2.3927,-2.4292,-2.47,-2.52,-2.5538,-2.5895,-2.6456,0.0,-2.7267,-2.7765,-2.851,-2.851,-2.8736,-2.9118,-2.9266,-2.9307,-2.9322,-2.8912,-2.8762,-2.8637,-2.8222,-2.7708,-2.7168,-2.6703,-2.6483,-2.6339,-2.6264,-2.595,-2.5385,-2.4933,-2.4418,-2.3766,-2.2811,-2.2221,-2.197,-2.1493,-2.1192,-2.1016,-2.0577,-2.0539,-2.0966,-2.0552,-2.0539,-2.1033,-2.1288,-2.1476,-2.154,-2.2193,-2.303,-2.4145,-2.5194,-2.604,-2.6504,-2.6814,-2.755,-2.8847,-2.9143,-2.9579,-3.0268,-3.0402,-3.0881,-3.1988,-3.2302,-3.2647,-3.329,-3.3933,-3.4382,-3.4517,-3.5157,-3.5601,-3.5928,-3.6148,-3.6414,-3.6862,-3.721,-3.7594,-3.8343,-3.8914,-3.9309,-3.9625,-3.9781,-3.9952,-4.0087,-4.0087,-4.0087,-4.0087,-4.0087,-4.0087,-4.0087,-4.0087,-4.0087,-4.0087,-4.0087,-4.0087,-4.0087,-4.0188,-4.0355,-4.0468,-4.068,-4.0965,-4.118,-4.1453,-4.1841,-2.4948,-2.5371,-2.4951,-2.4658,-2.4453,-2.3984,-2.3682,-2.3467,-2.3242,-2.3144,-2.3319,-2.3493,-2.3754,-2.4024,-2.4454,-2.4871,-2.52,-2.5644,-2.6146,-2.6539,-2.6928,-2.7418,-2.7765,-2.8179,-2.8498,-2.8749,-2.8961,-2.9197,-2.9394,-2.9235,-2.9062,-2.8913,-2.8373,-2.7833,-2.7306,-2.703,-2.6766,-2.6533,-2.6521,-2.6176,-2.5611,-2.5372,-2.4845,-2.4029,-2.3477,-2.2924,-2.2334,-2.2071,-2.1794,-2.1506,-2.1255,-2.123,-2.1468,-2.1255,-2.1217,-2.1468,-2.1703,-2.1941,-2.236,-2.3546,-2.4576,-2.5424,-2.6301,-2.7202,-2.8038,-2.8123,-2.8586,-2.9637,-2.9867,-3.0261,-3.0944,-3.139,-3.1854,-3.2437,-3.3125,-3.3679,-3.4038,-3.4637,-3.5026,-3.5055,-3.5344,-3.5653,-3.5831,-3.5958,-3.6226,-3.6693,-3.7089,-3.7743,-3.8375,-3.8805,-3.9185,-3.9625,-3.9729,-3.9884,-4.0087,-4.0087,-4.0087,-4.0087,-4.0087,-4.0087,-4.0087,-4.0087,-4.0087,-4.0087,-4.0087,-4.0087,-4.0087,-4.0138,-4.0238,-4.0337,-4.0534,-4.0776,-4.0995,-4.138,-4.1823,-2.5235,-2.5693,-2.5361,-2.5166,-2.5,-2.4258,-2.3877,-2.376,-2.3428,-2.3232,-2.3144,-2.3416,-2.358,-2.3754,-2.4196,-2.454,-2.4861,-2.538,-2.5728,-2.599,-2.6622,-2.7021,-2.7267,-2.7753,-2.8087,-2.8431,-2.8645,-2.8961,-2.9263,-2.9341,-2.9297,-2.9114,-2.8574,-2.8072,-2.7657,-2.7394,-2.7067,-2.6666,-2.6596,-2.6239,-2.5799,-2.5661,-2.5197,-2.4443,-2.4117,-2.359,-2.2749,-2.2573,-2.2297,-2.1882,-2.1744,-2.1732,-2.1845,-2.1744,-2.1719,-2.1832,-2.2027,-2.2439,-2.3257,-2.4748,-2.5821,-2.6321,-2.7183,-2.8082,-2.8995,-2.9218,-2.9534,-3.0203,-3.0478,-3.0845,-3.1601,-3.2168,-3.2632,-3.2946,-3.3829,-3.4472,-3.4726,-3.519,-3.5489,-3.5489,-3.5489,-3.5539,-3.5703,-3.5894,-3.6178,-3.6616,-3.7285,-3.7876,-3.8262,-3.8583,-3.904,-3.9451,-3.9677,-3.9781,-4.0037,-4.007,-4.007,-4.0087,-4.0087,-4.0087,-4.0087,-4.0087,-4.0087,-4.0087,-4.0087,-4.0087,-4.0087,-4.0087,-4.0188,-4.0305,-4.0436,-4.0614,-4.0948,-4.138,-4.1823,-2.5235,-2.5635,-2.5674,-2.543,-2.5039,-2.457,-2.416,-2.3828,-2.374,-2.3496,-2.3184,-2.3416,-2.3503,-2.359,-2.4034,-2.4378,-2.454,-2.4871,-2.5295,-2.5812,-2.5979,-2.6467,-2.7092,-2.7267,-2.7603,-2.8179,-2.8419,-2.8657,-2.8882,-2.9263,-2.9484,-2.9641,-2.9139,-2.8825,-2.8662,-2.7795,-2.7268,-2.7193,-2.6716,-2.6496,-2.6352,-2.5862,-2.5548,-2.5448,-2.4506,-2.3954,-2.3803,-2.3339,-2.2977,-2.289,-2.2498,-2.246,-2.279,-2.251,-2.246,-2.2924,-2.3106,-2.3658,-2.4619,-2.5659,-2.635,-2.6769,-2.7685,-2.8456,-2.8944,-2.9671,-3.0408,-3.0852,-3.116,-3.1544,-3.2273,-3.2542,-3.3066,-3.4008,-3.4382,-3.4711,-3.5235,-3.5459,-3.5489,-3.5489,-3.5489,-3.5539,-3.5703,-3.5831,-3.6226,-3.6816,-3.7285,-3.7743,-3.8075,-3.8528,-3.886,-3.9255,-3.9537,-3.9729,-3.9884,-4.0037,-4.007,-4.0087,-4.0087,-4.0087,-4.0087,-4.0087,-4.0087,-4.0087,-4.0087,-4.0087,-4.0087,-4.0087,-4.0155,-4.0238,-4.0436,-4.0614,-4.1071,-4.1408,-4.1736,-2.5235,-2.5732,-2.5732,-2.5635,-2.541,-2.499,-2.4707,-2.4512,-2.4004,-2.3691,-2.3496,-2.335,-2.3319,-2.3493,-2.3677,-2.3937,-2.4368,-2.454,-2.4871,-2.5295,-2.5728,-2.6052,-2.6467,-2.7021,-2.7348,-2.7603,-2.8087,-2.8407,-2.8657,-2.9184,-2.9419,-2.9586,-2.9451,-2.9277,-2.8925,-2.8473,-2.7946,-2.7293,-2.7055,-2.6791,-2.6477,-2.6226,-2.5937,-2.5586,-2.5172,-2.4782,-2.4469,-2.3941,-2.364,-2.3615,-2.304,-2.2899,-2.3065,-2.3238,-2.3401,-2.3653,-2.4202,-2.4717,-2.5123,-2.6107,-2.6827,-2.7153,-2.8118,-2.881,-2.9313,-3.0221,-3.0964,-3.127,-3.1543,-3.2064,-3.2945,-3.344,-3.3903,-3.4427,-3.4831,-3.519,-3.5444,-3.5489,-3.5489,-3.5489,-3.5489,-3.5504,-3.5604,-3.5861,-3.6226,-3.6877,-3.7285,-3.7567,-3.7918,-3.8375,-3.875,-3.8969,-3.9398,-3.9729,-3.9901,-3.9986,-4.007,-4.0087,-4.0087,-4.0087,-4.0087,-4.0087,-4.0087,-4.0087,-4.0087,-4.0087,-4.0087,-4.0087,-4.0138,-4.0238,-4.0387,-4.0614,-4.0948,-4.1272,-4.1542,-2.5128,-2.5538,-2.5645,-2.5732,-2.5703,-2.5391,-2.5176,-2.499,-2.4277,-2.3896,-2.374,-2.333,-2.3232,-2.3406,-2.3503,-2.3677,-2.4034,-2.4292,-2.454,-2.4871,-2.538,-2.5728,-2.5979,-2.655,-2.6951,-2.7267,-2.7672,-2.8099,-2.851,-2.8882,-2.9197,-2.9353,-2.9599,-2.9489,-2.9101,-2.8938,-2.8536,-2.7783,-2.7469,-2.708,-2.6728,-2.6609,-2.6332,-2.5862,-2.5674,-2.541,-2.5046,-2.4519,-2.423,-2.4217,-2.3816,-2.3541,-2.3615,-2.3991,-2.4217,-2.4268,-2.4976,-2.5473,-2.555,-2.6518,-2.7233,-2.7672,-2.8393,-2.9091,-2.9757,-3.0608,-3.1386,-3.2048,-3.2346,-3.2907,-3.357,-3.4203,-3.4517,-3.4741,-3.5235,-3.5489,-3.5489,-3.5489,-3.5489,-3.5489,-3.5489,-3.5569,-3.5634,-3.5861,-3.6226,-3.6877,-3.7105,-3.7373,-3.786,-3.8303,-3.8639,-3.8805,-3.9292,-3.9677,-3.9833,-3.9986,-4.0087,-4.0087,-4.0087,-4.0087,-4.0087,-4.0087,-4.0087,-4.0087,-4.0087,-4.0087,-4.0087,-4.0087,-4.0138,-4.0188,-4.0337,-4.0583,-4.0871,-4.1134,-4.1408,-2.5039,-2.5333,-2.5635,-2.5732,-2.5723,-2.5693,-2.5459,-2.5088,-2.459,-2.417,-2.3799,-2.3359,-2.3144,-2.3135,-2.3416,-2.3493,-2.359,-2.4034,-2.4292,-2.4529,-2.4861,-2.5295,-2.5895,-2.5979,-2.6385,-2.7021,-2.7267,-2.7684,-2.8431,-2.851,-2.8736,-2.9052,-2.9353,-2.9406,-2.9282,-2.9049,-2.8913,-2.8662,-2.7858,-2.7281,-2.718,-2.6728,-2.6546,-2.6339,-2.5887,-2.5611,-2.5511,-2.5059,-2.4782,-2.4782,-2.4707,-2.4695,-2.472,-2.4757,-2.4782,-2.4858,-2.5494,-2.5983,-2.6191,-2.6946,-2.7591,-2.8012,-2.8441,-2.9164,-3.0062,-3.08,-3.1696,-3.3115,-3.3563,-3.3908,-3.4144,-3.4468,-3.4816,-3.5295,-3.5444,-3.5489,-3.5489,-3.5489,-3.5489,-3.5489,-3.5489,-3.5634,-3.5925,-3.5988,-3.6304,-3.6816,-3.7089,-3.7373,-3.786,-3.8303,-3.8567,-3.886,-3.9292,-3.9729,-3.9713,-3.9935,-4.0087,-4.0087,-4.0087,-4.0087,-4.0087,-4.0087,-4.0087,-4.0087,-4.0087,-4.0087,-4.0087,-4.0138,-4.0138,-4.0238,-4.0337,-4.0583,-4.0728,-4.1024,-4.13,-2.5137,-2.5538,-2.5645,-2.5732,-2.5732,-2.5732,-2.5644,-2.5469,-2.5019,-2.459,-2.416,-2.374,-2.3408,-2.3144,-2.3232,-2.3319,-2.3503,-2.3677,-2.3937,-2.4282,-2.454,-2.4871,-2.5295,-2.5728,-2.6074,-2.6385,-2.6798,-2.729,-2.7846,-2.8259,-2.859,-2.8736,-2.9197,-2.9419,-2.9394,-2.9489,-2.9315,-2.8913,-2.8511,-2.8009,-2.7356,-2.708,-2.6898,-2.6533,-2.6332,-2.6138,-2.6151,-2.5611,-2.5322,-2.5322,-2.5008,-2.4833,-2.4858,-2.5146,-2.5498,-2.5837,-2.6186,-2.6502,-2.6729,-2.7098,-2.7603,-2.8079,-2.83,-2.8961,-2.9979,-3.0946,-3.1997,-3.3019,-3.4047,-3.4551,-3.4697,-3.4922,-3.522,-3.5429,-3.5489,-3.5489,-3.5489,-3.5489,-3.5489,-3.5489,-3.5489,-3.5619,-3.5861,-3.5988,-3.6304,-3.6877,-3.706,-3.7345,-3.7801,-3.8262,-3.8544,-3.8805,-3.9292,-3.9677,-3.9677,-3.9935,-4.0087,-4.0087,-4.0087,-4.0087,-4.0087,-4.0087,-4.0087,-4.0087,-4.0087,-4.0087,-4.0087,-4.0138,-4.0138,-4.0188,-4.0288,-4.0436,-4.0566,-4.0901,-4.1134,-2.5235,-2.5635,-2.5732,-2.5732,-2.5732,-2.5732,-2.5732,-2.5684,-2.5264,-2.4824,-2.4394,-2.3975,-2.3545,-2.3184,-2.3144,-2.3232,-2.3416,-2.3493,-2.3677,-2.4024,-2.4282,-2.454,-2.4786,-2.5295,-2.5644,-2.5895,-2.6385,-2.6951,-2.7441,-2.7846,-2.8179,-2.8419,-2.8882,-2.9184,-2.9353,-2.9534,-2.9476,-2.9163,-2.9026,-2.8536,-2.7858,-2.7457,-2.7118,-2.6823,-2.6634,-2.6521,-2.6521,-2.6076,-2.5875,-2.5837,-2.5536,-2.5347,-2.5385,-2.5674,-2.605,-2.6471,-2.6577,-2.6726,-2.6943,-2.7146,-2.7469,-2.804,-2.845,-2.9116,-3.0179,-3.1387,-3.234,-3.3207,-3.4161,-3.4935,-3.5001,-3.5279,-3.5504,-3.5489,-3.5489,-3.5489,-3.5489,-3.5489,-3.5489,-3.5489,-3.5489,-3.5604,-3.5846,-3.5973,-3.6289,-3.6739,-3.6877,-3.7241,-3.7759,-3.8164,-3.8504,-3.8805,-3.9276,-3.9625,-3.9729,-3.9935,-4.0087,-4.0087,-4.0087,-4.0087,-4.0087,-4.0087,-4.0087,-4.0087,-4.0087,-4.0087,-4.0087,-4.0087,-4.0121,-4.0121,-4.0221,-4.0387,-4.0534,-4.0728,-4.1029,-2.5235,-2.5635,-2.5732,-2.5732,-2.5732,-2.5732,-2.5732,-2.5664,-2.5293,-2.4873,-2.4404,-2.3994,-2.3594,-2.3203,-2.3144,-2.3144,-2.3144,-2.3319,-2.3503,-2.359,-2.3937,-2.4292,-2.4454,-2.4786,-2.52,-2.5538,-2.603,-2.6528,-2.7103,-2.7267,-2.7592,-2.8087,-2.8419,-2.8736,-2.9131,-2.9353,-2.9509,-2.9539,-2.9252,-2.8925,-2.8787,-2.7921,-2.7394,-2.7243,-2.6804,-2.6596,-2.6571,-2.6508,-2.6377,-2.6458,-2.6377,-2.6496,-2.6327,-2.6445,-2.6496,-2.6508,-2.6533,-2.6671,-2.6943,-2.7024,-2.7361,-2.8093,-2.8746,-2.9592,-3.0786,-3.1881,-3.2865,-3.3708,-3.4423,-3.4935,-3.4935,-3.5294,-3.5489,-3.5489,-3.5489,-3.5489,-3.5489,-3.5489,-3.5489,-3.5489,-3.5489,-3.5539,-3.5703,-3.5894,-3.6163,-3.6492,-3.6816,-3.7181,-3.7642,-3.8107,-3.8432,-3.8821,-3.9239,-3.9573,-3.9729,-3.9935,-4.0037,-4.0087,-4.0087,-4.0087,-4.0087,-4.0087,-4.0087,-4.0087,-4.0087,-4.0087,-4.0087,-4.0087,-4.0087,-4.0121,-4.0238,-4.0288,-4.0436,-4.0631,-4.084,-2.5235,-2.5635,-2.5732,-2.5732,-2.5732,-2.5732,-2.5732,-2.5723,-2.5576,-2.5107,-2.4482,-2.4277,-2.3828,-2.3262,-2.3144,-2.3144,-2.3144,-2.3232,-2.3319,-2.3503,-2.3677,-2.3851,-2.41,-2.4454,-2.4861,-2.5285,-2.5801,-2.6041,-2.6385,-2.6951,-2.7429,-2.7765,-2.8271,-2.8657,-2.8895,-2.9184,-2.9431,-2.9496,-2.9526,-2.934,-2.8963,-2.8599,-2.8235,-2.7833,-2.7318,-2.703,-2.7005,-2.6666,-2.6533,-2.6533,-2.6521,-2.6521,-2.6521,-2.6521,-2.6521,-2.6521,-2.6521,-2.6589,-2.6794,-2.6969,-2.7408,-2.8195,-2.8784,-2.9767,-3.1144,-3.2039,-3.2939,-3.3782,-3.4467,-3.4935,-3.4935,-3.5294,-3.5504,-3.5489,-3.5489,-3.5489,-3.5489,-3.5489,-3.5489,-3.5489,-3.5489,-3.5539,-3.5703,-3.5894,-3.61,-3.6414,-3.6754,-3.7181,-3.7642,-3.7976,-3.8359,-3.875,-3.9185,-3.952,-3.9729,-3.9884,-3.9986,-4.0087,-4.0087,-4.0087,-4.0087,-4.0087,-4.0087,-4.0087,-4.0087,-4.0087,-4.0087,-4.0087,-4.0087,-4.0087,-4.0138,-4.0238,-4.0337,-4.0485,-4.0697,-2.5235,-2.5635,-2.5732,-2.5732,-2.5732,-2.5732,-2.5732,-2.5732,-2.5732,-2.5332,-2.4736,-2.4482,-2.4043,-2.3457,-2.3223,-2.3144,-2.3144,-2.3144,-2.3232,-2.3319,-2.3503,-2.359,-2.3754,-2.4196,-2.454,-2.4956,-2.538,-2.5644,-2.5895,-2.6528,-2.701,-2.7441,-2.8018,-2.8431,-2.8645,-2.9028,-2.9263,-2.9419,-2.9586,-2.9514,-2.9277,-2.9038,-2.8762,-2.8386,-2.7871,-2.7507,-2.7293,-2.6942,-2.6653,-2.6571,-2.6521,-2.6521,-2.6521,-2.6521,-2.6521,-2.6521,-2.6521,-2.6521,-2.6739,-2.7079,-2.7584,-2.8347,-2.9125,-3.0129,-3.1334,-3.2222,-3.314,-3.3796,-3.4481,-3.4935,-3.4935,-3.5279,-3.5489,-3.5489,-3.5489,-3.5489,-3.5489,-3.5489,-3.5489,-3.5489,-3.5489,-3.5554,-3.5668,-3.5831,-3.6052,-3.6289,-3.6693,-3.7121,-3.7508,-3.7902,-3.8286,-3.8694,-3.9094,-3.9415,-3.9661,-3.9833,-3.9952,-4.0037,-4.0087,-4.0087,-4.0087,-4.0087,-4.0087,-4.0087,-4.0087,-4.0087,-4.0087,-4.0087,-4.0087,-4.0087,-4.0138,-4.0188,-4.0288,-4.0337,-4.0534,-2.5235,-2.5645,-2.5732,-2.5732,-2.5732,-2.5732,-2.5732,-2.5732,-2.5732,-2.5469,-2.5019,-2.459,-2.417,-2.375,-2.333,-2.3144,-2.3144,-2.3144,-2.3144,-2.3222,-2.3319,-2.3503,-2.36,-2.3947,-2.4282,-2.454,-2.4786,-2.5211,-2.5822,-2.6124,-2.6528,-2.7185,-2.7615,-2.8111,-2.8419,-2.8724,-2.8961,-2.9263,-2.9341,-2.9496,-2.9626,-2.9213,-2.8925,-2.8938,-2.8436,-2.7959,-2.7595,-2.7406,-2.7042,-2.6622,-2.6521,-2.6521,-2.6521,-2.6521,-2.6521,-2.6521,-2.6521,-2.6571,-2.6878,-2.7429,-2.8035,-2.8617,-2.9799,-3.0931,-3.1607,-3.2542,-3.3408,-3.3882,-3.4549,-3.4935,-3.5001,-3.5294,-3.5489,-3.5489,-3.5489,-3.5489,-3.5489,-3.5489,-3.5489,-3.5489,-3.5489,-3.5489,-3.5554,-3.5797,-3.5973,-3.6163,-3.6616,-3.7044,-3.7373,-3.777,-3.8286,-3.8623,-3.8969,-3.9292,-3.9556,-3.9729,-3.9901,-4.0037,-4.0087,-4.0087,-4.0087,-4.0087,-4.0087,-4.0087,-4.0087,-4.0087,-4.0087,-4.0087,-4.0087,-4.0087,-4.0138,-4.0188,-4.0238,-4.0271,-4.0387,-2.5137,-2.544,-2.5635,-2.5732,-2.5732,-2.5732,-2.5732,-2.5732,-2.5732,-2.5488,-2.5039,-2.4609,-2.4189,-2.3769,-2.335,-2.3144,-2.3144,-2.3144,-2.3144,-2.3144,-2.3135,-2.3319,-2.3503,-2.359,-2.3937,-2.4282,-2.454,-2.4882,-2.538,-2.579,-2.6313,-2.6962,-2.7278,-2.7684,-2.8167,-2.8498,-2.8724,-2.8949,-2.9118,-2.9275,-2.9484,-2.9372,-2.9374,-2.9503,-2.9001,-2.8649,-2.8448,-2.8097,-2.7419,-2.6609,-2.6521,-2.6521,-2.6521,-2.6521,-2.6546,-2.6571,-2.6571,-2.6735,-2.7145,-2.7653,-2.8299,-2.9202,-3.0145,-3.1079,-3.187,-3.2735,-3.3423,-3.3937,-3.4481,-3.4935,-3.4935,-3.5294,-3.5439,-3.5489,-3.5489,-3.5489,-3.5489,-3.5489,-3.5489,-3.5489,-3.5489,-3.5489,-3.5554,-3.5733,-3.5988,-3.61,-3.6554,-3.706,-3.7314,-3.7669,-3.8132,-3.8511,-3.886,-3.9239,-3.9504,-3.9677,-3.9833,-4.0037,-4.0087,-4.0087,-4.0087,-4.0087,-4.0087,-4.0087,-4.0087,-4.0087,-4.0087,-4.0087,-4.0087,-4.0087,-4.0138,-4.0138,-4.0171,-4.0221,-4.0337,-2.503,-2.5333,-2.5635,-2.5732,-2.5732,-2.5732,-2.5732,-2.5732,-2.5723,-2.5488,-2.5049,-2.4609,-2.4189,-2.3769,-2.334,-2.3144,-2.3144,-2.3144,-2.3144,-2.3144,-2.3135,-2.3232,-2.3319,-2.3406,-2.3677,-2.4013,-2.4292,-2.4625,-2.5115,-2.5549,-2.5979,-2.6479,-2.6951,-2.7429,-2.7753,-2.8167,-2.8498,-2.8657,-2.8895,-2.904,-2.9275,-2.9275,-2.9431,-2.9561,-2.9249,-2.9037,-2.8825,-2.8398,-2.7682,-2.7005,-2.6804,-2.6773,-2.6546,-2.6521,-2.6634,-2.6753,-2.6804,-2.7042,-2.7616,-2.8193,-2.8843,-2.958,-3.044,-3.1342,-3.2033,-3.2846,-3.3493,-3.3882,-3.4549,-3.4868,-3.5001,-3.5294,-3.5439,-3.5489,-3.5489,-3.5489,-3.5489,-3.5489,-3.5489,-3.5489,-3.5489,-3.5489,-3.5489,-3.5797,-3.5988,-3.6115,-3.6569,-3.6923,-3.721,-3.7626,-3.8033,-3.8415,-3.875,-3.9131,-3.9451,-3.9677,-3.9833,-4.0037,-4.0087,-4.0087,-4.0087,-4.0087,-4.0087,-4.0087,-4.0087,-4.0087,-4.0087,-4.0087,-4.0087,-4.0087,-4.0087,-4.0138,-4.0121,-4.0121,-4.0288,-2.5039,-2.5235,-2.5547,-2.5732,-2.5732,-2.5732,-2.5732,-2.5732,-2.5732,-2.5488,-2.5049,-2.46,-2.418,-2.376,-2.334,-2.3144,-2.3144,-2.3144,-2.3144,-2.3144,-2.3144,-2.3144,-2.3144,-2.3319,-2.3493,-2.3754,-2.4024,-2.4444,-2.4861,-2.5285,-2.5622,-2.6052,-2.6704,-2.7103,-2.7348,-2.7753,-2.8179,-2.8431,-2.8566,-2.8803,-2.8961,-2.904,-2.9209,-2.9341,-2.9394,-2.9235,-2.9013,-2.8612,-2.8097,-2.7507,-2.7406,-2.7155,-2.6741,-2.6666,-2.6879,-2.7256,-2.7394,-2.7607,-2.8208,-2.8944,-2.9523,-2.9877,-3.0874,-3.173,-3.2141,-3.2846,-3.3423,-3.3896,-3.4534,-3.4868,-3.5067,-3.5294,-3.5439,-3.5489,-3.5489,-3.5489,-3.5489,-3.5489,-3.5489,-3.5489,-3.5489,-3.5489,-3.5554,-3.5733,-3.5988,-3.6052,-3.6492,-3.6862,-3.715,-3.7567,-3.7976,-3.8432,-3.875,-3.9023,-3.9345,-3.9677,-3.9884,-4.002,-4.007,-4.0087,-4.0087,-4.0087,-4.0087,-4.0087,-4.0087,-4.0087,-4.0087,-4.0087,-4.0087,-4.0087,-4.0087,-4.0087,-4.0138,-4.0121,-4.0188,-2.4932,-2.503,-2.5538,-2.5732,-2.5732,-2.5732,-2.5732,-2.5732,-2.5732,-2.5478,-2.5029,-2.46,-2.417,-2.376,-2.333,-2.3144,-2.3144,-2.3144,-2.3144,-2.3144,-2.3144,-2.3144,-2.3144,-2.3232,-2.3319,-2.359,-2.3764,-2.4186,-2.4529,-2.4946,-2.5295,-2.5895,-2.6135,-2.655,-2.7103,-2.7348,-2.7603,-2.795,-2.8259,-2.8419,-2.8669,-2.8803,-2.8973,-2.9197,-2.9341,-2.9471,-2.9564,-2.9503,-2.9151,-2.8637,-2.8185,-2.7896,-2.7682,-2.7645,-2.7745,-2.7858,-2.7934,-2.8172,-2.8736,-2.9287,-2.9728,-3.0188,-3.1018,-3.173,-3.2069,-3.2846,-3.3437,-3.3882,-3.4467,-3.4949,-3.5294,-3.5439,-3.5504,-3.5489,-3.5489,-3.5489,-3.5489,-3.5489,-3.5489,-3.5489,-3.5489,-3.5489,-3.5489,-3.5653,-3.5846,-3.6037,-3.6289,-3.6677,-3.7105,-3.7464,-3.7918,-3.8359,-3.8694,-3.8969,-3.9362,-3.9625,-3.9884,-4.002,-4.0087,-4.0087,-4.0087,-4.0087,-4.0087,-4.0087,-4.0087,-4.0087,-4.0087,-4.0087,-4.0087,-4.0087,-4.0087,-4.0087,-4.0087,-4.0087,-4.0138,-2.4627,-2.4941,-2.5342,-2.5547,-2.5635,-2.5732,-2.5732,-2.5732,-2.5732,-2.5361,-2.4814,-2.4502,-2.4072,-2.3496,-2.3252,-2.3144,-2.3144,-2.3144,-2.3144,-2.3144,-2.3144,-2.3144,-2.3144,-2.3144,-2.3232,-2.3503,-2.359,-2.3937,-2.4282,-2.4615,-2.4956,-2.5464,-2.5717,-2.6135,-2.6622,-2.6869,-2.729,-2.7534,-2.7777,-2.8018,-2.8191,-2.8419,-2.8645,-2.8961,-2.9275,-2.9509,-2.9586,-2.9689,-2.9616,-2.934,-2.9038,-2.8612,-2.8185,-2.8134,-2.8222,-2.8448,-2.8499,-2.8762,-2.924,-2.9719,-3.0061,-3.0393,-3.1136,-3.1656,-3.2141,-3.2775,-3.3353,-3.3868,-3.4346,-3.4817,-3.5294,-3.5439,-3.5489,-3.5489,-3.5489,-3.5489,-3.5489,-3.5489,-3.5489,-3.5489,-3.5489,-3.5489,-3.5554,-3.5589,-3.5782,-3.5973,-3.6304,-3.6616,-3.706,-3.7405,-3.7801,-3.8189,-3.8567,-3.8914,-3.9309,-3.9625,-3.9884,-4.0037,-4.0087,-4.0087,-4.0087,-4.0087,-4.0087,-4.0087,-4.0087,-4.0087,-4.0087,-4.0087,-4.0087,-4.0087,-4.0087,-4.0087,-4.0087,-4.0087,-4.0121,-2.443,-2.4833,-2.5128,-2.544,-2.5635,-2.5635,-2.5732,-2.5732,-2.5654,-2.5166,-2.4502,-2.4365,-2.3857,-2.3281,-2.3154,-2.3144,-2.3144,-2.3144,-2.3144,-2.3144,-2.3144,-2.3144,-2.3144,-2.3144,-2.3144,-2.3416,-2.3503,-2.3764,-2.4024,-2.4378,-2.4615,-2.4946,-2.538,-2.5717,-2.5979,-2.6396,-2.6798,-2.7033,-2.7278,-2.7534,-2.7788,-2.8018,-2.8247,-2.8724,-2.904,-2.9341,-2.9431,-2.9599,-2.9677,-2.9779,-2.9779,-2.9264,-2.8674,-2.8386,-2.8524,-2.9038,-2.9063,-2.9264,-2.9642,-3.0088,-3.033,-3.0432,-3.1136,-3.173,-3.2141,-3.2704,-3.3297,-3.3785,-3.4278,-3.475,-3.5162,-3.5359,-3.5489,-3.5489,-3.5489,-3.5489,-3.5489,-3.5489,-3.5489,-3.5489,-3.5489,-3.5489,-3.5489,-3.5604,-3.5782,-3.5958,-3.6226,-3.6616,-3.6999,-3.7361,-3.7685,-3.8132,-3.8455,-3.8914,-3.9309,-3.959,-3.9833,-3.9986,-4.0087,-4.0087,-4.0087,-4.0087,-4.0087,-4.0087,-4.0087,-4.0087,-4.0087,-4.0087,-4.0087,-4.0087,-4.0087,-4.0087,-4.0087,-4.0087,-4.0121,-2.4223,-2.4627,-2.5137,-2.5333,-2.544,-2.5635,-2.5732,-2.5674,-2.5361,-2.4902,-2.4424,-2.4043,-2.3643,-2.3232,-2.3144,-2.3144,-2.3144,-2.3144,-2.3144,-2.3144,-2.3144,-2.3144,-2.3144,-2.3144,-2.3135,-2.3232,-2.3329,-2.3503,-2.3764,-2.4024,-2.4368,-2.4615,-2.4956,-2.52,-2.5549,-2.5884,-2.6218,-2.6445,-2.6787,-2.7044,-2.7278,-2.7522,-2.7926,-2.8498,-2.8803,-2.9028,-2.9341,-2.9431,-2.9599,-2.9792,-2.9779,-2.9679,-2.9453,-2.939,-2.9465,-2.9528,-2.9553,-2.9628,-2.9831,-3.0152,-3.0368,-3.0596,-3.1149,-3.1743,-3.2155,-3.2632,-3.3227,-3.3868,-3.4414,-3.4949,-3.5162,-3.5359,-3.5489,-3.5489,-3.5489,-3.5489,-3.5489,-3.5489,-3.5489,-3.5489,-3.5489,-3.5489,-3.5489,-3.5554,-3.5733,-3.591,-3.6115,-3.6492,-3.6938,-3.7225,-3.7492,-3.7943,-3.8399,-3.8914,-3.9379,-3.959,-3.9781,-3.9884,-3.9986,-4.0087,-4.0087,-4.0087,-4.0087,-4.0087,-4.0087,-4.0087,-4.0087,-4.0087,-4.0087,-4.0087,-4.0087,-4.0087,-4.0087,-4.0087,-4.0087,-2.3945,-2.4341,-2.4735,-2.503,-2.5333,-2.543,-2.5538,-2.5674,-2.5264,-2.4824,-2.4394,-2.3975,-2.3545,-2.3232,-2.3144,-2.3144,-2.3144,-2.3144,-2.3144,-2.3144,-2.3144,-2.3144,-2.3144,-2.3144,-2.3144,-2.3144,-2.3232,-2.3416,-2.3513,-2.3677,-2.4034,-2.4368,-2.4615,-2.4861,-2.52,-2.5454,-2.5622,-2.5863,-2.6207,-2.6467,-2.6693,-2.7103,-2.7684,-2.8179,-2.8498,-2.8803,-2.9028,-2.9341,-2.9431,-2.9599,-2.9714,-2.9779,-2.9779,-2.9779,-2.9779,-2.9779,-2.9779,-2.9779,-2.9856,-3.0152,-3.0368,-3.0533,-3.1149,-3.1683,-3.2096,-3.2503,-3.3213,-3.3868,-3.4481,-3.4935,-3.5001,-3.5279,-3.5489,-3.5489,-3.5489,-3.5489,-3.5489,-3.5489,-3.5489,-3.5489,-3.5489,-3.5489,-3.5489,-3.5554,-3.5683,-3.5812,-3.5988,-3.6367,-3.6877,-3.7165,-3.7373,-3.7902,-3.8359,-3.8805,-3.9272,-3.9484,-3.9625,-3.9798,-3.9952,-4.0037,-4.0087,-4.0087,-4.0087,-4.0087,-4.0087,-4.0087,-4.0087,-4.0087,-4.0087,-4.0087,-4.0087,-4.0087,-4.0087,-4.0087,-4.0087,-2.3538,-2.4035,-2.4332,-2.4735,-2.5137,-2.5235,-2.5382,-2.5431,-2.5117,-2.4668,-2.4268,-2.3838,-2.3447,-2.3213,-2.3144,-2.3144,-2.3144,-2.3144,-2.3144,-2.3144,-2.3144,-2.3144,-2.3144,-2.3144,-2.3144,-2.3135,-2.3135,-2.3232,-2.3329,-2.3503,-2.3774,-2.4024,-2.4282,-2.4454,-2.47,-2.4956,-2.5115,-2.5369,-2.5622,-2.5884,-2.6207,-2.6857,-2.7429,-2.8007,-2.8259,-2.8578,-2.8803,-2.9118,-2.9341,-2.9509,-2.9611,-2.9779,-2.9779,-2.9779,-2.9779,-2.9779,-2.9779,-2.9779,-2.9856,-3.0152,-3.0368,-3.0444,-3.1149,-3.1609,-3.2036,-3.2588,-3.3213,-3.3868,-3.4481,-3.4935,-3.5001,-3.5294,-3.5424,-3.5489,-3.5489,-3.5489,-3.5489,-3.5489,-3.5489,-3.5489,-3.5489,-3.5489,-3.5489,-3.5489,-3.5619,-3.5797,-3.591,-3.6241,-3.6677,-3.6984,-3.7329,-3.7844,-3.8359,-3.8766,-3.9094,-3.9325,-3.9537,-3.9694,-3.9849,-3.9952,-4.0037,-4.0087,-4.0087,-4.0087,-4.0087,-4.0087,-4.0087,-4.0087,-4.0087,-4.0087,-4.0087,-4.0087,-4.0087,-4.0087,-4.0087,-2.3038,-2.3854,-2.4044,-2.4332,-2.4627,-2.5011,-2.5102,-2.4842,-2.4594,-2.4258,-2.3887,-2.3447,-2.3213,-2.3154,-2.3144,-2.3144,-2.3144,-2.3144,-2.3144,-2.3144,-2.3144,-2.3144,-2.3144,-2.3144,-2.3144,-2.3144,-2.3144,-2.3144,-2.3232,-2.3416,-2.3513,-2.3677,-2.3851,-2.4024,-2.4282,-2.4454,-2.4711,-2.4946,-2.52,-2.5538,-2.5968,-2.6704,-2.7103,-2.7522,-2.7846,-2.8339,-2.8498,-2.8895,-2.9197,-2.9419,-2.9611,-2.9779,-2.9779,-2.9779,-2.9779,-2.9779,-2.9779,-2.9779,-2.9856,-3.0152,-3.0368,-3.052,-3.1136,-3.1596,-3.2096,-3.2803,-3.3437,-3.3882,-3.4481,-3.4868,-3.4935,-3.5228,-3.5424,-3.5489,-3.5489,-3.5489,-3.5489,-3.5489,-3.5489,-3.5489,-3.5489,-3.5489,-3.5489,-3.5489,-3.5539,-3.5733,-3.591,-3.6226,-3.6538,-3.6907,-3.727,-3.786,-3.8262,-3.8655,-3.8931,-3.9164,-3.9379,-3.9537,-3.9694,-3.9849,-3.9935,-3.9986,-4.0087,-4.0087,-4.0087,-4.0087,-4.0087,-4.0087,-4.0087,-4.0087,-4.0087,-4.0087,-4.0087,-4.0087,-4.0087,-2.2038,-2.3138,-2.3737,-2.3907,-2.4008,-2.4291,-2.4345,-2.4116,-2.389,-2.3774,-2.3551,-2.3252,-2.3144,-2.3144,-2.3144,-2.3144,-2.3144,-2.3144,-2.3144,-2.3144,-2.3144,-2.3144,-2.3144,-2.3144,-2.3144,-2.3144,-2.3144,-2.3144,-2.3144,-2.3232,-2.3319,-2.3503,-2.358,-2.3754,-2.3937,-2.4024,-2.4282,-2.454,-2.4871,-2.5295,-2.5812,-2.6302,-2.6704,-2.7174,-2.7522,-2.7846,-2.8259,-2.859,-2.8895,-2.9197,-2.9456,-2.9689,-2.9779,-2.9779,-2.9779,-2.9779,-2.9779,-2.9779,-2.9856,-3.0088,-3.0228,-3.052,-3.0973,-3.1508,-3.2141,-3.2789,-3.3437,-3.3882,-3.4346,-3.4668,-3.4854,-3.5148,-3.5374,-3.5439,-3.5489,-3.5489,-3.5489,-3.5489,-3.5489,-3.5489,-3.5489,-3.5489,-3.5489,-3.5489,-3.5539,-3.5653,-3.591,-3.6163,-3.6538,-3.7013,-3.7433,-3.786,-3.8205,-3.8488,-3.8711,-3.8931,-3.9164,-3.9379,-3.9484,-3.9642,-3.9781,-3.9884,-3.9935,-4.0037,-4.0037,-4.0087,-4.0087,-4.0087,-4.0087,-4.0087,-4.0087,-4.0087,-4.0087,-4.0087,-4.0087,-2.0907,-2.1945,-2.2857,-2.3277,-2.3295,-2.3583,-2.3636,-2.3409,-2.34,-2.3281,-2.3198,-2.3007,-2.3057,-2.3144,-2.3144,-2.3144,-2.3144,-2.3144,-2.3144,-2.3144,-2.3144,-2.3144,-2.3144,-2.3144,-2.3144,-2.3144,-2.3144,-2.3144,-2.3144,-2.3135,-2.3222,-2.3416,-2.3416,-2.3493,-2.3667,-2.3764,-2.3937,-2.4282,-2.4615,-2.5041,-2.5559,-2.5812,-2.6302,-2.6704,-2.7103,-2.7429,-2.7926,-2.8419,-2.8749,-2.9052,-2.9353,-2.9521,-2.9714,-2.9779,-2.9779,-2.9779,-2.9779,-2.9779,-2.9856,-3.0011,-3.0228,-3.0457,-3.0898,-3.1582,-3.2273,-3.2775,-3.3213,-3.3813,-3.421,-3.4534,-3.4868,-3.5082,-3.5294,-3.5439,-3.5489,-3.5489,-3.5489,-3.5489,-3.5489,-3.5489,-3.5489,-3.5489,-3.5489,-3.5489,-3.5554,-3.5653,-3.5846,-3.61,-3.6538,-3.6952,-3.7314,-3.7685,-3.7918,-3.8205,-3.8544,-3.8766,-3.9002,-3.9164,-3.9325,-3.9432,-3.959,-3.9729,-3.9833,-3.9884,-4.0003,-3.9986,-3.9986,-4.0037,-4.0087,-4.0087,-4.0087,-4.0087,-4.0087,-4.0087,-4.0087,-2.0005,-2.0127,-2.121,-2.2057,-2.2695,-2.2978,-2.2936,-2.2749,-2.2975,-2.283,-2.2653,-2.2725,-2.2882,-2.3047,-2.3047,-2.3047,-2.3144,-2.3144,-2.3144,-2.3144,-2.3144,-2.3144,-2.3144,-2.3144,-2.3144,-2.3144,-2.3144,-2.3144,-2.3144,-2.3144,-2.3135,-2.3144,-2.3232,-2.3319,-2.3406,-2.358,-2.3764,-2.4034,-2.4368,-2.4615,-2.5126,-2.5464,-2.5979,-2.6146,-2.6787,-2.7348,-2.7603,-2.8099,-2.859,-2.8973,-2.9275,-2.9431,-2.9702,-2.9792,-2.9792,-2.9779,-2.9779,-2.9779,-2.9856,-2.9934,-3.0152,-3.0533,-3.1061,-3.173,-3.2286,-3.2775,-3.3283,-3.3744,-3.4142,-3.4467,-3.4802,-3.5082,-3.5228,-3.5424,-3.5489,-3.5489,-3.5489,-3.5489,-3.5489,-3.5489,-3.5489,-3.5489,-3.5489,-3.5489,-3.5489,-3.5604,-3.5782,-3.6037,-3.6429,-3.6846,-3.7089,-3.7389,-3.7626,-3.7918,-3.8278,-3.8488,-3.8655,-3.8821,-3.904,-3.9164,-3.9325,-3.9468,-3.9625,-3.9729,-3.9781,-3.9833,-3.9935,-3.9986,-4.0037,-4.0087,-4.0087,-4.0087,-4.0087,-4.0087,-4.0087,-1.9078,-1.9534,-1.9792,-2.0491,-2.1558,-2.2008,-2.2061,-2.1925,-2.215,-2.2344,-2.2353,-2.253,-2.2706,-2.2882,-2.2969,-2.2969,-2.3047,-2.3144,-2.3144,-2.3144,-2.3144,-2.3144,-2.3144,-2.3144,-2.3144,-2.3144,-2.3144,-2.3144,-2.3144,-2.3144,-2.3144,-2.3144,-2.3144,-2.3144,-2.3232,-2.3406,-2.359,-2.3764,-2.412,-2.4454,-2.47,-2.52,-2.5633,-2.5979,-2.6467,-2.6951,-2.7348,-2.7857,-2.8259,-2.8736,-2.9052,-2.9365,-2.9599,-2.9702,-2.9792,-2.9779,-2.9779,-2.9779,-2.9779,-2.9934,-3.0088,-3.052,-3.1136,-3.1743,-3.2169,-3.2574,-3.3072,-3.3577,-3.3951,-3.4332,-3.4868,-3.5001,-3.5082,-3.5359,-3.5489,-3.5489,-3.5489,-3.5489,-3.5489,-3.5489,-3.5489,-3.5489,-3.5489,-3.5489,-3.5489,-3.5554,-3.5797,-3.6037,-3.6289,-3.6616,-3.6907,-3.715,-3.7329,-3.7567,-3.7918,-3.8148,-3.8319,-3.8488,-3.8694,-3.8876,-3.8985,-3.9272,-3.9432,-3.952,-3.9625,-3.9729,-3.9833,-3.9935,-3.9986,-4.007,-4.007,-4.0087,-4.0087,-4.0087,-4.0087,-1.8255,-1.8793,-1.8838,-1.9527,-2.0593,-2.1064,-2.119,-2.1248,-2.1383,-2.1731,-2.2176,-2.2264,-2.2441,-2.2618,-2.2803,-2.2891,-2.2969,-2.3047,-2.3057,-2.3144,-2.3144,-2.3144,-2.3144,-2.3144,-2.3144,-2.3144,-2.3144,-2.3144,-2.3144,-2.3144,-2.3144,-2.3144,-2.3144,-2.3144,-2.3144,-2.3232,-2.3416,-2.359,-2.3764,-2.4206,-2.4454,-2.4786,-2.52,-2.5633,-2.6135,-2.6633,-2.7115,-2.7534,-2.8018,-2.8498,-2.8895,-2.9197,-2.9443,-2.9611,-2.9779,-2.9779,-2.9779,-2.9779,-2.9779,-2.9934,-3.0088,-3.0444,-3.1136,-3.1596,-3.195,-3.2359,-3.3002,-3.3521,-3.3813,-3.4142,-3.4802,-3.4935,-3.5148,-3.5359,-3.5489,-3.5489,-3.5489,-3.5489,-3.5489,-3.5489,-3.5489,-3.5489,-3.5489,-3.5489,-3.5489,-3.5554,-3.5653,-3.5894,-3.6022,-3.6352,-3.6662,-3.6907,-3.7105,-3.7329,-3.7508,-3.7727,-3.7902,-3.8091,-3.8319,-3.8528,-3.8694,-3.8931,-3.9164,-3.9255,-3.9415,-3.9573,-3.9729,-3.9833,-3.9935,-4.007,-4.007,-4.0087,-4.0087,-4.0087,-4.0087,-1.7456,-1.783,-1.8465,-1.9212,-1.9895,-2.0226,-2.049,-2.0744,-2.0916,-2.1275,-2.1731,-2.2008,-2.2185,-2.2451,-2.253,-2.2706,-2.2882,-2.2969,-2.3057,-2.3144,-2.3144,-2.3144,-2.3144,-2.3144,-2.3144,-2.3144,-2.3144,-2.3144,-2.3144,-2.3144,-2.3144,-2.3144,-2.3144,-2.3144,-2.3144,-2.3144,-2.3232,-2.3503,-2.3503,-2.3851,-2.4196,-2.4454,-2.4871,-2.5295,-2.5812,-2.6313,-2.6891,-2.7278,-2.7777,-2.8351,-2.8736,-2.9118,-2.9353,-2.9611,-2.9702,-2.9779,-2.9779,-2.9779,-2.9779,-3.0152,-3.0292,-3.0432,-3.1061,-3.1522,-3.1877,-3.2372,-3.286,-3.3382,-3.3744,-3.4157,-3.4616,-3.4935,-3.5148,-3.5359,-3.5424,-3.5489,-3.5489,-3.5489,-3.5489,-3.5489,-3.5489,-3.5489,-3.5489,-3.5489,-3.5489,-3.5539,-3.5638,-3.5767,-3.5894,-3.6085,-3.6461,-3.6646,-3.6846,-3.7044,-3.721,-3.7314,-3.7492,-3.7743,-3.7918,-3.8075,-3.8303,-3.86,-3.8766,-3.8969,-3.9202,-3.9362,-3.9573,-3.9694,-3.9833,-3.9969,-4.007,-4.0087,-4.0087,-4.0087,-4.0087,-1.7246,-1.7434,-1.7908,-1.8272,-1.8827,-1.9479,-1.9936,-2.0201,-2.0654,-2.1006,-2.1275,-2.1553,-2.1741,-2.1998,-2.2264,-2.253,-2.2794,-2.2882,-2.2969,-2.3047,-2.3135,-2.3144,-2.3144,-2.3144,-2.3144,-2.3144,-2.3144,-2.3144,-2.3144,-2.3144,-2.3144,-2.3144,-2.3144,-2.3144,-2.3144,-2.3144,-2.3144,-2.3232,-2.3406,-2.3667,-2.3927,-2.4272,-2.47,-2.5115,-2.5644,-2.6146,-2.6644,-2.7103,-2.7603,-2.8111,-2.851,-2.8895,-2.9197,-2.9443,-2.9599,-2.9702,-2.9779,-2.9779,-2.9856,-3.0088,-3.0216,-3.052,-3.0898,-3.136,-3.1656,-3.2214,-3.2717,-3.3213,-3.366,-3.4074,-3.4481,-3.4802,-3.5016,-3.5228,-3.5359,-3.5424,-3.5489,-3.5489,-3.5489,-3.5489,-3.5489,-3.5489,-3.5489,-3.5489,-3.5489,-3.5489,-3.5589,-3.5638,-3.5767,-3.5958,-3.6148,-3.6336,-3.6523,-3.6662,-3.6846,-3.7013,-3.7194,-3.7373,-3.7508,-3.7669,-3.7902,-3.8205,-3.8432,-3.8655,-3.8931,-3.9148,-3.9362,-3.959,-3.9781,-3.9935,-3.9986,-4.0087,-4.0087,-4.0087,-4.0087,-1.6878,-1.7052,-1.7426,-1.7714,-1.7986,-1.8835,-1.9387,-1.9745,-2.0192,-2.0555,-2.0736,-2.1024,-2.1302,-2.1562,-2.183,-2.2185,-2.2539,-2.2803,-2.2803,-2.296,-2.3047,-2.3047,-2.3144,-2.3144,-2.3144,-2.3144,-2.3144,-2.3144,-2.3144,-2.3144,-2.3144,-2.3144,-2.3144,-2.3144,-2.3144,-2.3144,-2.3144,-2.3144,-2.3319,-2.3416,-2.3754,-2.4013,-2.4444,-2.4956,-2.538,-2.5884,-2.6373,-2.6869,-2.736,-2.78,-2.8283,-2.8669,-2.9052,-2.9275,-2.9509,-2.9702,-2.9779,-2.9779,-2.9856,-2.9856,-3.0075,-3.0355,-3.0748,-3.1136,-3.1596,-3.2096,-3.2503,-3.3002,-3.3507,-3.3937,-3.4346,-3.4668,-3.4949,-3.5096,-3.5294,-3.5359,-3.5504,-3.5504,-3.5489,-3.5489,-3.5489,-3.5489,-3.5489,-3.5489,-3.5489,-3.5554,-3.5539,-3.5589,-3.5653,-3.5782,-3.5958,-3.6085,-3.6211,-3.6352,-3.6538,-3.6677,-3.6846,-3.7013,-3.7134,-3.7314,-3.7551,-3.7844,-3.8091,-3.8335,-3.86,-3.8876,-3.9202,-3.9415,-3.9573,-3.9781,-3.9952,-3.9986,-4.0087,-4.0087,-4.0087,-1.6305,-1.6683,-1.7044,-1.7232,-1.7419,-1.8164,-1.8727,-1.9196,-1.9654,-2.0019,-2.0292,-2.0564,-2.0925,-2.1302,-2.1562,-2.183,-2.2097,-2.2549,-2.2715,-2.2891,-2.2969,-2.3057,-2.3057,-2.3144,-2.3144,-2.3144,-2.3144,-2.3144,-2.3144,-2.3144,-2.3144,-2.3144,-2.3144,-2.3144,-2.3144,-2.3144,-2.3144,-2.3144,-2.3144,-2.3319,-2.358,-2.3754,-2.4186,-2.4615,-2.5126,-2.5622,-2.6124,-2.6633,-2.7208,-2.7708,-2.8191,-2.8657,-2.8961,-2.9263,-2.9521,-2.9702,-2.9779,-2.9779,-2.9779,-2.9856,-3.0011,-3.0292,-3.0685,-3.1149,-3.1596,-3.1963,-3.2372,-3.2874,-3.3368,-3.3868,-3.4278,-3.4563,-3.4831,-3.4964,-3.5162,-3.5294,-3.5439,-3.5504,-3.5489,-3.5489,-3.5489,-3.5489,-3.5489,-3.5489,-3.5489,-3.5489,-3.5554,-3.5554,-3.5604,-3.5668,-3.5782,-3.5831,-3.5958,-3.6085,-3.6226,-3.6414,-3.6538,-3.6646,-3.6846,-3.7029,-3.7254,-3.7476,-3.7727,-3.8033,-3.8278,-3.8616,-3.8931,-3.9202,-3.9379,-3.959,-3.9746,-3.9901,-3.9986,-4.0087,-4.0087,-1.6218,-1.6319,-1.6683,-1.6763,-1.6864,-1.7419,-1.8079,-1.892,-1.9104,-1.9387,-1.9862,-2.0209,-2.0473,-2.0654,-2.1212,-2.1571,-2.1839,-2.2195,-2.2539,-2.2715,-2.2891,-2.2969,-2.3057,-2.3047,-2.3135,-2.3144,-2.3144,-2.3144,-2.3144,-2.3144,-2.3144,-2.3144,-2.3144,-2.3144,-2.3144,-2.3144,-2.3144,-2.3144,-2.3144,-2.3232,-2.3406,-2.3667,-2.4013,-2.4444,-2.4871,-2.5464,-2.5968,-2.6467,-2.6962,-2.7522,-2.7881,-2.8271,-2.8882,-2.9118,-2.9365,-2.9702,-2.9779,-2.9779,-2.9779,-2.9779,-2.9934,-3.0152,-3.0457,-3.0986,-3.1447,-3.189,-3.2228,-3.266,-3.3157,-3.3577,-3.4005,-3.4293,-3.4563,-3.4765,-3.5016,-3.5162,-3.5309,-3.5424,-3.5424,-3.5489,-3.5489,-3.5489,-3.5489,-3.5489,-3.5489,-3.5489,-3.5489,-3.5489,-3.5489,-3.5554,-3.5604,-3.5653,-3.5703,-3.5846,-3.5958,-3.61,-3.6211,-3.6336,-3.6538,-3.6739,-3.6907,-3.7134,-3.7433,-3.7727,-3.8033,-3.8375,-3.8694,-3.8914,-3.9094,-3.9325,-3.9484,-3.9694,-3.9884,-3.9986,-4.0087,-1.6028,-1.6028,-1.6312,-1.6494,-1.6683,-1.6958,-1.752,-1.8172,-1.845,-1.8827,-1.9296,-1.9563,-1.9928,-2.0382,-2.0753,-2.1114,-2.1571,-2.183,-2.2185,-2.2451,-2.2715,-2.2882,-2.2969,-2.3047,-2.3135,-2.3144,-2.3144,-2.3144,-2.3144,-2.3144,-2.3144,-2.3144,-2.3144,-2.3144,-2.3144,-2.3144,-2.3144,-2.3144,-2.3144,-2.3232,-2.3319,-2.358,-2.3927,-2.4282,-2.47,-2.5211,-2.5728,-2.6218,-2.6787,-2.736,-2.7719,-2.8122,-2.8645,-2.9052,-2.9365,-2.9702,-2.9779,-2.9779,-2.9779,-2.9779,-2.9934,-3.0075,-3.0305,-3.0748,-3.1136,-3.1596,-3.2023,-3.2444,-3.2874,-3.3297,-3.366,-3.402,-3.4293,-3.4563,-3.4831,-3.503,-3.5162,-3.5279,-3.5359,-3.5489,-3.5489,-3.5489,-3.5489,-3.5489,-3.5489,-3.5489,-3.5489,-3.5489,-3.5489,-3.5489,-3.5554,-3.5604,-3.5589,-3.5653,-3.5782,-3.591,-3.6022,-3.6148,-3.6274,-3.6461,-3.6646,-3.6831,-3.7134,-3.7492,-3.7801,-3.8132,-3.8415,-3.8583,-3.8821,-3.9056,-3.9272,-3.9432,-3.9625,-3.9833,-3.9935,-1.5825,-1.5825,-1.6028,-1.6305,-1.6588,-1.6588,-1.6864,-1.7232,-1.78,-1.8272,-1.8735,-1.8819,-1.9379,-1.9928,-2.0292,-2.0753,-2.1203,-2.1472,-2.183,-2.2097,-2.2451,-2.2715,-2.2882,-2.2969,-2.3057,-2.3057,-2.3144,-2.3144,-2.3144,-2.3144,-2.3144,-2.3144,-2.3144,-2.3144,-2.3144,-2.3144,-2.3144,-2.3144,-2.3144,-2.3144,-2.3222,-2.3319,-2.358,-2.3841,-2.4358,-2.4871,-2.5454,-2.5946,-2.6434,-2.7115,-2.7615,-2.803,-2.8578,-2.9052,-2.9443,-2.9689,-2.9779,-2.9779,-2.9779,-2.9779,-2.9869,-3.0088,-3.0228,-3.052,-3.0898,-3.136,-3.179,-3.2241,-3.2674,-3.31,-3.3452,-3.373,-3.4005,-3.4278,-3.4549,-3.4817,-3.503,-3.5162,-3.5359,-3.5424,-3.5489,-3.5489,-3.5489,-3.5489,-3.5489,-3.5489,-3.5489,-3.5489,-3.5489,-3.5489,-3.5489,-3.5554,-3.5539,-3.5604,-3.5653,-3.5718,-3.5782,-3.5894,-3.6085,-3.6211,-3.6352,-3.66,-3.6846,-3.721,-3.7567,-3.786,-3.8091,-3.8303,-3.8472,-3.8711,-3.8931,-3.9148,-3.9362,-3.9625,-3.9833,-1.5825,-1.5825,-1.5832,-1.6028,-1.6319,-1.6319,-1.6494,-1.677,-1.7066,-1.7621,-1.8272,-1.8643,-1.892,-1.9288,-1.9928,-2.0382,-2.0654,-2.1114,-2.1571,-2.183,-2.2185,-2.2451,-2.2715,-2.2794,-2.2969,-2.3057,-2.3144,-2.3144,-2.3144,-2.3144,-2.3144,-2.3144,-2.3144,-2.3144,-2.3144,-2.3144,-2.3144,-2.3144,-2.3144,-2.3144,-2.3135,-2.3319,-2.358,-2.3841,-2.4272,-2.469,-2.52,-2.5717,-2.629,-2.688,-2.736,-2.7926,-2.8645,-2.904,-2.9275,-2.9431,-2.9702,-2.9779,-2.9779,-2.9779,-2.9856,-2.9946,-3.0088,-3.0305,-3.0596,-3.1123,-3.1569,-3.2023,-3.2386,-3.2816,-3.31,-3.3382,-3.366,-3.4005,-3.4346,-3.4616,-3.4831,-3.503,-3.5228,-3.5359,-3.5424,-3.5489,-3.5489,-3.5489,-3.5489,-3.5489,-3.5489,-3.5489,-3.5489,-3.5489,-3.5489,-3.5489,-3.5489,-3.5554,-3.5539,-3.5589,-3.5653,-3.5703,-3.5831,-3.5958,-3.61,-3.6352,-3.6662,-3.6968,-3.7345,-3.7567,-3.7786,-3.8001,-3.8173,-3.8415,-3.8655,-3.8876,-3.9094,-3.9309,-3.9573,-1.5825,-1.5825,-1.5825,-1.5927,-1.6021,-1.6028,-1.6218,-1.6407,-1.6595,-1.6972,-1.7621,-1.8087,-1.8458,-1.8735,-1.9471,-2.0019,-2.0201,-2.0663,-2.1114,-2.1562,-2.183,-2.2097,-2.2353,-2.2706,-2.2794,-2.2969,-2.3057,-2.3144,-2.3144,-2.3144,-2.3144,-2.3144,-2.3144,-2.3144,-2.3144,-2.3144,-2.3144,-2.3144,-2.3144,-2.3144,-2.3144,-2.3232,-2.3406,-2.3754,-2.4013,-2.4433,-2.4946,-2.538,-2.5968,-2.6715,-2.729,-2.7938,-2.8578,-2.8973,-2.9197,-2.9431,-2.9599,-2.9779,-2.9779,-2.9779,-2.9779,-2.9856,-3.0011,-3.0216,-3.0305,-3.0748,-3.1211,-3.1656,-3.2169,-3.253,-3.2745,-3.303,-3.3312,-3.3675,-3.4074,-3.4414,-3.4683,-3.4883,-3.5096,-3.5294,-3.5359,-3.5424,-3.5424,-3.5489,-3.5489,-3.5489,-3.5489,-3.5489,-3.5489,-3.5489,-3.5489,-3.5489,-3.5489,-3.5489,-3.5489,-3.5554,-3.5554,-3.5604,-3.5638,-3.5831,-3.6037,-3.6226,-3.6476,-3.6723,-3.6968,-3.715,-3.7358,-3.7653,-3.7844,-3.7976,-3.8262,-3.86,-3.8766,-3.8985,-3.9255,-1.5825,-1.5825,-1.5825,-1.5825,-1.5825,-1.5825,-1.5927,-1.6123,-1.6218,-1.6508,-1.6972,-1.7441,-1.8001,-1.8458,-1.8827,-1.9471,-1.9928,-2.03,-2.0753,-2.1114,-2.1562,-2.183,-2.2185,-2.2451,-2.2618,-2.2882,-2.3057,-2.3057,-2.3144,-2.3144,-2.3144,-2.3144,-2.3144,-2.3144,-2.3144,-2.3144,-2.3144,-2.3144,-2.3144,-2.3144,-2.3144,-2.3144,-2.3319,-2.3493,-2.3667,-2.4024,-2.4529,-2.5115,-2.5706,-2.6373,-2.7208,-2.7857,-2.8419,-2.8895,-2.9118,-2.9353,-2.9624,-2.9792,-2.9779,-2.9779,-2.9779,-2.9856,-2.9998,-3.0075,-3.0152,-3.0457,-3.0849,-3.1299,-3.173,-3.2169,-3.2386,-3.2674,-3.2973,-3.3396,-3.3799,-3.421,-3.4481,-3.475,-3.4949,-3.5096,-3.5228,-3.5228,-3.5359,-3.5424,-3.5489,-3.5489,-3.5489,-3.5489,-3.5489,-3.5489,-3.5489,-3.5489,-3.5489,-3.5489,-3.5489,-3.5489,-3.5504,-3.5554,-3.5604,-3.5782,-3.591,-3.6022,-3.6148,-3.6367,-3.66,-3.6846,-3.7029,-3.7254,-3.7449,-3.7642,-3.786,-3.8132,-3.8544,-3.8766,-3.8985,-1.5825,-1.5825,-1.5825,-1.5825,-1.5825,-1.5825,-1.5832,-1.592,-1.6123,-1.6319,-1.6508,-1.6885,-1.7448,-1.8001,-1.855,-1.9096,-1.9288,-1.9837,-2.0201,-2.0564,-2.1114,-2.1472,-2.183,-2.2185,-2.2441,-2.2706,-2.2969,-2.3047,-2.3057,-2.3057,-2.3144,-2.3144,-2.3144,-2.3144,-2.3144,-2.3144,-2.3144,-2.3144,-2.3144,-2.3144,-2.3144,-2.3144,-2.3242,-2.3493,-2.3667,-2.41,-2.4529,-2.4956,-2.5464,-2.6135,-2.6951,-2.7684,-2.8259,-2.8724,-2.904,-2.9287,-2.9546,-2.9714,-2.9779,-2.9779,-2.9779,-2.9779,-2.9934,-2.9934,-3.0088,-3.0152,-3.0546,-3.0773,-3.1286,-3.173,-3.2023,-3.2241,-3.2602,-3.3185,-3.366,-3.4005,-3.4346,-3.4481,-3.4616,-3.4817,-3.4949,-3.5082,-3.5213,-3.5279,-3.5359,-3.5359,-3.5439,-3.5439,-3.5489,-3.5489,-3.5489,-3.5489,-3.5489,-3.5489,-3.5489,-3.5489,-3.5489,-3.5504,-3.5554,-3.5668,-3.5718,-3.5752,-3.5894,-3.61,-3.6367,-3.6538,-3.6723,-3.6907,-3.715,-3.7329,-3.7433,-3.7711,-3.8148,-3.856,-3.8821]}]]